     2              OBSERVATION DATA    GPS                 RINEX VERSION / TYPE
teqc 1997Jul24 19970814                                     PGM / RUN BY / DATE
                                                            COMMENT
Original Marker Name: 0705                                  COMMENT
Campaign Name: HPGN 1991                                    COMMENT
4-Character Station Name: 0705                              COMMENT
6-Character Antenna Code: TRMSST                            COMMENT
Vertical Measurement Point: TGP                             COMMENT
Vertical Offset to Rinex Ref. Point: 0.0629                 COMMENT
Radial Measurement Point: OGP                               COMMENT
Radial Offset to Rinex Ref. Point: 0.2413                   COMMENT
Antenna Height from Field Measurement: 1.7483 m             COMMENT
Original XYZ: -2451918.6672 -4657353.3531 3592213.8977      COMMENT
New XYZ position is based on association with SCEC monument COMMENT
E1F2B4Q8+0011. Position of that monument is believed to be  COMMENT
valid to within 1 m horizontally; vertical accuracy         COMMENT
should be no worse than 3-times this value.                 COMMENT
                                                            COMMENT
Revised Rinex header created by UCSD GPS archive for        COMMENT
GSAC on 19-Apr-1999 (1999:109) 05:07:06 GMT                 COMMENT
For assistance contact dagnew@ucsd.edu or hjohnson@ucsd.edu COMMENT
                                                            COMMENT
HPGN-CALIF STA 07-05                                        MARKER NAME
unknown NATIONAL GEODETIC SURVEY                            OBSERVER / AGENCY
485 TRIMBLE 4000 SST NP 4.30 / SP 4.20                      REC # / TYPE / VERS
16 TR 4000SST L1/L2 GEO                                     ANT # / TYPE
 -2451918.0000 -4657354.0000  3592210.0000                  APPROX POSITION XYZ
        1.6687        0.0000        0.0000                  ANTENNA: DELTA H/E/N
     1     1     0                                          WAVELENGTH FACT L1/2
     3    C1    L1    L2                                    # / TYPES OF OBSERV
     0                                                      INTERVAL
  1991     4    23    20     4   15.000000                  TIME OF FIRST OBS
  1991     4    24     1    58   15.000000                  TIME OF LAST OBS
     0                                                      # OF SATELLITES
                                                            END OF HEADER
 91  4 23 20  4 15.0000000  0  4G18G 2G11G19
  20743279.500          -0.44218
  23459397.7894         -0.10556
  23463030.828          -0.34616
  20824011.953          -0.29916
 91  4 23 20  4 30.0000000  0  4G18G 2G11G19
  20745261.0704      10413.68348        -0.49673
  23448650.984      -56471.867 6
  23455625.352      -38919.251 6
  20821541.8364     -12961.34746        -0.18472
 91  4 23 20  4 45.0000000  0  4G18G 2G11G19
  20747250.781       20870.760 8      8147.82823
  23437901.9224    -112959.72446        -0.44271
  23448227.477      -77797.305 6        -0.06731
  20819073.6804     -25947.85546    -10119.53462
 91  4 23 20  5  0.0000000  0  4G18G 2G11G19
  20749252.539       31385.459 8     16341.05923
  23427152.641     -169448.780 6    -44017.75221
  23440839.398     -116619.227 6    -30250.81521
  20816599.6954     -38944.92646    -20247.11662
 91  4 23 20  5 15.0000000  0  4G18G 2G11G19
  20751265.430       41965.508 8     24585.20823
  23416404.9304    -225931.15546    -88029.84061
  23433461.6024    -155377.06946    -60451.61361
  20814126.1254     -51944.74946    -30376.83962
 91  4 23 20  5 30.0000000  0  4G18G 2G11G19
  20753292.945       52619.809 8     32887.21823
  23405660.1804    -282397.86646   -132029.73361
  23426102.2274    -194061.45346    -90595.16061
  20811652.3054     -64938.41546    -40501.77062
 91  4 23 20  5 45.0000000  0  4G18G 2G11G19
  20755336.188       63358.394 8     41254.89923
  23394918.5234    -338838.37946   -176009.19461
  23418756.0314    -232661.85146   -120673.25961
  20809184.6174     -77915.61546    -50613.87062
 91  4 23 20  6  0.0000000  0  4G18G 2G11G19
  20757394.773       74181.398 8     49688.36423
  23384184.3284    -395252.29946   -219967.92961
  23411423.6094    -271177.62546   -150685.43661
  20806716.7734     -90876.19246    -60713.01862
 91  4 23 20  6 15.0000000  0  4G18G 2G11G19
  20759471.977       85093.032 8     58190.88823
  23373455.1484    -451635.45546   -263902.70961
  23404114.328     -309604.480 6   -180628.31221
  20804255.8914    -103816.23846    -70796.17162
 91  4 23 20  6 30.0000000  0  4G18G 2G11G19
  20761566.008       96095.296 8     66764.03423
  23362731.9534    -507985.62646   -307811.76161
  23396817.9694    -347940.09946   -210500.10661
  20801795.4694    -116733.68746    -80861.71762
 91  4 23 20  6 45.0000000  0  4G18G 2G11G19
  20763676.977      107191.087 7     75410.06123
  23352016.523     -564299.296 6   -351692.40621
  23389539.0784    -386180.60746   -240297.80261
  20799345.0084    -129625.01646    -90906.90362
 91  4 23 20  7  0.0000000  0  4G18G 2G11G19
  20765806.188      118377.216 8     84126.47423
  23341304.977     -620579.928 6   -395547.30721
  23382283.4924    -424329.25446   -270023.89161
  20796894.8834    -142493.82246   -100934.54562
 91  4 23 20  7 15.0000000  0  4G18G 2G11G19
  20767951.539      129654.069 7     92913.58423
  23330600.9224    -676826.79146   -439375.87661
  23375039.9694    -462385.31446   -299677.84861
  20794451.9304    -155339.70046   -110944.31762
 91  4 23 20  7 30.0000000  0  4G18G 2G11G19
  20770114.977      141022.663 7    101772.18323
  23319906.0314    -733038.58446   -483177.12361
  23367814.3054    -500347.34146   -329258.52461
  20792011.3204    -168161.43046   -120935.27362
 91  4 23 20  7 45.0000000  0  4G18G 2G11G19
  20772296.078      152484.650 7    110703.54823
  23309216.6024    -789213.33346   -526949.52561
  23360610.5084    -538213.06246   -358764.16261
  20789576.5864    -180957.08246   -130905.91962
 91  4 23 20  8  0.0000000  0  4G18G 2G11G19
  20774496.047      164042.684 7    119709.75923
  23298534.031     -845348.452 6   -570691.05021
  23353424.1564    -575979.60846   -388192.52261
  20787145.6804    -193724.03546   -140854.20162
 91  4 23 20  8 15.0000000  0  4G18G 2G11G19
  20776715.281      175705.966 7    128797.97823
  23287860.547     -901434.409 6   -614394.25121
  23346259.070     -613637.398 6   -417536.13021
  20784725.3674    -206453.00946   -150772.88762
 91  4 23 20  8 30.0000000  0  4G18G 2G11G19
  20778955.172      187472.555 7    137966.69923
  23277195.391     -957472.697 6   -658060.31021
  23339113.9694    -651187.91546   -446796.15361
  20782308.2114    -219145.86146   -160663.42562
 91  4 23 20  8 45.0000000  0  4G18G 2G11G19
  20781213.156      199339.546 7    147213.65423
  23266541.273    -1013466.080 6   -701691.37421
  23331987.0164    -688633.66546   -475974.54961
  20779900.5234    -231805.38046   -170527.98862
 91  4 23 20  9  0.0000000  0  4G18G 2G11G19
  20783490.633      211308.783 7    156540.27823
  23255893.867    -1069412.561 6   -745285.89121
  23324883.5084    -725972.36446   -505069.51661
  20777498.3054    -244429.80946   -180365.20563
 91  4 23 20  9 15.0000000  0  4G18G 2G11G19
  20785787.500      223379.020 7    165945.61023
  23245256.203    -1125313.364 6   -788844.82521
  23317796.7504    -763204.98646   -534081.84261
  20775102.8134    -257020.37846   -190176.03362
 91  4 23 20  9 30.0000000  0  4G18G 2G11G19
  20788104.516      235550.622 7    175429.92323
  23234626.250    -1181167.621 6   -832367.49421
  23310732.4694    -800330.54646   -563010.73061
  20772712.0394    -269576.46146   -199959.99663
 91  4 23 20  9 45.0000000  0  4G18G 2G11G19
  20790439.977      247826.052 7    184995.13623
  23224007.1414   -1236972.65546   -875851.80561
  23303686.992     -837346.334 6   -591854.09421
  20770330.4384    -282095.74246   -209715.28262
 91  4 23 20 10  0.0000000  0  4G18G 2G11G19
  20792795.422      260200.857 7    194637.78623
  23213396.3984   -1292732.92346   -919301.22161
  23296663.3054    -874256.52046   -620615.15261
  20767953.8524    -294582.42746   -219445.17662
 91  4 23 20 10 15.0000000  0  5G18G 2G11G16G19
  20795170.297      272684.821 7    204365.49623
  23202796.2734   -1348438.34346   -962707.91061
  23289662.188     -911051.006 6   -649286.06921
  24208616.5634         -0.05255
  20765586.1094    -307026.59646   -229141.94162
 91  4 23 20 10 30.0000000  0  5G18G 2G11G16G19
  20797568.953      285285.928 7    214184.48523
  23192207.305    -1404080.655 6  -1006065.41821
  23282682.852     -947721.288 6   -677860.20821
  24201309.484      -38410.217 5
  20763227.2584    -319420.14846   -238799.25762
 91  4 23 20 10 45.0000000  0  5G18G 2G11G16G19
  20799991.773      298018.630 7    224106.01623
  23181634.172    -1459645.001 6  -1049362.17421
  23275733.000     -984252.517 6   -706325.98721
  24194028.1484     -76679.67944        -0.04271
  20760882.8284    -331748.50446   -248405.77162
 91  4 23 20 11  0.0000000  0  5G18G 2G11G16G19
  20802445.4064     310909.06247    234150.45163
  23171080.547    -1515105.059 6  -1092577.65821
  23268811.789    -1020618.014 6   -734662.62721
  24186777.9224    -114782.22944    -29690.31161
  20758553.0234    -343985.45246   -257941.05862
 91  4 23 20 11 15.0000000  0  5G18G 2G11G16G19
  20804924.742      323941.765 7    244305.75123
  23160544.023    -1570476.130 6  -1135723.81721
  23261920.188    -1056832.904 6   -762881.91121
  24179554.297     -152733.147 4    -59262.50421
  20756240.0474    -356146.55746   -267417.24763
 91  4 23 20 11 30.0000000  0  5G18G 2G11G16G19
  20807429.305      337102.969 7    254561.17823
  23150021.195    -1625772.002 6  -1178811.37521
  23255054.320    -1092910.629 6   -790994.31521
  24172362.5864    -190545.91845    -88726.96461
  20753936.0084    -368245.71246   -276845.16563
 91  4 23 20 11 45.0000000  0  5G18G 2G11G16G19
  20809956.9534     350385.45647    264911.11163
  23139511.023    -1680999.374 6  -1221845.55921
  23248214.297    -1128857.813 6   -819005.00021
  24165189.906     -228227.527 5   -118089.26021
  20751645.7114    -380289.63346   -286230.04263
 91  4 23 20 12  0.0000000  0  5G18G 2G11G16G19
  20812511.1884     363804.64847    275367.57063
  23129018.141    -1736142.854 6  -1264814.37021
  23241401.484    -1164658.792 6   -846901.74521
  24158045.0784    -265762.26645   -147337.07661
  20749366.5394    -392262.93646   -295559.89062
 91  4 23 20 12 15.0000000  0  5G18G 2G11G16G19
  20815088.547      377350.711 8    285922.88823
  23118538.2734   -1791211.95546  -1307725.23061
  23234615.258    -1200323.140 6   -874692.03921
  24150927.1094    -303159.73445   -176477.99061
  20747098.4844    -404175.39046   -304842.31762
 91  4 23 20 12 30.0000000  0  5G18G 2G11G16G19
  20817689.547      391019.377 7    296573.74223
  23108072.5164   -1846210.47746  -1350581.10861
  23227853.398    -1235854.534 6   -902378.72621
  24143838.242     -340423.834 5   -205514.93321
  20744842.1174    -416030.92846   -314080.40462
 91  4 23 20 12 45.0000000  0  5G18G 2G11G16G19
  20820314.773      404811.327 8    307320.65823
  23097618.305    -1901137.479 6  -1393381.23521
  23221116.648    -1271251.878 6   -929960.96221
  24136772.7424    -377553.46945   -234447.08661
  20742598.6334    -427828.92046   -323273.64662
 91  4 23 20 13  0.0000000  0  5G18G 2G11G16G19
  20822960.3054     418715.26048    318154.83563
  23087178.3444   -1956004.17546  -1436134.37361
  23214402.242    -1306526.120 6   -957447.28221
  24129731.3594    -414559.77844   -263283.17661
  20740363.9064    -439580.46846   -332430.70362
 91  4 23 20 13 15.0000000  0  5G18G 2G11G16G19
  20825626.055      432727.976 7    329073.78023
  23076749.1484   -2010813.68546  -1478842.96861
  23207714.367    -1341680.088 6   -984839.87821
  24122712.477     -451445.754 4   -292025.49521
  20738134.9384    -451288.73246   -341554.02762
 91  4 23 20 13 30.0000000  0  5G18G 2G11G16G19
  20828314.3914     446853.27147    340080.44563
  23066329.891    -2065562.098 6  -1521503.92021
  23201048.867    -1376709.730 6  -1012135.60921
  24115715.445     -488207.498 5   -320671.00921
  20735913.5084    -462949.96946   -350640.70862
 91  4 23 20 13 45.0000000  0  5G18G 2G11G16G19
  20831021.7664     461080.14548    351166.26463
  23055921.797    -2120260.015 6  -1564125.53321
  23194403.7974   -1411625.57446  -1039342.65661
  24108741.820     -524855.949 5   -349228.24521
  20733702.2894    -474575.08046   -359699.23263
 91  4 23 20 14  0.0000000  0  5G18G 2G11G16G19
  20833747.5314     475407.53047    362330.40263
  23045522.766    -2174908.079 6  -1606708.31121
  23187781.195    -1446428.279 6  -1066461.54121
  24101789.9304    -561391.58145   -377697.54061
  20731497.1564    -486164.79846   -368730.17762
 91  4 23 20 14 15.0000000  0  5G18G 2G11G16G19
  20836494.367      489836.129 8    373573.40923
  23035132.5554   -2229505.20546  -1649251.39961
  23181180.1954   -1481116.63146  -1093491.32961
  24094856.266     -597813.217 5   -406078.03621
  20729298.3364    -497718.34046   -377732.93662
 91  4 23 20 14 30.0000000  0  5G18G 2G11G16G19
  20839259.9384     504369.98047    384898.43263
  23024754.219    -2284047.329 6  -1691751.61721
  23174601.0394   -1515686.35746  -1120428.68461
  24087951.6644    -634116.74345   -434366.48061
  20727109.8984    -509231.79846   -386704.46662
 91  4 23 20 14 45.0000000  0  5G18G 2G11G16G19
  20842045.625      519010.098 7    396306.26723
  23014385.656    -2338533.412 6  -1734208.16521
  23168046.828    -1550136.082 6  -1147272.52921
  24081063.938     -670300.909 5   -462561.96621
  20724925.5164    -520703.85846   -395643.74162
 91  4 23 20 15  0.0000000  0  5G18G 2G11G16G19
  20844852.938      533757.425 7    407797.63023
  23004028.164    -2392962.399 6  -1776620.24521
  23161514.813    -1584464.399 6  -1174021.76021
  24074203.813     -706364.660 5   -490663.56921
  20722751.7344    -532133.48146   -404549.94562
 91  4 23 20 15 15.0000000  0  5G18G 2G11G16G19
  20847677.664      548607.212 7    419368.83623
  22993678.9304   -2447338.42146  -1818991.05361
  23155003.047    -1618675.575 6  -1200679.71521
  24067361.938     -742312.222 5   -518674.64621
  20720582.8134    -543525.11346   -413426.54162
 91  4 23 20 15 30.0000000  0  5G18G 2G11G16G19
  20850523.570      563562.112 7    431021.95323
  22983342.5554   -2501658.69146  -1861318.41161
  23148515.359    -1652766.723 6  -1227244.14021
  24060543.5474    -778140.84545   -546593.05061
  20718422.0004    -554876.31446   -422271.63263
 91  4 23 20 15 44.9990000  0  5G18G 2G11G16G19
  20853388.909      578624.586 7    442758.88823
  22973018.8314   -2555916.01346  -1903596.72361
  23142053.3704   -1686731.66546  -1253710.24061
  24053748.378     -813844.337 5   -574413.96121
  20716269.8234    -566182.69446   -431081.80062
 91  4 23 20 15 59.9990000  0  5G18G 2G11G16G19
  20856277.9564     593798.41947    454582.59363
  22962704.331    -2610115.525 6  -1945829.98221
  23135612.6204   -1720572.69046  -1280079.77461
  24046979.1444    -849425.42944   -602139.47161
  20714127.3864    -577443.65046   -439856.57163
 91  4 23 20 16 14.9990000  0  5G18G 2G11G16G19
  20859185.1594     609079.36747    466489.76963
  22952402.4094   -2664256.68646  -1988017.77261
  23129195.3944   -1754290.50546  -1306353.30761
  24040232.3864    -884884.62345   -629770.00961
  20711993.0584    -588661.59746   -448597.83462
 91  4 23 20 16 29.9990000  0  5G18G 2G11G16G19
  20862112.628      624466.567 7    478479.73823
  22942110.2694   -2718340.06046  -2030160.54461
  23122802.4804   -1787885.50546  -1332531.13761
  24033506.683     -920222.646 5   -657306.12221
  20709868.1124    -599837.41346   -457306.26762
 91  4 23 20 16 44.9990000  0  5G18G 2G11G16G19
  20865060.448      639952.210 7    490546.41923
  22931828.417    -2772373.137 6  -2072264.11221
  23116433.2924   -1821365.02846  -1358618.98861
  24026804.2694    -955446.80245   -684753.50961
  20707746.5654    -610978.75846   -465987.83962
 91  4 23 20 16 59.9990000  0  5G18G 2G11G16G19
  20868027.1124     655541.47947    502693.84063
  22921557.0504   -2826350.58746  -2114324.33361
  23110082.6904   -1854723.60746  -1384612.59961
  24020124.5654    -990552.15345   -712108.33761
  20705630.4404    -622080.44046   -474638.50162
 91  4 23 20 17 14.9990000  0  5G18G 2G11G16G19
  20871013.7374     671240.67647    514926.92163
  22911296.2694   -2880265.82646  -2156336.08361
  23103760.519    -1887954.565 6  -1410506.77421
  24013467.105    -1025531.931 5   -739365.29821
  20703530.9404    -633135.99146   -483253.21862
 91  4 23 20 17 29.9990000  0  5G18G 2G11G16G19
  20874021.3624     687039.96947    527237.99163
  22901047.2304   -2934128.45746  -2198306.84461
  23097459.8154   -1921067.20746  -1436308.73961
  24006833.105    -1060395.422 5   -766531.64721
  20701431.6514    -644154.86946   -491839.35562
 91  4 23 20 17 44.9990000  0  5G18G 2G11G16G19
  20877047.5584     702940.87447    539628.24663
  22890807.159    -2987936.741 6  -2240235.24521
  23091182.847    -1954059.742 6  -1462017.12221
  24000221.6444   -1095141.12245   -793606.20761
  20699344.0734    -655135.69346   -500395.84962
 91  4 23 20 17 59.9990000  0  5G18G 2G11G16G19
  20880092.0344     718950.01747    552102.84263
  22880579.933    -3041683.677 6  -2282115.86221
  23084928.3084   -1986924.94246  -1487626.28161
  23993632.0894   -1129761.91045   -820583.45261
  20697261.0194    -666071.42746   -508917.20363
 91  4 23 20 18 14.9990000  0  5G18G 2G11G16G19
  20883160.6364     735065.97247    564660.67063
  22870363.8474   -3095370.79646  -2323949.86861
  23078697.847    -2019664.278 6  -1513137.36621
  23987068.4014   -1164259.43945   -847464.64361
  20695188.9094    -676963.68946   -517404.68662
 91  4 23 20 18 29.9990000  0  5G18G 2G11G16G19
  20886247.4404     751291.21747    577303.65963
  22860158.8784   -3148995.00246  -2365734.83961
  23072491.5264   -2052274.47246  -1538547.83161
  23980524.2064   -1198630.54145   -874247.36561
  20693124.4254    -687809.62446   -525856.06463
 91  4 23 20 18 44.9990000  0  5G18G 2G11G16G19
  20889355.2924     767622.02547    590028.89663
  22849965.1834   -3202559.75446  -2407473.50661
  23066310.0034   -2084758.99646  -1563860.35961
  23974009.1514   -1232878.67545   -900934.23561
  20691070.5974    -698612.80546   -534274.12762
 91  4 23 20 18 59.9990000  0  5G18G 2G11G16G19
  20892483.1514     784059.23147    602837.04663
  22839784.511    -3256064.130 6  -2449165.12421
  23060152.722    -2117116.957 6  -1589074.28521
  23967518.058    -1267002.983 5   -927524.60821
  20689021.6594    -709372.60946   -542658.39662
 91  4 23 20 19 14.9990000  0  5G18G 2G11G16G19
  20895632.6904     800607.55847    615731.78763
  22829615.745    -3309503.321 6  -2490805.91821
  23054017.245    -2149343.103 6  -1614185.49221
  23961047.8624   -1300998.29245   -954014.47761
  20686984.4954    -720084.08446   -551005.00262
 91  4 23 20 19 29.9990000  0  5G18G 2G11G16G19
  20898801.9724     817266.24247    628712.52663
  22819459.808    -3362877.695 6  -2532396.22521
  23047910.144    -2181437.608 6  -1639194.11721
  23954602.612    -1334865.146 5   -980404.25221
  20684954.4954    -730747.51746   -559314.17562
 91  4 23 20 19 44.9990000  0  5G18G 2G11G16G19
  20901992.8624     834028.92047    641774.28863
  22809312.823    -3416193.463 6  -2573940.87421
  23041829.440    -2213406.506 6  -1664104.87221
  23948180.8864   -1368609.75245  -1006698.76561
  20682934.3394    -741369.47546   -567591.03162
 91  4 23 20 19 59.9990000  0  5G18G 2G11G16G19
  20905201.7614     850894.12447    654915.94863
  22799177.3234   -3469451.89346  -2615440.82661
  23035769.292    -2245250.962 6  -1688918.65121
  23941784.5114   -1402233.34345  -1032898.97261
  20680918.5894    -751951.39246   -575836.68463
 91  4 23 20 20 14.9990000  0  5G18G 2G11G16G19
  20908431.9404     867866.42947    668141.06363
  22789054.4014   -3522647.82746  -2656892.08761
  23029734.831    -2276965.808 6  -1713631.44121
  23935410.980    -1435730.780 5  -1059000.88221
  20678915.6204    -762488.30046   -584047.26462
 91  4 23 20 20 29.9990000  0  5G18G 2G11G16G19
  20911681.8474     884947.31747    681450.78563
  22778944.987    -3575779.961 6  -2698293.63521
  23023723.714    -2308549.455 6  -1738241.99821
  23929058.362    -1469100.592 5  -1085003.33921
  20676917.1444    -772978.77646   -592221.65762
 91  4 23 20 20 44.9990000  0  5G18G 2G11G16G19
  20914951.4484     902124.89647    694835.85463
  22768841.5654   -3628859.59446  -2739654.27661
  23017736.7224   -2340013.10346  -1762759.05161
  23922733.8004   -1502354.13445  -1110915.21961
  20674928.5034    -783434.25546   -600368.79062
 91  4 23 20 20 59.9990000  0  5G18G 2G11G16G19
  20918239.0584     919404.60247    708300.49463
  22758753.3084   -3681881.19046  -2780969.68161
  23011774.261    -2371351.187 6  -1787178.26321
  23916427.503    -1535485.880 5  -1136732.16821
  20672946.2224    -793849.42947   -608484.51162
 91  4 23 20 21 14.9990000  0  5G18G 2G11G16G19
  20921547.6674     936788.48347    721846.31663
  22748673.065    -3734842.542 6  -2822238.16221
  23005834.581    -2402561.293 6  -1811497.75021
  23910144.2064   -1568493.72645  -1162452.58161
  20670973.9254    -804222.04146   -616567.07362
 91  4 23 20 21 29.9990000  0  5G18G 2G11G16G19
  20924876.5734     954277.04747    735473.70863
  22738606.5264   -3787742.82246  -2863459.04461
  22999920.214    -2433642.376 6  -1835716.69321
  23903885.4804   -1601376.78545  -1188075.73261
  20669007.6284    -814551.32146   -624615.87062
 91  4 23 20 21 44.9990000  0  5G18G 2G11G16G19
  20928224.3314     971872.73447    749184.57163
  22728551.831    -3840579.202 6  -2904630.13621
  22994029.925    -2464591.580 6  -1859832.89121
  23897653.565    -1634131.976 5  -1213599.26221
  20667050.9014    -824834.64346   -632628.85462
 91  4 23 20 21 59.9990000  0  5G18G 2G11G16G19
  20931592.3704     989572.41847    762976.47763
  22718508.034    -3893354.578 6  -2945753.71721
  22988164.745    -2495411.735 6  -1883848.51721
  23891443.9804   -1666762.68745  -1239025.79661
  20665100.1514    -835075.08846   -640608.42562
 91  4 23 20 22 14.9990000  0  5G18G 2G11G16G19
  20934981.6594    1007380.19747    776852.60763
  22708478.4564   -3946064.91946  -2986826.58661
  22982324.323    -2526098.642 6  -1907760.32021
  23885262.1904   -1699264.54045  -1264351.91661
  20663162.4094    -845268.64446   -648551.45762
 91  4 23 20 22 29.9990000  0  5G18G 2G11G16G19
  20938389.6754    1025295.92047    790812.85063
  22698460.831    -3998709.873 6  -3027848.52121
  22976510.8624   -2556651.79846  -1931567.90161
  23879100.745    -1731637.337 5  -1289577.47421
  20661230.3154    -855415.17947   -656457.84562
 91  4 23 20 22 44.9990000  0  5G18G 2G11G16G19
  20941820.3784    1043319.36247    804857.03163
  22688455.058    -4051289.198 6  -3068819.32721
  22970721.823    -2587070.817 6  -1955270.96121
  23872961.0654   -1763880.75845  -1314702.22561
  20659311.0504    -865514.52046   -664327.46862
 91  4 23 20 22 59.9990000  0  5G18G 2G11G16G19
  20945269.987     1061446.901 7    818982.32823
  22678461.761    -4103806.624 6  -3109741.88221
  22964958.3084   -2617359.31746  -1978872.32461
  23866850.3864   -1795998.39845  -1339728.96661
  20657395.5734    -875570.29247   -672163.14262
 91  4 23 20 23 14.9990000  0  5G18G 2G11G16G19
  20948737.4564    1079675.78247    833186.58963
  22668479.503    -4156264.765 6  -3150618.25121
  22959218.3554   -2647519.55346  -2002373.73361
  23860764.6904   -1827992.91945  -1364659.77361
  20655491.894     -885585.155 6   -679966.94322
 91  4 23 20 23 29.9990000  0  5G18G 2G11G16G19
  20952226.3004    1098004.94147    847468.98263
  22658507.058    -4208664.140 6  -3191448.82421
  22953504.651    -2677552.008 6  -2025775.56921
  23854702.0504   -1859864.84045  -1389495.01961
  20653591.0424    -895559.80446   -687739.40962
 91  4 23 20 23 44.9990000  0  5G18G 2G11G16G19
  20955734.7614    1116440.37147    861834.18463
  22648550.3474   -4260998.47146  -3232228.70761
  22947815.206    -2707450.484 6  -2049073.00821
  23848658.878    -1891607.850 5  -1414229.86221
  20651704.2454    -905488.14746   -695475.78462
 91  4 23 20 23 59.9990000  0  5G18G 2G11G16G19
  20959262.7694    1134982.24147    876282.33563
  22638603.4484   -4313267.59346  -3272957.79061
  22942151.331    -2737214.428 6  -2072265.61821
  23842643.519    -1923221.854 5  -1438864.17221
  20649821.2844    -915369.87846   -703175.83562
 91  4 23 20 24 14.9990000  0  5G18G 2G11G16G19
  20962812.8864    1153631.69947    890814.31563
  22628669.620    -4365470.059 6  -3313634.94221
  22936512.8154   -2766842.31846  -2095352.21861
  23836653.980    -1954705.505 5  -1463396.89821
  20647952.0194    -925203.82046   -710838.64963
 91  4 23 20 24 29.9990000  0  5G18G 2G11G16G19
  20966380.2764    1172383.83447    905426.30763
  22618748.1204   -4417610.17546  -3354263.47461
  22930899.7144   -2796338.52046  -2118336.19861
  23830684.4174   -1986063.16445  -1487831.44961
  20646088.3704    -934994.56746   -718467.81062
 91  4 23 20 24 44.9990000  0  5G18G 2G11G16G19
  20969970.0264    1191240.88947    920120.04963
  22608838.0424   -4469686.03246  -3394841.96061
  22925312.292    -2825700.809 6  -2141215.83221
  23824741.3234   -2017292.54645  -1512166.05261
  20644234.4404    -944739.85546   -726061.55162
 91  4 23 20 24 59.9990000  0  5G18G 2G11G16G19
  20973579.0114    1210210.63647    934901.60263
  22598942.5344   -4521689.33646  -3435363.90561
  22919751.605    -2854920.868 6  -2163984.63621
  23818826.1364   -2048385.32945  -1536394.21161
  20642387.9484    -954431.62646   -733613.58762
 91  4 23 20 25 14.9990000  0  5G18G 2G11G16G19
  20977210.2614    1229291.97247    949770.11363
  22589060.003    -4573620.933 6  -3475829.96421
  22914219.261    -2883999.418 6  -2186643.17621
  23812933.9014   -2079342.52445  -1560516.70561
  20640555.6514    -964070.96946   -741124.77662
 91  4 23 20 25 29.9990000  0  5G18G 2G11G16G19
  20980861.9484    1248482.26147    964723.51463
  22579191.347    -4625483.216 6  -3516242.01421
  22908711.628    -2912938.687 6  -2209193.17421
  23807069.347    -2110166.592 5  -1584535.48121
  20638730.1594    -973660.23146   -748596.93962
 91  4 23 20 25 44.9990000  0  6G18G 2G11G16G19G 6
  20984534.3474    1267777.66547    979758.82863
  22569334.378    -4677279.850 6  -3556602.93021
  22903229.698    -2941742.201 6  -2231637.39921
  23801229.2924   -2140861.22945  -1608453.37861
  20636914.5344    -983203.12546   -756032.97162
  24208291.8704         -0.65853
 91  4 23 20 25 59.9990000  0  6G18G 2G11G16G19G 6
  20988224.0264    1287172.92447    994871.95063
  22559489.7374   -4729015.50046  -3596916.29861
  22897774.1124   -2970414.58946  -2253979.43761
  23795408.7304   -2171431.42745  -1632274.32561
  20635105.284     -992704.450 6   -763436.61222
  24199676.9804     -45290.82343
 91  4 23 20 26 14.9990000  0  6G18G 2G11G16G19G 6
  20991933.8154    1306669.76547   1010064.22563
  22549656.0974   -4780688.42846  -3637180.82061
  22892343.011    -2998954.024 6  -2276217.87421
  23789613.9644   -2201874.95745  -1655996.56161
  20633307.6124   -1002162.61246   -770806.61663
  24191057.980      -90571.358 3
 91  4 23 20 26 29.9990000  0  6G18G 2G11G16G19G 6
  20995664.0974    1326266.80847   1025334.57863
  22539833.464    -4832299.780 6  -3677397.35121
  22886937.151    -3027361.498 6  -2298353.49021
  23783846.925    -2232192.947 5  -1679620.98221
  20631513.526    -1011579.057 6   -778144.11422
  24182443.855     -135843.530 3
 91  4 23 20 26 44.9990000  0  6G18G 2G11G16G19G 6
  20999412.339     1345964.301 7   1040683.20223
  22530024.409    -4883849.067 6  -3717565.51121
  22881556.292    -3055636.392 6  -2320385.79721
  23778104.065    -2262385.374 5  -1703147.54821
  20629731.9014   -1020953.18946   -785448.64363
  24173829.011     -181107.049 3        -0.26631
 91  4 23 20 26 59.9990000  0  6G18G 2G11G16G19G 6
  21003179.8004    1365760.80747   1056108.98563
  22520226.120    -4935337.583 6  -3757686.34121
  22876200.394    -3083779.822 6  -2342315.66321
  23772381.784    -2292453.163 5  -1726577.02121
  20627955.4094   -1030286.42346   -792721.30362
  24165218.3234    -226363.32643    -35264.76061
 91  4 23 20 27 14.9990000  0  6G18G 2G11G16G19G 6
  21006966.9014    1385660.79747   1071615.39863
  22510441.3864   -4986760.38146  -3797755.94861
  22870870.558    -3111786.626 6  -2364139.07221
  23766683.737    -2322391.308 5  -1749905.43321
  20626187.5734   -1039573.77546   -799958.20662
  24156606.144     -271607.523 3    -70519.82821
 91  4 23 20 27 29.9990000  0  6G18G 2G11G16G19G 6
  21010779.198     1405694.929 7   1087226.33923
  22500672.2694   -5038086.45746  -3837750.19861
  22865572.886    -3139625.743 6  -2385831.81421
  23761018.456    -2352168.966 5  -1773108.82321
  20624436.6514   -1048784.38346   -807135.31162
  24148004.386     -316808.918 3   -105741.59521
 91  4 23 20 27 44.9990000  0  6G18G 2G11G16G19G 6
  21014623.4254    1425897.41947   1102968.46963
  22490931.9254   -5089281.54046  -3877642.37561
  22860314.2844   -3167262.90446  -2407367.19761
  23755388.956    -2381751.878 5  -1796160.47121
  20622703.2614   -1057884.09146   -814226.00062
  24139418.722     -361933.269 2   -140903.29021
 91  4 23 20 27 59.9990000  0  6G18G 2G11G16G19G 6
  21018487.526     1446201.713 7   1118789.92123
  22481201.472    -5140411.995 6  -3917484.18721
  22855080.456    -3194764.327 6  -2428796.79921
  23749781.9174   -2411206.56945  -1819112.18361
  20620977.8704   -1066939.33046   -821282.03462
  24130835.737     -407047.262 2   -176056.92521
 91  4 23 20 28 14.9990000  0  6G18G 2G11G16G19G 6
  21022369.3154    1466604.18847   1134687.88663
  22471484.050    -5191480.902 6  -3957278.03021
  22849872.792    -3222133.126 6  -2450123.07221
  23744202.878    -2440536.143 5  -1841966.42121
  20619264.9174   -1075953.39346   -828305.98262
  24122248.800     -452154.174 2   -211205.03221
 91  4 23 20 28 29.9990000  0  6G18G 2G11G16G19G 6
  21026271.315     1487111.088 7   1150667.21123
  22461778.2144   -5242481.90946  -3997018.98761
  22844691.5344   -3249362.72246  -2471340.87061
  23738647.612    -2469733.807 5  -1864717.87721
  20617559.7224   -1084919.77746   -835292.78862
  24113669.855     -497247.705 2   -246342.74521
 91  4 23 20 28 44.9990000  0  6G18G 2G11G16G19G 6
  21030194.597     1507722.661 7   1166728.10623
  22452087.019    -5293414.480 6  -4036706.60021
  22839535.8944   -3276452.55046  -2492449.75461
  23733115.534    -2498799.610 5  -1887366.56721
  20615862.347    -1093838.305 6   -842242.29922
  24105088.7614    -542327.53442   -281469.74861
 91  4 23 20 28 59.9990000  0  6G18G 2G11G16G19G 6
  21034136.9644    1528441.06947   1182872.25063
  22442406.9094   -5344276.43846  -4076339.19661
  22834408.1674   -3303400.17346  -2513447.83861
  23727609.0034   -2527730.90845  -1909910.46061
  20614176.2764   -1102706.73546   -849152.77062
  24096514.847     -587391.557 3   -316584.44021
 91  4 23 20 29 14.9990000  0  6G18G 2G11G16G19G 6
  21038098.456     1549256.052 7   1199091.64123
  22432739.487    -5395077.518 6  -4115924.34421
  22829305.425    -3330215.290 6  -2534342.66721
  23722125.7224   -2556537.75045  -1932357.38461
  20612494.9174   -1111534.71146   -856031.71662
  24087940.675     -632449.677 3   -351694.53121
 91  4 23 20 29 29.9990000  0  6G18G 2G11G16G19G 6
  21042077.761     1570171.806 7   1215389.55723
  22423085.1124   -5445813.32446  -4155458.64761
  22824228.3004   -3356893.44846  -2555130.78361
  23716670.433    -2585215.412 5  -1954703.64121
  20610820.9404   -1120317.98046   -862875.82262
  24079369.8004    -677497.76143   -386796.82161
 91  4 23 20 29 44.9990000  0  6G18G 2G11G16G19G 6
  21046076.3154    1591184.64947   1231763.12863
  22413442.5264   -5496487.22946  -4194944.70861
  22819176.3704   -3383437.74646  -2575814.58461
  23711236.183    -2613767.373 5  -1976951.95021
  20609159.3154   -1129059.89246   -869687.70962
  24070797.2844    -722539.19643   -421893.93361
 91  4 23 20 29 59.9990000  0  6G18G 2G11G16G19G 6
  21050094.370     1612295.599 7   1248213.14323
  22403811.2924   -5547098.01146  -4234381.59862
  22814151.7454   -3409846.84846  -2596393.03961
  23705826.206    -2642192.456 5  -1999101.39621
  20607502.378    -1137759.300 6   -876466.47922
  24062227.472     -767572.751 4   -456984.88021
 91  4 23 20 30 14.9990000  0  6G18G 2G11G16G19G 6
  21054129.6674    1633504.07647   1264739.15463
  22394191.815    -5597646.050 6  -4273769.58222
  22809152.7844   -3436121.16746  -2616866.47361
  23700443.3474   -2670491.36645  -2021152.52461
  20605857.425    -1146416.853 6   -883212.63422
  24053658.761     -812599.307 4   -492070.39821
 91  4 23 20 30 29.9990000  0  6G18G 2G11G16G19G 6
  21058184.464     1654807.220 7   1281338.93123
  22384584.5974   -5648134.08746  -4313110.81562
  22804176.2224   -3462263.26946  -2637236.87261
  23695080.425    -2698667.049 5  -2043107.61721
  20604215.167    -1155035.195 6   -889928.23722
  24045091.230     -857621.587 4   -527152.56321
 91  4 23 20 30 44.9990000  0  6G18G 2G11G16G19G 6
  21062255.933     1676204.756 7   1298012.25723
  22374989.456    -5698561.948 6  -4352405.15422
  22799228.2374   -3488272.92946  -2657504.08061
  23689742.7534   -2726718.88945  -2064966.19561
  20602583.448    -1163614.238 6   -896613.21922
  24036525.972     -902639.514 4   -562231.37121
 91  4 23 20 30 59.9990000  0  6G18G 2G11G16G19G 6
  21066345.269     1697691.916 7   1314755.42623
  22365402.886    -5748934.143 6  -4391656.13322
  22794303.4254   -3514154.53046  -2677671.50361
  23684427.4094   -2754651.39845  -2086731.79561
  20600956.323    -1172158.703 6   -903271.25622
  24027958.7144    -947658.01344   -597310.57961
 91  4 23 20 31 14.9990000  0  6G18G 2G11G16G19G 6
  21070450.526     1719274.446 7   1331572.89823
  22355828.3154   -5799244.62346  -4430859.00762
  22789402.1594   -3539901.90246  -2697734.33061
  23679136.6514   -2782458.64145  -2108399.77361
  20599340.300    -1180662.516 6   -909897.61722
  24019391.909     -992670.959 4   -632385.48621
 91  4 23 20 31 29.9990000  0  6G18G 2G11G16G19G 6
  21074576.745     1740954.061 7   1348466.02923
  22346268.5344   -5849491.45146  -4470012.28062
  22784528.8624   -3565512.96546  -2717690.94661
  23673868.292    -2810138.815 5  -2129968.76221
  20597726.901    -1189123.897 6   -916490.91522
  24010830.050    -1037676.635 4   -667454.72721
 91  4 23 20 31 44.9990000  0  6G18G 2G11G16G19G 6
  21078721.823     1762731.384 7   1365435.28523
  22336718.8474   -5899673.70146  -4509115.24962
  22779681.0034   -3590986.70646  -2737540.55461
  23668625.534    -2837690.914 5  -2151437.94221
  20596128.269    -1197541.824 6   -923050.35522
  24002265.0194   -1082674.30544   -702517.70861
 91  4 23 20 31 59.9990000  0  6G18G 2G11G16G19G 6
  21082883.175     1784600.428 7   1382476.02623
  22327181.1514   -5949797.47246  -4548172.64162
  22774858.9724   -3616329.13046  -2757287.83761
  23663407.589    -2865120.953 5  -2172812.01221
  20594531.331    -1205922.445 6   -929580.71822
  23993701.745    -1127670.162 3   -737579.30321
 91  4 23 20 32 14.9990000  0  6G18G 2G11G16G19G 6
  21087064.0974    1806568.17847   1399593.66263
  22317653.7534   -5999855.01046  -4587178.42061
  22770062.3394   -3641532.51846  -2776926.77961
  23658211.362    -2892421.229 5  -2194084.96821
  20592947.323    -1214258.280 6   -936076.18822
  23985140.940    -1172656.467 3   -772633.44721
 91  4 23 20 32 29.9990000  0  6G18G 2G11G16G19G 6
  21091264.323     1828638.252 7   1416791.04123
  22308142.847    -6049842.627 6  -4626129.71521
  22765293.8474   -3666593.06946  -2796454.42261
  23653041.792    -2919588.245 5  -2215254.09121
  20591369.347    -1222545.624 6   -942533.86722
  23976585.503    -1217629.993 4   -807677.65121
 91  4 23 20 32 44.9990000  0  6G18G 2G11G16G19G 6
  21095481.776     1850806.698 7   1434065.07823
  22298640.4094   -6099763.83546  -4665029.27661
  22760552.1514   -3691514.12346  -2815873.36961
  23647899.7374   -2946625.40045  -2236322.02661
  20589802.276    -1230788.109 6   -948956.59722
  23968027.6124   -1262594.38944   -842714.69861
 91  4 23 20 32 59.9990000  0  6G18G 2G11G16G19G 6
  21099718.620     1873063.658 7   1451408.07723
  22289154.550    -6149628.322 6  -4703884.62521
  22755835.3314   -3716305.30646  -2835191.11161
  23642774.3004   -2973542.46045  -2257296.38461
  20588238.1674   -1238995.35946   -955351.86362
  23959468.370    -1307559.260 3   -877752.18821
 91  4 23 20 33 14.9990000  0  6G18G 2G11G16G19G 6
  21103970.4804    1895414.65347   1468824.35963
  22279676.605    -6199430.654 6  -4742691.55921
  22751141.7614   -3740960.98046  -2854403.26661
  23637677.644    -3000333.966 5  -2278172.90121
  20586686.2144   -1247161.92346   -961715.42862
  23950912.065    -1352519.202 4   -912785.77621
 91  4 23 20 33 29.9990000  0  6G18G 2G11G16G19G 6
  21108242.3784    1917854.56947   1486309.93363
  22270209.581    -6249175.505 6  -4781453.67821
  22746475.3314   -3765485.87446  -2873513.50561
  23632600.0584   -3027004.47345  -2298955.14361
  20585136.605    -1255292.530 6   -968050.97723
  23942359.558    -1397479.323 4   -947819.53521
 91  4 23 20 33 44.9990000  0  6G18G 2G11G16G19G 6
  21112528.581     1940383.376 7   1503864.75023
  22260754.0114   -6298862.49546  -4820170.72361
  22741833.7374   -3789879.49646  -2892521.46961
  23627546.862    -3053553.997 5  -2319643.10621
  20583597.8704   -1263387.08046   -974358.42262
  23933802.456    -1442439.402 4   -982853.22321
 91  4 23 20 33 59.9990000  0  6G18G 2G11G16G19G 6
  21116831.683     1962999.043 7   1521487.27223
  22251311.8084   -6348493.31946  -4858844.00662
  22737215.8784   -3814143.50846  -2911428.42761
  23622516.4564   -3079984.24645  -2340238.13361
  20582064.8554   -1271447.30846   -980639.13162
  23925247.698    -1487401.268 4  -1017888.32621
 91  4 23 20 34 14.9990000  0  6G18G 2G11G16G19G 6
  21121154.1514    1985706.53747   1539181.33163
  22241876.0814   -6398062.90046  -4897469.55661
  22732626.0814   -3838272.67246  -2930230.31461
  23617512.198    -3106289.864 5  -2360736.03121
  20580538.0034   -1279468.00146   -986889.02662
  23916691.8554   -1532359.85344  -1052920.87361
 91  4 23 20 34 29.9990000  0  6G18G 2G11G16G19G 6
  21125490.690     2008502.526 7   1556944.36023
  22232455.2764   -6447574.35746  -4936049.82461
  22728057.4174   -3862270.02246  -2948929.48261
  23612530.9014   -3132474.15345  -2381139.39361
  20579017.8864   -1287452.53346   -993110.74362
  23908138.7764   -1577318.41944  -1087953.42861
 91  4 23 20 34 44.9990000  0  6G18G 2G11G16G19G 6
  21129847.425     2031389.445 7   1574778.23223
  22223044.987    -6497024.897 6  -4974582.61822
  22723517.183    -3886132.716 6  -2967523.73121
  23607571.5584   -3158534.43945  -2401446.12661
  20577507.7064   -1295398.08646   -999302.08862
  23899580.5814   -1622274.45644  -1122983.98961
 91  4 23 20 34 59.9990000  0  6G18G 2G11G16G19G 6
  21134219.1514    2054371.08647   1592685.92163
  22213647.183    -6546410.309 6  -5013064.66621
  22719002.308    -3909856.440 6  -2986009.69221
  23602637.948    -3184466.451 5  -2421652.90021
  20576001.1364   -1303300.63846  -1005459.92763
  23891026.1674   -1667223.84344  -1158009.40061
 91  4 23 20 35 14.9990000  0  6G18G 2G11G16G19G 6
  21138610.690     2077449.208 7   1610668.79523
  22204261.659    -6595728.577 6  -5051494.41022
  22714515.8234   -3933439.12646  -3004385.75161
  23597724.4874   -3210268.42845  -2441758.35461
  20574507.5584   -1311158.28346  -1011582.77263
  23882475.440    -1712164.829 4  -1193028.23221
 91  4 23 20 35 29.9990000  0  6G18G 2G11G16G19G 6
  21143023.2764    2100628.31847   1628730.33963
  22194891.925    -6644975.288 6  -5089868.37221
  22710053.198    -3956876.149 6  -3022648.30721
  23592842.7144   -3235935.63645  -2461758.78861
  20573020.5194   -1318966.43046  -1017667.04962
  23873924.355    -1757092.910 4  -1228037.04121
 91  4 23 20 35 44.9990000  0  6G18G 2G11G16G19G 6
  21147451.815     2123901.811 7   1646865.45623
  22185531.222    -6694156.617 6  -5128191.41621
  22705620.7844   -3980173.69046  -3040802.17361
  23587983.0894   -3261474.44445  -2481659.16161
  20571544.0734   -1326731.34746  -1023717.63862
  23865380.4724   -1802014.35845  -1263040.65961
 91  4 23 20 35 59.9990000  0  6G18G 2G11G16G19G 6
  21151898.8624    2147271.66447   1665075.63963
  22176186.2144   -6743270.32146  -5166461.74162
  22701215.1904   -4003329.39546  -3058845.52361
  23583149.5814   -3286882.88545  -2501457.95761
  20570073.6754   -1334450.81446  -1029732.81062
  23856831.4484   -1846927.25944  -1298037.63361
 91  4 23 20 36 14.9990000  0  6G18G 2G11G16G19G 6
  21156362.315     2170735.842 7   1683359.33623
  22166852.534    -6792318.058 6  -5204680.68721
  22696835.3944   -4026344.94446  -3076779.65561
  23578333.0264   -3312162.31945  -2521156.22261
  20568615.7454   -1342126.50746  -1035713.87262
  23848283.714    -1891833.366 5  -1333029.30121
 91  4 23 20 36 29.9990000  0  6G18G 2G11G16G19G 6
  21160846.8944    2194294.91947   1701716.96663
  22157532.0734   -6841298.99946  -5242847.58862
  22692482.433    -4049219.269 6  -3094603.75321
  23573553.815    -3337312.192 5  -2540753.54221
  20567161.948    -1349757.616 6  -1041660.20222
  23839744.355    -1936731.861 5  -1368015.01521
 91  4 23 20 36 44.9990000  0  6G18G 2G11G16G19G 6
  21165347.9804    2217947.45547   1720147.42863
  22148221.9404   -6890214.51246  -5280963.48261
  22688156.1444   -4071953.73846  -3112318.85961
  23568790.386    -3362333.840 5  -2560250.95221
  20565718.0114   -1357345.58446  -1047572.91362
  23831198.5114   -1981624.48845  -1402996.18461
 91  4 23 20 36 59.9990000  0  6G18G 2G11G16G19G 6
  21169868.0114    2241697.18747   1738653.62163
  22138928.2844   -6939060.50646  -5319025.22261
  22683859.737    -4094544.251 6  -3129921.80321
  23564050.761    -3387223.075 5  -2579645.18221
  20564281.5894   -1364886.46546  -1053448.93262
  23822658.386    -2026507.095 5  -1437969.53121
 91  4 23 20 37 14.9990000  0  6G18G 2G11G16G19G 6
  21174405.159     2265539.915 7   1757232.28323
  22129644.4564   -6987840.83846  -5357035.79062
  22679585.019    -4116994.450 6  -3147415.41121
  23559343.5894   -3411983.65445  -2598939.14661
  20562857.3394   -1372384.08346  -1059291.23662
  23814117.987    -2071383.622 5  -1472938.16221
 91  4 23 20 37 29.9990000  0  6G18G 2G11G16G19G 6
  21178959.8084    2289474.84547   1775882.78963
  22120375.1834   -7036556.18446  -5394995.72461
  22675339.526    -4139304.983 6  -3164800.18221
  23554652.448    -3436616.492 5  -2618133.58021
  20561436.4094   -1379839.19946  -1065100.42262
  23805579.995    -2116255.180 5  -1507902.89721
 91  4 23 20 37 44.9990000  0  6G18G 2G11G16G19G 6
  21183531.5264    2313504.91847   1794607.42963
  22111116.6754   -7085203.20646  -5432902.42162
  22671120.940    -4161472.501 6  -3182073.52821
  23549991.253    -3461118.154 5  -2637225.80621
  20560028.8234   -1387248.37646  -1070873.80662
  23797043.690    -2161118.240 5  -1542861.03121
 91  4 23 20 37 59.9990000  0  6G18G 2G11G16G19G 6
  21188122.0344    2337625.54847   1813402.62863
  22101872.948    -7133786.295 6  -5470759.27221
  22666929.511    -4183501.446 6  -3199238.88621
  23545354.0894   -3485493.33945  -2656219.47261
  20558627.9954   -1394616.22746  -1076614.99863
  23788506.964    -2205977.469 5  -1577816.18621
 91  4 23 20 38 14.9990000  0  6G18G 2G11G16G19G 6
  21192730.972     2361842.096 7   1832272.58023
  22092640.9724   -7182299.79946  -5508561.93161
  22662763.948    -4205385.816 6  -3216291.59821
  23540741.480    -3509736.346 5  -2675110.13821
  20557233.6754   -1401937.00446  -1082319.50762
  23779971.237    -2250827.149 5  -1612763.90621
 91  4 23 20 38 29.9990000  0  6G18G 2G11G16G19G 6
  21197358.7534    2386159.16147   1851220.85363
  22083423.331    -7230738.576 6  -5546306.34522
  22658627.597    -4227120.509 6  -3233227.67221
  23536153.0264   -3533842.14944  -2693893.91361
  20555848.276    -1409205.850 6  -1087983.55122
  23771439.8234   -2295662.57945  -1647700.49661
 91  4 23 20 38 44.9990000  0  6G18G 2G11G16G19G 6
  21202004.323     2410575.761 7   1870246.67323
  22074218.870    -7279103.790 6  -5583993.44622
  22654521.050    -4248706.554 6  -3250047.91621
  23531589.151    -3557812.037 4  -2712571.76221
  20554476.7304   -1416423.93446  -1093608.03863
  23762911.1754   -2340484.97845  -1682626.95261
 91  4 23 20 38 59.9990000  0  6G18G 2G11G16G19G 6
  21206670.105     2435091.487 7   1889349.75723
  22065030.050    -7327395.412 6  -5621623.20422
  22650441.292    -4270143.902 6  -3266752.29621
  23527056.1514   -3581645.67844  -2731143.44261
  20553111.0424   -1423591.14946  -1099192.88562
  23754382.112    -2385294.353 5  -1717543.26521
 91  4 23 20 39 14.9990000  0  6G18G 2G11G16G19G 6
  21211353.019     2459703.008 7   1908527.46223
  22055854.8394   -7375616.41146  -5659197.91462
  22646391.659    -4291435.495 6  -3283343.09121
  23522543.440    -3605346.222 4  -2749611.42521
  20551757.8704   -1430710.56546  -1104740.49362
  23745857.292    -2430093.849 5  -1752451.86121
 91  4 23 20 39 29.9990000  0  6G18G 2G11G16G19G 6
  21216055.183     2484408.319 7   1927778.26323
  22046689.651    -7423768.748 6  -5696719.15322
  22642365.519    -4312583.185 6  -3299821.76421
  23518061.2374   -3628915.69344  -2767977.27361
  20550413.5194   -1437784.12746  -1110252.36962
  23737335.1984   -2474885.48245  -1787354.34061
 91  4 23 20 39 44.9990000  0  6G18G 2G11G16G19G 6
  21220774.0814    2509205.52947   1947100.65563
  22037541.7534   -7471854.16646  -5734188.19762
  22638367.8704   -4333588.71746  -3316189.67761
  23513601.9014   -3652355.91744  -2786242.39161
  20549075.0734   -1444813.70946  -1115729.97663
  23728813.2764   -2519671.21145  -1822252.19961
 91  4 23 20 39 59.9990000  0  6G18G 2G11G16G19G 6
  21225510.565     2534098.183 7   1966497.44523
  22028404.269    -7519868.158 6  -5771601.66222
  22634398.5114   -4354447.57046  -3332443.28561
  23509165.6754   -3675662.75945  -2804403.59661
  20547746.7064   -1451794.87946  -1121169.85663
  23720291.9484   -2564446.84245  -1857142.19061
 91  4 23 20 40 14.9990000  0  6G18G 2G11G16G19G 6
  21230267.7304    2559089.37047   1985971.00463
  22019281.9334   -7567807.69946  -5808957.04562
  22630457.3394   -4375156.54646  -3348580.11261
  23504756.4484   -3698832.88645  -2822458.24261
  20546426.6754   -1458724.30846  -1126569.41862
  23711773.948    -2609209.173 5  -1892021.81921
 91  4 23 20 40 29.9990000  0  6G18G 2G11G16G19G 6
  21235039.2304    2584176.64247   2005519.42763
  22010170.5194   -7615675.12846  -5846256.27962
  22626544.6834   -4395717.85746  -3364601.87661
  23500372.7144   -3721868.54945  -2840408.12361
  20545116.503    -1465604.346 6  -1131930.49622
  23703254.730    -2653960.861 4  -1926893.16321
 91  4 23 20 40 44.9990000  0  6G18G 2G11G16G19G 6
  21239832.7694    2609356.55647   2025140.04363
  22001077.956    -7663473.493 6  -5883501.67722
  22622660.558    -4416134.566 6  -3380510.96421
  23496016.464    -3744773.100 5  -2858255.84421
  20543817.628    -1472438.332 6  -1137255.69522
  23694742.870    -2698704.973 4  -1961758.59321
 91  4 23 20 40 59.9990000  0  6G18G 2G11G16G19G 6
  21244640.6364    2634628.13447   2044832.09163
  21991992.651    -7711203.944 6  -5920694.15922
  22618801.8234   -4436407.78446  -3396308.24261
  23491678.503    -3767547.631 5  -2876002.24921
  20542525.948    -1479227.580 6  -1142546.03822
  23686229.8624   -2743442.65744  -1996619.01161
 91  4 23 20 41 14.9990000  0  6G18G 2G11G16G19G 6
  21249467.425     2659990.036 7   2064594.51923
  21982923.940    -7758867.187 6  -5957834.27522
  22614971.347    -4456538.246 6  -3411994.26921
  23487368.7694   -3790192.93145  -2893647.95661
  20541242.394    -1485972.911 6  -1147802.15523
  23677717.855    -2788175.017 4  -2031475.28421
 91  4 23 20 41 29.9990000  0  6G18G 2G11G16G19G 6
  21254310.230     2685445.357 7   2084429.73723
  21973867.120    -7806459.673 6  -5994919.22722
  22611168.8554   -4476522.23546  -3427566.17461
  23483088.5424   -3812705.53345  -2911190.24961
  20539968.659    -1492670.687 6  -1153021.21623
  23669204.6364   -2832898.43044  -2066324.59961
 91  4 23 20 41 44.9990000  0  6G18G 2G11G16G19G 6
  21259174.347     2710992.426 7   2104336.44623
  21964823.808    -7853982.819 6  -6031950.20422
  22607392.4804   -4496361.17446  -3443025.04861
  23478828.7614   -3835086.86445  -2928630.27661
  20538701.3314   -1499322.08946  -1158204.13763
  23660694.7374   -2877614.52244  -2101168.18261
 91  4 23 20 41 59.9990000  0  6G18G 2G11G16G19G 6
  21264052.073     2736635.066 7   2124317.63123
  21955795.612    -7901432.484 7  -6068923.86322
  22603647.870    -4516050.828 6  -3458367.59421
  23474592.784    -3857333.297 5  -2945965.17421
  20537441.308    -1505923.098 6  -1163347.78722
  23652188.3944   -2922319.31843  -2136002.98261
 91  4 23 20 42 14.9990000  0  6G18G 2G11G16G19G 6
  21268950.0504    2762368.27747   2144369.38163
  21946777.394    -7948813.329 6  -6105843.95222
  22599927.8624   -4535595.78246  -3473597.39161
  23470385.878    -3879449.072 5  -2963198.26921
  20536198.8084   -1512478.54746  -1168455.94362
  23643683.3554   -2967017.55443  -2170832.65361
 91  4 23 20 42 29.9990000  0  6G18G 2G11G16G19G 6
  21273864.0894    2788189.85847   2164490.00263
  21937774.4724   -7996127.92647  -6142712.36562
  22596234.7304   -4554998.47746  -3488716.33961
  23466200.300    -3901436.702 5  -2980331.49421
  20534956.761    -1518990.891 6  -1173530.50722
  23635177.105    -3011711.831 3  -2205659.24421
 91  4 23 20 42 44.9990000  0  6G18G 2G11G16G19G 6
  21278794.5894    2814102.17547   2184681.32263
  21928783.1674   -8043373.26746  -6179526.85062
  22592569.6364   -4574255.97246  -3503722.14761
  23462041.7304   -3923293.62645  -2997362.88961
  20533728.831    -1525457.148 6  -1178569.16922
  23626672.776    -3056399.205 3  -2240480.46221
 91  4 23 20 42 59.9990000  0  6G18G 2G11G16G19G 6
  21283741.214     2840101.364 7   2204940.32123
  21919807.042    -8090553.017 7  -6216290.21922
  22588932.8394   -4593371.86846  -3518617.61561
  23457907.7304   -3945023.39744  -3014295.20961
  20532503.948    -1531880.975 6  -1183574.76423
  23618170.0264   -3101083.69043  -2275299.42861
 91  4 23 20 43 14.9990000  0  6G18G 2G11G16G19G 6
  21288705.7224    2866188.16247   2225267.61063
  21910838.9174   -8137665.98146  -6253001.52962
  22585321.6124   -4612345.02646  -3533401.86161
  23453796.8474   -3966624.88344  -3031127.54961
  20531291.784    -1538261.486 6  -1188546.60423
  23609666.5734   -3145764.14844  -2310115.24961
 91  4 23 20 43 29.9990000  0  6G18G 2G11G16G19G 6
  21293688.151     2892364.383 7   2245664.55223
  21901887.7224   -8184710.06647  -6289659.20162
  22581738.4014   -4631173.34046  -3548073.24161
  23449710.5584   -3988096.12544  -3047858.43261
  20530083.8864   -1544596.68146  -1193483.12763
  23601167.987    -3190438.659 4  -2344926.44321
 91  4 23 20 43 44.9990000  0  6G18G 2G11G16G19G 6
  21298685.0584    2918630.72047   2266131.74063
  21892948.550    -8231684.529 7  -6326262.57522
  22578184.5504   -4649855.70746  -3562630.90161
  23445650.245    -4009436.368 4  -3064487.22521
  20528890.7694   -1550885.58346  -1198383.57763
  23592668.7924   -3235106.38545  -2379732.35061
 91  4 23 20 43 59.9990000  0  6G18G 2G11G16G19G 6
  21303702.714     2944988.754 7   2286670.35622
  21884021.823    -8278587.339 6  -6362810.17522
  22574657.3314   -4668390.17146  -3577073.30461
  23441612.823    -4030643.651 4  -3081012.42221
  20527699.776    -1557126.305 6  -1203246.48922
  23584169.8234   -3279765.59044  -2414531.63661
 91  4 23 20 44 14.9990000  0  6G18G 2G11G16G19G 6
  21308733.761     2971431.934 7   2307275.35022
  21875111.4174   -8325424.98247  -6399306.93462
  22571158.4014   -4686783.01846  -3591405.35761
  23437603.1674   -4051724.60244  -3097439.17861
  20526522.097    -1563325.158 6  -1208076.78022
  23575669.4174   -3324422.67945  -2449329.25661
 91  4 23 20 44 29.9990000  0  6G18G 2G11G16G19G 6
  21313781.995     2997961.114 7   2327947.33023
  21866209.4254   -8372196.07646  -6435751.89362
  22567684.8314   -4705033.09246  -3605626.15861
  23433615.417    -4072677.577 5  -3113766.19821
  20525349.050    -1569480.798 6  -1212873.39822
  23567173.1204   -3369076.43545  -2484124.29561
 91  4 23 20 44 44.9990000  0  6G18G 2G11G16G19G 6
  21318846.933     3024580.387 7   2348689.51622
  21857323.261    -8418896.379 6  -6472141.65722
  22564240.1124   -4723136.19446  -3619732.43461
  23429655.6124   -4093498.56545  -3129990.36961
  20524188.276    -1575589.155 6  -1217633.16923
  23558675.8704   -3413722.95145  -2518913.68861
 91  4 23 20 44 59.9990000  0  6G18G 2G11G16G19G 6
  21323930.4724    3051287.37447   2369500.06762
  21848448.831    -8465527.893 6  -6508477.82022
  22560822.3004   -4741094.06646  -3633725.54761
  23425719.9334   -4114189.68445  -3146113.37261
  20523032.5264   -1581652.12446  -1222357.56663
  23550180.464    -3458364.054 5  -2553698.85221
 91  4 23 20 45 14.9990000  0  6G18G 2G11G16G19G 6
  21329027.433     3078080.862 7   2390378.00922
  21839588.4804   -8512091.58246  -6544761.15562
  22557432.0424   -4758907.76246  -3647606.31561
  23421804.964    -4134752.120 5  -3162136.06121
  20521889.3154   -1587670.89946  -1227047.52663
  23541687.9564   -3503001.06345  -2588480.84361
 91  4 23 20 45 29.9990000  0  6G18G 2G11G16G19G 6
  21334144.573     3104968.519 7   2411329.31622
  21830742.9094   -8558579.80446  -6580985.64762
  22554071.8624   -4776569.38046  -3661368.57561
  23417914.8154   -4155177.99645  -3178052.36361
  20520752.6754   -1593637.55146  -1231696.87763
  23533198.5424   -3547626.18545  -2623253.57761
 91  4 23 20 45 44.9990000  0  6G18G 2G11G16G19G 6
  21339278.433     3131947.245 7   2432351.60222
  21821908.1754   -8604995.31946  -6617153.53662
  22550739.0504   -4794081.73346  -3675014.52861
  23414054.5424   -4175470.39645  -3193864.65261
  20519628.558    -1599554.853 6  -1236307.77223
  23524706.0424   -3592242.37445  -2658019.32861
 91  4 23 20 45 59.9980000  0  6G18G 2G11G16G19G 6
  21344429.725     3159014.858 7   2453443.14422
  21813092.6704   -8651335.00946  -6653262.27862
  22547434.5924   -4811443.55746  -3688543.18561
  23410219.272    -4195627.879 5  -3209571.81021
  20518509.404    -1605422.647 6  -1240880.09722
  23516216.936    -3636846.786 5  -2692775.92421
 91  4 23 20 46 14.9980000  0  6G18G 2G11G16G19G 6
  21349598.818     3186178.105 7   2474609.20822
  21804287.6784   -8697601.61546  -6689314.13462
  22544159.1004   -4828653.89146  -3701953.80861
  23406410.889    -4215649.838 5  -3225173.35221
  20517404.701    -1611238.392 6  -1245411.86122
  23507730.3114   -3681442.04945  -2727525.39061
 91  4 23 20 46 29.9980000  0  6G18G 2G11G16G19G 6
  21354786.772     3213436.169 7   2495849.14622
  21795497.420    -8743790.686 6  -6725305.53322
  22540914.2724   -4845710.08446  -3715244.31661
  23402626.725    -4235533.693 5  -3240667.29321
  20516307.4594   -1617000.18846  -1249901.58162
  23499248.318    -3726024.035 5  -2762264.50021
 91  4 23 20 46 44.9980000  0  6G18G 2G11G16G19G 6
  21359989.459     3240783.518 7   2517158.66522
  21786722.7954   -8789907.63246  -6761240.74562
  22537696.9674   -4862617.47046  -3728418.87161
  23398867.0844   -4255285.06245  -3256058.00961
  20515221.7644   -1622713.55346  -1254353.56163
  23490763.6474   -3770598.07145  -2796997.40761
 91  4 23 20 46 59.9980000  0  6G18G 2G11G16G19G 6
  21365211.248     3268219.673 7   2538537.37822
  21777958.850    -8835952.608 6  -6797119.87922
  22534507.4284   -4879376.37046  -3741477.72861
  23395132.8034   -4274903.92145  -3271345.46261
  20514140.936    -1628378.637 6  -1258767.92323
  23482283.7094   -3815164.67745  -2831724.55661
 91  4 23 20 47 14.9980000  0  6G18G 2G11G16G19G 6
  21370449.4674    3295747.84947   2559987.81162
  21769212.389    -8881922.352 6  -6832940.37122
  22531346.1474   -4895983.29246  -3754418.16061
  23391424.2174   -4294386.93645  -3286527.06461
  20513075.834    -1633992.040 6  -1263142.01923
  23473804.2874   -3859720.37445  -2866443.19261
 91  4 23 20 47 29.9980000  0  6G18G 2G11G16G19G 6
  21375706.342     3323365.589 7   2581508.01922
  21760478.107    -8927818.600 6  -6868703.61922
  22528215.7644   -4912439.94946  -3767241.49361
  23387746.068    -4313736.334 5  -3301604.56421
  20512014.061    -1639555.672 6  -1267477.33023
  23465328.1934   -3904267.11845  -2901154.83961
 91  4 23 20 47 44.9980000  0  6G18G 2G11G16G19G 6
  21380978.498     3351079.554 7   2603103.21322
  21751758.8034   -8973634.74946  -6904404.44062
  22525114.8894   -4928739.65846  -3779942.53761
  23384088.6624   -4332945.49745  -3316572.77461
  20510967.9434   -1645062.75746  -1271768.57863
  23456856.3184   -3948798.44545  -2935854.48361
 91  4 23 20 47 59.9980000  0  6G18G 2G11G16G19G 6
  21386270.068     3378880.644 7   2624766.28322
  21743053.842    -9019379.598 6  -6940049.71722
  22522041.5224   -4944891.19446  -3792528.11261
  23380459.1074   -4352023.18244  -3331438.54261
  20509927.5064   -1650521.90646  -1276022.46763
  23448382.342    -3993323.083 5  -2970548.91421
 91  4 23 20 48 14.9980000  0  6G18G 2G11G16G19G 6
  21391577.7324    3406774.80847   2646501.91462
  21734362.6314   -9065046.61146  -6975634.33662
  22518997.1154   -4960888.20046  -3804993.27961
  23376855.662    -4370963.176 4  -3346197.04021
  20508900.9904   -1655926.92646  -1280234.18062
  23439909.8034   -4037834.88245  -3005233.32661
 91  4 23 20 48 29.9980000  0  6G18G 2G11G16G19G 6
  21396902.9984    3434760.34547   2668308.70662
  21725688.4044   -9110637.52446  -7011159.65562
  22515981.4754   -4976732.32246  -3817339.31061
  23373278.467    -4389766.821 4  -3360849.26321
  20507881.232    -1661279.528 6  -1284405.04922
  23431444.654    -4082335.583 5  -3039909.10721
 91  4 23 20 48 44.9980000  0  6G18G 2G11G16G19G 6
  21402246.607     3462837.328 7   2690186.76322
  21717027.3344   -9156151.89646  -7046625.32662
  22512993.8264   -4992423.11446  -3829565.87661
  23369723.9754   -4408434.03944  -3375395.21761
  20506873.873    -1666579.201 6  -1288534.67923
  23422979.443    -4126824.802 5  -3074575.95121
 91  4 23 20 48 59.9980000  0  6G18G 2G11G16G19G 6
  21407606.068     3491003.212 7   2712134.10022
  21708379.998    -9201592.011 6  -7082033.15622
  22510036.6154   -5007962.83146  -3841674.72061
  23366197.709    -4426967.292 4  -3389836.74721
  20505873.279    -1671828.473 6  -1292625.04023
  23414511.256    -4171304.932 5  -3109235.70421
 91  4 23 20 49 14.9980000  0  6G18G 2G11G16G19G 6
  21412981.615     3519255.224 7   2734148.54822
  21699747.6394   -9246960.49946  -7117385.15862
  22507108.7794   -5023354.02946  -3853667.82561
  23362693.709    -4445369.533 4  -3404176.21221
  20504885.162    -1677029.939 6  -1296678.14323
  23406047.9984   -4215778.89345  -3143890.65161
 91  4 23 20 49 29.9980000  0  6G18G 2G11G16G19G 6
  21418376.8264    3547595.99947   2756232.16062
  21691127.975    -9292254.131 6  -7152678.82222
  22504208.045    -5038593.527 6  -3865542.73321
  23359218.7954   -4463637.49444  -3418411.02261
  20503905.6624   -1682180.50646  -1300691.58163
  23397587.3184   -4260243.46444  -3178538.28661
 91  4 23 20 49 44.9980000  0  6G18G 2G11G16G19G 6
  21423785.3814    3576024.15447   2778383.86363
  21682522.092    -9337474.277 6  -7187915.24322
  22501339.0064   -5053682.65646  -3877300.46661
  23355768.842    -4481772.429 5  -3432542.19121
  20502933.795    -1687281.427 6  -1304666.33523
  23389126.443    -4304699.994 4  -3213179.65021
 91  4 23 20 49 59.9980000  0  6G18G 2G11G16G19G 6
  21429212.178     3604538.476 7   2800602.68822
  21673932.967    -9382621.490 6  -7223094.81922
  22498496.2564   -5068622.02046  -3888941.49861
  23352340.1864   -4499774.94545  -3446570.13861
  20501971.818    -1692333.041 6  -1308602.67323
  23380668.8654   -4349149.26944  -3247815.35161
 91  4 23 20 50 14.9980000  0  6G18G 2G11G16G19G 6
  21434654.475     3633143.919 7   2822892.55122
  21665354.2874   -9427690.75346  -7258213.67062
  22495683.3654   -5083406.55646  -3900461.88361
  23348944.873    -4517640.261 5  -3460491.22621
  20501022.959    -1697330.507 6  -1312496.82323
  23372211.045    -4393586.288 4  -3282441.50021
 91  4 23 20 50 29.9980000  0  6G18G 2G11G16G19G 6
  21440116.248     3661835.426 7   2845249.44623
  21656792.7794   -9472687.02846  -7293275.62962
  22492897.850    -5098041.054 6  -3911865.36221
  23345570.2094   -4535373.17545  -3474309.12761
  20500080.881    -1702278.671 6  -1316352.55722
  23363755.1474   -4438015.92144  -3317061.89461
 91  4 23 20 50 44.9980000  0  6G18G 2G11G16G19G 6
  21445590.357     3690614.501 7   2867674.60322
  21648243.506    -9517608.593 6  -7328279.37922
  22490140.0374   -5112523.69246  -3923150.50561
  23342220.4984   -4552971.84145  -3488022.38961
  20499149.357    -1707175.920 6  -1320168.61423
  23355309.123    -4482436.545 4  -3351675.27221
 91  4 23 20 50 59.9980000  0  6G18G 2G11G16G19G 6
  21451084.3654    3719476.12347   2890164.05463
  21639708.5924   -9562460.23446  -7363228.64362
  22487411.1704   -5126859.25546  -3934321.04561
  23338895.0764   -4570441.35145  -3501635.03161
  20498223.928    -1712026.877 6  -1323948.59423
  23346854.7874   -4526853.13744  -3386285.50661
 91  4 23 20 51 14.9980000  0  6G18G 2G11G16G19G 6
  21456592.381     3748425.925 7   2912722.23222
  21631189.6004   -9607235.85247  -7398118.66062
  22484712.256    -5141041.813 6  -3945372.36121
  23335597.9514   -4587775.99245  -3515142.58361
  20497313.514    -1716825.559 6  -1327687.84023
  23338399.2794   -4571259.78544  -3420888.00161
 91  4 23 20 51 29.9980000  0  6G18G 2G11G16G19G 6
  21462119.6004    3777461.44147   2935347.21562
  21622681.451    -9651937.489 6  -7432951.04022
  22482043.8574   -5155073.48946  -3956306.10361
  23332324.7954   -4604977.95645  -3528546.74561
  20496407.936    -1721574.149 6  -1331388.05523
  23329953.100    -4615658.615 4  -3455484.41921
 91  4 23 20 51 44.9980000  0  6G18G 2G11G16G19G 6
  21467660.4514    3806580.39347   2958037.19562
  21614189.9364   -9696567.28247  -7467727.42962
  22479402.0614   -5168956.35946  -3967123.89561
  23329075.8734   -4622049.42645  -3541849.23061
  20495515.053    -1726274.697 6  -1335050.84023
  23321505.959    -4660051.745 5  -3490076.38221
 91  4 23 20 51 59.9980000  0  6G18G 2G11G16G19G 6
  21473217.3184    3835784.19547   2980793.27462
  21605708.498    -9741123.703 6  -7502446.66022
  22476789.8184   -5182688.79946  -3977824.46361
  23325851.256    -4638988.923 5  -3555048.86921
  20494630.561    -1730925.526 6  -1338674.88222
  23313060.889    -4704437.735 5  -3524662.79921
 91  4 23 20 52 14.9980000  0  6G18G 2G11G16G19G 6
  21478790.2954    3865069.01247   3003612.52062
  21597243.475    -9785610.476 6
  22474203.9514   -5196274.50946  -3988410.70861
  23322655.443    -4655799.994 5  -3568148.45721
  20493752.9594   -1735530.39246  -1342263.11862
  23304616.256    -4748820.416 5
 91  4 23 20 52 29.9980000  0  6G18G 2G11G16G19G 6
  21484379.0614    3894437.50647   3026496.93762
  21588793.0064   -9830024.20747
  22471647.7954   -5209710.16546  -3998880.02461
  23319480.9824   -4672479.37245  -3581145.41261
  20492887.0294   -1740085.98946  -1345812.96263
  23296170.811    -4793196.535 5
 91  4 23 20 52 44.9980000  0  6G18G 2G11G16G19G 6
  21489983.7874    3923886.71647   3049444.27762
  21580352.686    -9874367.728 6
  22469117.607    -5222998.454 6  -4009234.51221
  23316330.1624   -4689029.92245  -3594042.00561
  20492028.318    -1744595.033 6  -1349326.52423
  23287728.154    -4837568.867 5
 91  4 23 20 52 59.9980000  0  6G18G 2G11G16G19G 6
  21495601.0844    3953413.81947   3072452.28962
  21571927.725    -9918643.550 6  -7640773.52222
  22466616.381    -5236142.027 6  -4019476.23721
  23313201.584    -4705454.660 5  -3606840.55421
  20491176.990    -1749060.182 6  -1352805.87923
  23279282.2254   -4881940.09745  -3662976.02461
 91  4 23 20 53 14.9980000  0  6G18G 2G11G16G19G 6
  21501236.701     3983024.378 7   3095525.33522
  21563517.693    -9962845.778 6  -7675216.74322
  22464144.779    -5249135.012 6  -4029600.62521
  23310103.9434   -4721747.52644  -3619536.35561
  20490338.701    -1753475.577 6  -1356246.46423
  23270838.881    -4926304.523 5  -3697545.61821
 91  4 23 20 53 29.9980000  0  6G18G 2G11G16G19G 6
  21506884.186     4012712.027 6   3118658.46822
  21555119.647   -10006980.744 7  -7709607.56922
  22461698.123    -5261983.706 6  -4039612.58221
  23307027.865    -4737915.078 4  -3632134.51021
  20489507.889    -1757847.560 6  -1359653.22723
  23262397.1474   -4970668.56445  -3732114.94661
 91  4 23 20 53 44.9980000  0  6G18G 2G11G16G19G 6
  21512550.1314    4042478.68047   3141853.13662
  21546733.951   -10051046.065 7  -7743944.10422
  22459282.553    -5274685.603 6  -4049510.14321
  23303978.4754   -4753954.75144  -3644633.02061
  20488683.498    -1762173.458 6  -1363024.07723
  23253954.365    -5015029.676 5  -3766681.96321
 91  4 23 20 53 59.9980000  0  6G18G 2G11G16G19G 6
  21518229.732     4072325.602 7   3165110.37322
  21538360.3814  -10095040.44046  -7778225.36762
  22456892.865    -5287239.515 6  -4059292.39621
  23300948.678    -4769865.602 4  -3657031.16821
  20487870.811    -1766452.218 6  -1366358.19923
  23245515.7094   -5059386.79145  -3801245.89061
 91  4 23 20 54 14.9980000  0  6G18G 2G11G16G19G 6
  21523923.529     4102249.182 7   3188427.33622
  21530003.607   -10138967.288 7  -7812454.00322
  22454532.732    -5299648.737 6  -4068961.89421
  23297941.1474   -4785651.20444  -3669331.68161
  20487064.639    -1770687.175 6  -1369658.18922
  23237075.2174   -5103743.30445  -3835809.33061
 91  4 23 20 54 29.9980000  0  6G18G 2G11G16G19G 6
  21529632.506     4132251.357 6   3211805.52422
  21521656.881   -10182824.071 7  -7846628.05122
  22452199.6784   -5311910.86546  -4078516.78461
  23294961.4204   -4801308.79344  -3681532.49361
  20486262.498    -1774875.672 6  -1372921.97522
  23228632.107    -5148096.850 5  -3870370.49021
 91  4 23 20 54 44.9980000  0  6G18G 2G11G16G19G 6
  21535356.662     4162329.085 6   3235242.60322
  21513324.357   -10226613.386 7  -7880749.51322
  22449894.147    -5324028.596 6  -4087959.15021
  23292007.1394   -4816841.58444  -3693636.01061
  20485477.725    -1779020.462 6  -1376151.69923
  23220195.7724   -5192450.24145  -3904931.50261
 91  4 23 20 54 59.9980000  0  6G18G 2G11G16G19G 6
  21541094.725     4192480.677 6   3258737.24722
  21505004.732   -10270337.014 7  -7914819.80022
  22447613.7644   -5336003.37346  -4097290.13661
  23289076.998    -4832251.274 5  -3705643.61521
  20484694.748    -1783122.970 6  -1379348.48223
  23211753.9984   -5236805.10445  -3939493.67061
 91  4 23 20 55 14.9980000  0  6G18G 2G11G16G19G 6
  21546846.3344    4222706.12946   3282289.41562
  21496696.647   -10313994.764 7  -7948838.76022
  22445362.3504   -5347835.09346  -4106509.65161
  23286169.8504   -4847537.48245  -3717555.00161
  20483924.029    -1787183.190 6  -1382512.30823
  23203309.365    -5281161.210 5  -3974056.80021
 91  4 23 20 55 29.9980000  0  6G18G 2G11G16G19G 6
  21552612.139     4253004.433 6   3305898.37622
  21488401.131   -10357586.970 7  -7982806.63922
  22443138.0924   -5359524.26746  -4115618.09461
  23283280.732    -4862701.045 5  -3729370.80021
  20483156.740    -1791201.831 6  -1385643.73823
  23194871.631    -5325519.293 5  -4008621.46921
 91  4 23 20 55 44.9980000  0  6G18G 2G11G16G19G 6
  21558392.4204    4283376.43447   3329564.74362
  21480119.3894  -10401112.59047  -8016722.62162
  22440940.9754   -5371069.86246  -4124614.65661
  23280418.240    -4877740.889 5  -3741090.20921
  20482402.193    -1795177.631 6  -1388741.78123
  23186431.3424   -5369878.30245  -4043186.85561
 91  4 23 20 55 59.9980000  0  6G18G 2G11G16G19G 6
  21564187.0144    4313827.86647   3353293.03262
  21471848.7794  -10444565.85147  -8050582.23562
  22438771.9204   -5382466.17146  -4133494.89261
  23277583.740    -4892651.275 5  -3752708.74221
  20481653.779    -1799104.792 6  -1391801.92223
  23177990.764    -5414232.457 5  -4077748.48221
 91  4 23 20 56 14.9980000  0  6G18G 2G11G16G19G 6
  21569997.5684    4344359.43246   3377083.75462
  21463594.607   -10487945.419 7  -8084384.42822
  22436632.8974   -5393711.78846  -4142257.69961
  23274771.1864   -4907430.91845  -3764225.38761
  20480920.061    -1802981.821 6  -1394823.00522
  23169552.2874   -5458580.44745  -4112305.26861
 91  4 23 20 56 29.9980000  0  6G18G 2G11G16G19G 6
  21575820.107     4374959.989 6   3400928.20422
  21455352.045   -10531262.445 7  -8118137.87322
  22434519.3504   -5404817.86746  -4150911.78061
  23271979.8814   -4922091.27645  -3775649.07461
  20480187.256    -1806819.868 6  -1397813.71423
  23161110.2484   -5502933.64545  -4146866.15161
 91  4 23 20 56 44.9980000  0  6G18G 2G11G16G19G 6
  21581658.0684    4405634.89247   3424830.62262
  21447121.0454  -10574511.41547  -8151838.30362
  22432435.0454   -5415778.89446  -4159452.82561
  23269214.443    -4936626.895 5  -3786975.56521
  20479464.709    -1810613.405 6  -1400769.73623
  23152670.631    -5547286.521 4  -4181426.76121
 91  4 23 20 56 59.9980000  0  6G18G 2G11G16G19G 6
  21587509.764     4436381.287 6   3448788.76222
  21438901.6864  -10617694.82547  -8185487.64762
  22430373.553    -5426597.376 6  -4167882.80121
  23266471.600    -4951040.212 5  -3798206.77821
  20478749.889    -1814364.899 6  -1403692.99423
  23144227.4044   -5591641.69644  -4215989.15661
 91  4 23 20 57 14.9980000  0  6G18G 2G11G16G19G 6
  21593372.732     4467199.367 6   3472802.71122
  21430698.459   -10660812.188 7  -8219085.51522
  22428343.4204   -5437272.76846  -4176201.28061
  23263751.482    -4965330.939 5  -3809342.44021
  20478044.967    -1818073.933 6  -1406583.16423
  23135788.1314   -5635998.73644  -4250553.02261
 91  4 23 20 57 29.9980000  0  6G18G 2G11G16G19G 6
  21599253.209     4498092.542 7   3496875.19322
  21422506.9514  -10703859.91747  -8252629.13662
  22426337.8894   -5447801.56346  -4184405.53061
  23261057.7874   -4979495.66645  -3820379.93361
  20477348.350    -1821736.677 6  -1409437.26322
  23127346.2484   -5680353.93543  -4285115.38961
 91  4 23 20 57 44.9980000  0  6G18G 2G11G16G19G 6
  21605145.670     4529058.838 7   3521004.67822
  21414326.9044  -10746839.41047  -8286119.57962
  22424363.9434   -5458185.13546  -4192496.61561
  23258384.5064   -4993535.77745  -3831320.32161
  20476660.412    -1825354.713 6  -1412256.53223
  23118906.7014   -5724708.86344  -4319677.62061
 91  4 23 20 57 59.9980000  0  6G18G 2G11G16G19G 6
  21611051.5374    4560101.12846   3545193.34962
  21406162.600   -10789747.562 6  -8319554.43522
  22422415.3424   -5468420.51746  -4200472.23761
  23255736.693    -5007448.308 5  -3842161.31921
  20475978.490    -1828925.072 6  -1415038.65223
  23110463.9984   -5769060.68544  -4354237.38461
 91  4 23 20 58 14.9980000  0  6G18G 2G11G16G19G 6
  21616974.115     4591223.296 6   3569444.26622
  21398011.1074  -10832580.27346  -8352930.51262
  22420495.7324   -5478503.57246  -4208329.15761
  23253116.2094   -5021229.32945  -3852899.84561
  20475312.709    -1832443.515 6  -1417780.30523
  23102028.865    -5813405.292 5  -4388791.55121
 91  4 23 20 58 29.9980000  0  6G18G 2G11G16G19G 6
  21622912.9594    4622426.16247   3593758.07262
  21389874.311   -10875336.499 6  -8386246.97622
  22418608.2094   -5488433.29746  -4216066.59661
  23250517.9824   -5034877.95745  -3863535.18861
  20474649.615    -1835908.905 6  -1420480.62023
  23093592.5844   -5857741.61745  -4423339.23961
 91  4 23 20 58 44.9980000  0  6G18G 2G11G16G19G 6
  21628863.6934    4653704.29546   3618130.52362
  21381752.1234  -10918021.27046  -8419507.77762
  22416747.303    -5498214.840 6  -4223688.57021
  23247946.2404   -5048399.62445  -3874071.62361
  20474002.2014   -1839326.21946  -1423143.47363
  23085156.4434   -5902074.66445  -4457884.38461
 91  4 23 20 58 59.9980000  0  6G18G 2G11G16G19G 6
  21634829.264     4685052.831 6   3642557.84322
  21373641.9514  -10960639.37946  -8452716.62462
  22414913.686    -5507852.963 6  -4231198.78221
  23245394.529    -5061798.908 5  -3884512.68621
  20473358.764    -1842700.293 6  -1425772.63123
  23076718.5374   -5946409.42045  -4492430.85761
 91  4 23 20 59 14.9980000  0  6G18G 2G11G16G19G 6
  21640809.795     4716475.155 7   3667042.65422
  21365545.6004  -11003187.10146  -8485870.62163
  22413106.201    -5517343.846 6  -4238594.25721
  23242866.412    -5075072.209 4  -3894855.58621
  20472726.248    -1846027.317 6  -1428365.12223
  23068283.420    -5990742.154 5  -4526975.76621
 91  4 23 20 59 29.9980000  0  6G18G 2G11G16G19G 6
  21646803.232     4747972.970 7   3691586.29322
  21357461.6704  -11045662.58746  -8518968.34362
  22411329.061    -5526685.777 6  -4245873.66621
  23240367.623    -5088217.749 4  -3905098.94321
  20472100.873    -1849305.611 6  -1430919.65723
  23059847.8894   -6035071.15645  -4561517.74461
 91  4 23 20 59 44.9980000  0  6G18G 2G11G16G19G 6
  21652810.6074    4779542.92746   3716186.13662
  21349393.3424  -11088068.68246  -8552011.99262
  22409577.248    -5535881.635 6  -4253039.25521
  23237888.272    -5101239.041 3  -3915245.48421
  20471487.662    -1852537.883 6  -1433438.32122
  23051412.248    -6079399.339 5  -4596059.10921
 91  4 23 20 59 59.9980000  0  6G18G 2G11G16G19G 6
  21658832.3344    4811184.94746   3740842.13562
  21341337.4594  -11130405.25647  -8585001.45562
  22407855.287    -5544931.269 6  -4260090.90521
  23235431.9434   -5114135.77343  -3925294.94661
  20470881.1864   -1855723.95246  -1435920.98163
  23042977.6704   -6123726.62345  -4630599.76161
 91  4 23 21  0 14.9980000  0  6G18G 2G11G16G19G 6
  21664867.451     4842898.572 6   3765553.93421
  21333292.6934  -11172672.62047  -8617937.00062
  22406161.779    -5553834.874 6  -4267028.76221
  23233002.3344   -5126907.73543  -3935247.18561
  20470283.9984   -1858863.85746  -1438367.67062
  23034541.6074   -6168053.05445  -4665139.74961
 91  4 23 21  0 29.9980000  0  6G18G 2G11G16G19G 6
  21670916.459     4874682.754 6   3790320.72522
  21325264.4754  -11214871.45947  -8650819.14162
  22404495.725    -5562593.327 6  -4273853.51521
  23230596.381    -5139556.223 4  -3945103.22921
  20469692.147    -1861958.537 6  -1440779.12423
  23026105.365    -6212379.696 5  -4699679.91621
 91  4 23 21  0 44.9980000  0  6G18G 2G11G16G19G 6
  21676976.959     4906536.093 6   3815141.37422
  21317247.4364  -11257002.95347  -8683648.80962
  22402856.420    -5571207.755 6  -4280566.04121
  23228214.943    -5152082.379 4  -3954863.94421
  20469116.029    -1865009.078 6  -1443156.18022
  23017672.9754   -6256707.71145  -4734221.14461
 91  4 23 21  0 59.9980000  0  6G18G 2G11G16G19G 6
  21683051.6004    4938453.92947   3840012.28362
  21309240.7874  -11299071.18547  -8716429.18362
  22401244.568    -5579682.486 6  -4287169.71121
  23225853.5614   -5164490.47544  -3964532.66261
  20468539.193    -1868019.562 6  -1445502.02923
  23009234.5454   -6301041.31345  -4768766.72261
 91  4 23 21  1 14.9980000  0  6G18G 2G11G16G19G 6
  21689138.9904    4970445.03646   3864940.32461
  21301249.451   -11341067.496 7  -8749153.50522
  22399659.295    -5588008.778 6  -4293657.70721
  23223518.2324   -5176772.33945  -3974103.01461
  20467979.662    -1870981.314 6  -1447809.89722
  23000797.5454   -6345371.75845  -4803309.84161
 91  4 23 21  1 29.9980000  0  6G18G 2G11G16G19G 6
  21695239.811     5002502.921 6   3889920.35921
  21293270.3264  -11382997.90147  -8781826.48662
  22398102.482    -5596192.737 6  -4300034.79521
  23221201.8814   -5188934.05645  -3983579.73061
  20467421.068    -1873900.497 6  -1450084.59523
  22992361.5294   -6389705.23245  -4837855.30661
 91  4 23 21  1 44.9980000  0  6G18G 2G11G16G19G 6
  21701353.990     5034631.113 6   3914955.19122
  21285304.3734  -11424858.47847  -8814445.05162
  22396571.436    -5604230.474 6  -4306297.94721
  23218910.232    -5200971.490 5  -3992959.61521
  20466876.397    -1876772.968 6  -1452322.90322
  22983927.9904   -6434037.85645  -4872400.12061
 91  4 23 21  1 59.9980000  0  6G18G 2G11G16G19G 6
  21707481.3734    5066831.01246   3940045.90362
  21277352.522   -11466647.559 7  -8847007.90222
  22395070.482    -5612120.389 6  -4312445.91721
  23216645.2644   -5212883.25045  -4002241.57261
  20466339.639    -1879597.086 6  -1454523.52822
  22975488.3344   -6478368.09645  -4906943.08061
 91  4 23 21  2 14.9980000  0  6G18G 2G11G16G19G 6
  21713621.748     5099099.694 6   3965190.19322
  21269411.4904  -11508368.14447  -8879517.37862
  22393596.553    -5619865.418 6  -4318480.99221
  23214403.0844   -5224672.49345  -4011428.06361
  20465810.022    -1882375.742 6  -1456688.73022
  22967052.772    -6522698.828 5  -4941486.43721
 91  4 23 21  2 29.9980000  0  6G18G 2G11G16G19G 6
  21719773.3814    5131436.94546   3990387.92061
  21261485.1864  -11550020.01647  -8911973.31762
  22392150.662    -5627465.345 6  -4324402.99821
  23212185.1314   -5236339.05745  -4020518.95161
  20465287.701    -1885108.645 6  -1458818.27622
  22958618.7954   -6567029.94645  -4976030.06861
 91  4 23 21  2 44.9980000  0  6G18G 2G11G16G19G 6
  21725942.857     5163847.305 6   4015642.63321
  21253573.9204  -11591598.10247  -8944371.75562
  22390733.0454   -5634915.28746  -4330208.14061
  23209985.3344   -5247877.83745  -4029510.26161
  20464780.2484   -1887790.79746  -1460908.27763
  22950184.5294   -6611356.35745  -5010570.04961
 91  4 23 21  2 59.9980000  0  6G18G 2G11G16G19G 6
  21732124.3184    5196330.76146   4040954.30361
  21245677.6704  -11633102.39647  -8976712.70462
  22389343.029    -5642215.179 6  -4335896.35221
  23207813.8184   -5259289.40945  -4038402.45961
  20464279.834    -1890422.064 6  -1462958.62822
  22941750.0374   -6655678.13045  -5045106.39561
 91  4 23 21  3 14.9980000  0  6G18G 2G11G16G19G 6
  21738318.826     5228887.350 6   4066322.93121
  21237792.0844  -11674532.73547  -9008996.02962
  22387982.506    -5649364.882 6  -4341467.53121
  23205669.482    -5270573.638 5  -4047195.41221
  20463787.834    -1893002.348 6  -1464969.25623
  22933312.9434   -6699995.17445  -5079639.06461
 91  4 23 21  3 29.9980000  0  6G18G 2G11G16G19G 6
  21744530.3574    5261520.72546   4091751.40561
  21229922.8504  -11715884.97047  -9041218.48462
  22386653.701    -5656360.304 6  -4346918.48721
  23203547.4044   -5281726.26745  -4055885.84161
  20463305.389    -1895527.459 6  -1466936.88922
  22924881.8734   -6744303.41245  -5114164.87561
 91  4 23 21  3 44.9980000  0  6G18G 2G11G16G19G 6
  21750753.7254    5294227.75846   4117237.27761
  21222068.8814  -11757161.98347  -9073382.32962
  22385351.287    -5663204.270 6  -4352251.43421
  23201445.9514   -5292750.62045  -4064476.31361
  20462836.193    -1898000.160 6  -1468863.68422
  22916451.3894   -6788605.63745  -5148685.98861
 91  4 23 21  3 59.9980000  0  6G18G 2G11G16G19G 6
  21756991.2324    5327005.65346   4142778.37661
  21214227.8894  -11798366.23047  -9105489.47562
  22384074.873    -5669899.632 6  -4357468.58421
  23199375.154    -5303649.286 5  -4072968.85121
  20462376.115    -1900423.046 6  -1470751.66622
  22908022.9754   -6832904.68845  -5183204.63961
 91  4 23 21  4 14.9980000  0  6G18G 2G11G16G19G 6
  21763241.7724    5359854.35446   4168374.65061
  21206401.232   -11839497.484 7  -9137539.74422
  22382827.0684   -5676446.03946  -4362569.67461
  23197324.6784   -5314421.97145  -4081363.20161
  20461925.217    -1902795.901 6  -1472600.66222
  22899593.5534   -6877200.29345  -5217720.59361
 91  4 23 21  4 29.9980000  0  6G18G 2G11G16G19G 6
  21769508.0534    5392776.21846   4194027.89362
  21198587.3574  -11880553.13147  -9169531.09763
  22381613.0924   -5682840.82046  -4367552.61161
  23195296.623    -5325066.447 5  -4089657.65521
  20461483.006    -1905115.777 6  -1474408.37322
  22891163.818    -6921489.671 5  -5252231.69921
 91  4 23 21  4 44.9980000  0  6G18G 2G11G16G19G 6
  21775785.2484    5425764.52346   4219732.93361
  21190788.2724  -11921539.57447  -9201468.52762
  22380422.6624   -5689090.41546  -4372422.40861
  23193296.6394   -5335589.01645  -4097857.13061
  20461051.045    -1907389.149 6  -1476179.85222
  22882737.709    -6965779.259 5  -5286742.96121
 91  4 23 21  4 59.9980000  0  6G18G 2G11G16G19G 6
  21782075.4204    5458818.49746   4245489.15061
  21183001.4044  -11962457.41047  -9233352.49462
  22379261.9204   -5695195.58846  -4377179.67661
  23191317.4364   -5345990.30745  -4105962.08061
  20460626.779    -1909616.614 6  -1477915.55722
  22874312.6234   -7010069.81245  -5321254.98661
 91  4 23 21  5 14.9980000  0  6G18G 2G11G16G19G 6
  21788378.209     5491947.503 6   4271303.82321
  21175230.3504  -12003296.96747  -9265175.46963
  22378129.209    -5701146.689 6  -4381816.87821
  23189363.4124   -5356261.03245  -4113965.31961
  20460214.709    -1911788.423 6  -1479607.88822
  22865884.2564   -7054351.56545  -5355760.16461
 91  4 23 21  5 29.9980000  0  6G18G 2G11G16G19G 6
  21794695.662     5525145.105 6   4297171.95021
  21167473.553   -12044064.682 7  -9296942.45923
  22377026.834    -5706950.205 6  -4386339.08121
  23187432.006    -5366407.601 5  -4121871.77921
  20459807.287    -1913911.016 6  -1481261.87322
  22857457.522    -7098631.080 5  -5390263.58821
 91  4 23 21  5 44.9980000  0  6G18G 2G11G16G19G 6
  21801026.639     5558410.064 6   4323092.56221
  21159728.428   -12084761.164 7  -9328653.94523
  22375949.131    -5712606.959 6  -4390746.92421
  23185524.5614   -5376430.85045  -4129682.17061
  20459414.475    -1915985.185 6  -1482878.12522
  22849031.0924   -7142909.12245  -5424765.87461
 91  4 23 21  5 59.9980000  0  6G18G 2G11G16G19G 6
  21807368.709     5591741.298 6   4349064.82221
  21151997.5374  -12125387.28047  -9360310.60462
  22374898.6624   -5718117.70146  -4395041.00261
  23183638.8184   -5386331.81345  -4137397.27761
  20459029.975    -1918011.428 6  -1484457.03222
  22840605.826    -7187186.364 5  -5459267.51521
 91  4 23 21  6 14.9980000  0  6G18G 2G11G16G19G 6
  21813724.4824    5625143.54946   4375092.40161
  21144280.5454  -12165938.17247  -9391908.64162
  22373878.9044   -5723477.74146  -4399217.65361
  23181781.6784   -5396105.60845  -4145013.26861
  20458653.537    -1919985.017 6  -1485994.92122
  22832178.459    -7231458.132 5  -5493764.91521
 91  4 23 21  6 29.9980000  0  6G18G 2G11G16G19G 6
  21820095.3184    5658611.53146   4401171.21661
  21136578.7324  -12206418.62747  -9423451.79863
  22372887.1784   -5728692.03446  -4403280.74061
  23179943.272    -5405757.538 5  -4152534.30521
  20458288.248    -1921910.829 6  -1487495.58222
  22823757.576    -7275729.353 5  -5528261.87321
 91  4 23 21  6 44.9980000  0  6G18G 2G11G16G19G 6
  21826476.022     5692144.559 6   4427300.72221
  21128888.147   -12246829.064 7  -9454940.39122
  22371922.9514   -5733760.85046  -4407230.46461
  23178130.8504   -5415287.95245  -4159960.67061
  20457928.943    -1923789.033 6  -1488959.13722
  22815330.5924   -7320000.35545  -5562758.66561
 91  4 23 21  6 59.9980000  0  6G18G 2G11G16G19G 6
  21832869.850     5725746.411 6   4453483.84021
  21121211.7874  -12287165.83847  -9486371.58663
  22370988.2484   -5738680.44346  -4411063.90861
  23176342.889    -5424693.273 5  -4167289.55821
  20457577.162    -1925615.870 6  -1490382.66622
  22806908.3184   -7364267.27545  -5597252.26361
 91  4 23 21  7 14.9980000  0  6G18G 2G11G16G19G 6
  21839275.5684    5759411.93846   4479716.57161
  21113548.9514  -12327433.74947  -9517749.12163
  22370079.5064   -5743455.72146  -4414784.90161
  23174573.232    -5433978.409 4  -4174524.81021
  20457242.709    -1927396.003 6  -1491769.80022
  22798484.475    -7408535.042 5  -5631746.53321
 91  4 23 21  7 29.9980000  0  5G18G 2G11G19G 6
  21845695.6074    5793143.40946   4506000.68261
  21105899.3114  -12367629.97947  -9549070.79863
  22369198.1234   -5748084.10546  -4418391.43361
  20456911.748    -1929126.642 6  -1493118.36822
  22790058.8114   -7452800.98745  -5666239.38961
 91  4 23 21  7 44.9980000  0  6G18G 2G11G16G19G 6
  21852126.748     5826935.070 6   4532331.73021
  21098262.8814  -12407759.99947  -9580340.88463
  22368343.1544   -5752571.13846  -4421887.81661
  23171110.5374         -0.87254
  20456594.545    -1930813.317 6  -1494432.68422
  22781637.2794   -7497070.69645  -5700735.16261
 91  4 23 21  7 59.9980000  0  6G18G 2G11G16G19G 6
  21858568.615     5860791.304 6   4558713.08721
  21090640.147   -12447819.068 7  -9611555.68423
  22367514.9204   -5756912.20046  -4425270.45961
  23169410.9904      -8924.33744
  20456279.904    -1932451.171 6  -1495708.95622
  22773211.3734   -7541339.36645  -5735230.13161
 91  4 23 21  8 14.9980000  0  6G18G 2G11G16G19G 6
  21865022.912     5894712.271 6   4585144.84321
  21083031.0614  -12487807.06247  -9642715.10163
  22366718.3344   -5761107.11646  -4428539.23761
  23167736.6394     -17726.17844
  20455977.928    -1934039.977 6  -1496947.00222
  22764785.5844   -7585606.86945  -5769724.19661
 91  4 23 21  8 29.9980000  0  6G18G 2G11G16G19G 6
  21871491.3894    5928693.29646   4611623.40561
  21075433.0684  -12527728.14647  -9673822.37963
  22365946.5764   -5765160.31146  -4431697.56461
  23166082.2014     -26410.46944
  20455683.654    -1935584.023 6  -1498150.17622
  22756363.975    -7629877.541 5  -5804220.73121
 91  4 23 21  8 44.9980000  0  6G18G 2G11G16G19G 6
  21877970.2254    5962737.51546   4638151.24961
  21067850.0224  -12567579.06747  -9704874.99063
  22365203.3264   -5769068.43146  -4434742.86161
  23164456.397      -34974.470 4        -0.04631
  20455400.131    -1937079.970 6  -1499315.86922
  22747940.0144   -7674147.98545  -5838717.09561
 91  4 23 21  8 59.9980000  0  6G18G 2G11G16G19G 6
  21884460.6704    5996848.54346   4664731.16261
  21060281.170   -12607355.659 7  -9735869.67823
  22364488.4674   -5772827.49346  -4437671.99761
  23162845.4284     -43414.20044     -6576.52561
  20455123.803    -1938523.717 6  -1500440.88422
  22739516.311    -7718414.182 5  -5873210.16521
 91  4 23 21  9 14.9980000  0  6G18G 2G11G16G19G 6
  21890963.3184    6031020.47346   4691358.49161
  21052725.3894  -12647064.05347  -9766811.21863
  22363799.9044   -5776443.55446  -4440489.70161
  23161269.623      -51735.499 4    -13060.74521
  20454860.631    -1939921.210 6  -1501529.86123
  22731091.701    -7762682.076 5  -5907704.55421
 91  4 23 21  9 29.9980000  0  6G18G 2G11G16G19G 6
  21897477.8184    6065252.75546   4718032.84162
  21045181.2954  -12686704.13747  -9797699.54063
  22363139.9984   -5779916.47046  -4443195.87061
  23159703.639      -59938.782 4    -19452.97821
  20454601.928    -1941272.408 6  -1502582.76522
  22722666.8814   -7806951.72045  -5942200.31261
 91  4 23 21  9 44.9980000  0  6G18G 2G11G16G19G 6
  21904003.701     6099543.871 6   4744753.05921
  21037650.6934  -12726277.22347  -9828535.65463
  22362507.1864   -5783247.76746  -4445791.67961
  23158162.4904     -68025.39644    -25754.30461
  20454353.318    -1942578.353 6  -1503600.40622
  22714244.318    -7851224.338 5  -5976698.37621
 91  4 23 21  9 59.9980000  0  6G18G 2G11G16G19G 6
  21910540.639     6133899.165 6   4771523.28821
  21030134.193   -12765777.770 7  -9859315.24223
  22361901.0614   -5786432.01746  -4448272.91561
  23156650.0684     -75989.92644    -31960.50061
  20454113.311    -1943833.529 6  -1504578.48522
  22705817.8894   -7895494.69245  -6011194.68061
 91  4 23 21 10 14.9980000  0  6G18G 2G11G16G19G 6
  21917087.162     6168312.148 6   4798338.47121
  21022630.9984  -12805211.71447  -9890042.92963
  22361320.3344   -5789475.25046  -4450644.26461
  23155154.7484     -83838.47445    -38076.33161
  20453885.154    -1945043.896 6  -1505521.65422
  22697391.8734   -7939768.49745  -6045693.68061
 91  4 23 21 10 29.9980000  0  6G18G 2G11G16G19G 6
  21923650.943     6202789.941 6   4825204.14121
  21015140.7254  -12844571.88747  -9920713.13463
  22360767.381    -5792370.398 6  -4452900.23221
  23153685.8574     -91564.27245    -44096.48761
  20453663.553    -1946202.365 6  -1506424.37222
  22688967.029    -7984038.762 5  -6080189.92921
 91  4 23 21 10 44.9980000  0  6G18G 2G11G16G19G 6
  21930224.975     6237335.279 6   4852122.44922
  21007665.397   -12883855.284 7  -9951323.51823
  22360245.9984   -5795114.48446  -4455038.49561
  23152240.6474     -99163.99045    -50018.41761
  20453455.654    -1947305.603 6  -1507284.05522
  22680546.5294   -8028302.38846  -6114680.99661
 91  4 23 21 10 59.9980000  0  6G18G 2G11G16G19G 6
  21936809.865     6271939.836 6   4879086.89821
  21000201.5764  -12923070.01447  -9981880.38563
  22359750.5924   -5797715.66746  -4457065.39561
  23150816.4904    -106646.05545    -55848.65461
  20453253.365    -1948361.539 6  -1508106.87622
  22672125.311    -8072567.474 6  -6149173.18421
 91  4 23 21 11 14.9980000  0  6G18G 2G11G16G19G 6
  21943405.9594    6306605.38846   4906098.86761
  20992754.3654  -12962213.96947 -10012382.10863
  22359283.1624   -5800172.07646  -4458979.48361
  23149416.9674    -114008.90345    -61586.00361
  20453063.701    -1949368.225 6  -1508891.33422
  22663697.7644   -8116832.03546  -6183664.98461
 91  4 23 21 11 29.9980000  0  6G18G 2G11G16G19G 6
  21950012.7644    6341324.01246   4933152.20861
  20985316.5144  -13001294.98447 -10042834.78763
  22358843.2954   -5802491.52946  -4460786.84761
  23148035.8504    -121260.51545    -67236.66061
  20452879.795    -1950333.428 6  -1509643.46222
  22655274.2564   -8161103.86545  -6218162.43261
 91  4 23 21 11 44.9980000  0  6G18G 2G11G16G19G 6
  21956630.9824    6376101.22946   4960251.22161
  20977892.9514  -13040307.13447 -10073233.79863
  22358430.7254   -5804668.06646  -4462482.85061
  23146677.014     -128394.649 5    -72795.78521
  20452703.475    -1951251.266 6  -1510358.68122
  22646848.912    -8205377.006 5  -6252660.90421
 91  4 23 21 11 59.9980000  0  6G18G 2G11G16G19G 6
  21963259.3504    6410931.57146   4987391.60461
  20970482.4124  -13079255.71847 -10103583.28263
  22358043.0534   -5806707.10646  -4464071.72061
  23145341.9434    -135416.72045    -78267.59161
  20452534.248    -1952126.902 6  -1511041.01522
  22638422.4204   -8249656.67945  -6287164.46761
 91  4 23 21 12 14.9980000  0  6G18G 2G11G16G19G 6
  21969896.607     6445822.990 6   5014579.56021
  20963083.1074  -13118132.18147 -10133876.56763
  22357680.6864   -5808600.26546  -4465546.91661
  23144030.209     -142318.893 5    -83645.95121
  20452380.787    -1952951.915 6  -1511683.89822
  22629998.0294   -8293934.51445  -6321666.58961
 91  4 23 21 12 29.9980000  0  6G18G 2G11G16G19G 6
  21976548.8424    6480769.80646   5041810.69661
  20955698.7094  -13156942.15847 -10164118.04563
  22357346.5454   -5810353.16146  -4466912.81261
  23142736.561     -149106.674 5    -88935.18321
  20452229.904    -1953731.606 6  -1512291.47122
  22621569.2094   -8338216.09745  -6356171.62961
 91  4 23 21 12 44.9980000  0  6G18G 2G11G16G19G 6
  21983210.4674    6515772.46046   5069085.35861
  20948325.4044  -13195685.05747 -10194307.25663
  22357042.5614   -5811965.31446  -4468169.04661
  23141468.928     -155779.514 5    -94134.86021
  20452092.0454   -1954465.33146  -1512863.22562
  22613143.8574   -8382500.74445  -6390679.05661
 91  4 23 21 12 59.9980000  0  6G18G 2G11G16G19G 6
  21989880.9594    6550828.88846   5096401.93861
  20940964.3654  -13234362.55747 -10224445.51163
  22356759.7094   -5813438.59146  -4469317.05561
  23140219.1314    -162339.43045    -99246.54761
  20451960.490    -1955154.791 6  -1513400.49022
  22604716.9594   -8426790.22145  -6425190.23661
 91  4 23 21 13 14.9980000  0  6G18G 2G11G16G19G 6
  21996561.959     6585945.612 6   5123765.46021
  20933618.8504  -13272967.80347 -10254527.45863
  22356508.9284   -5814766.12846  -4470351.50561
  23138994.1004    -168779.46745   -104264.81761
  20451839.826    -1955792.887 6  -1513897.72722
  22596284.3574   -8471077.63245  -6459699.79661
 91  4 23 21 13 29.9980000  0  6G18G 2G11G16G19G 6
  22003258.764     6621121.763 6   5151175.27221
  20926286.4434  -13311501.38047 -10284553.56662
  22356283.2094   -5815948.75846  -4471273.04561
  23137788.678     -175100.686 5   -109190.49621
  20451724.514    -1956380.277 6  -1514355.44822
  22587857.4124   -8515363.65845  -6494208.28961
 91  4 23 21 13 44.9980000  0  6G18G 2G11G16G19G 6
  22009963.014     6656359.553 6   5178633.15321
  20918966.6934  -13349961.00547 -10314522.04663
  22356083.7794   -5816984.29246  -4472079.96361
  23136611.373     -181301.067 5   -114022.01821
  20451627.561    -1956914.694 6  -1514771.89322
  22579433.1624   -8559645.98045  -6528713.89061
 91  4 23 21 13 59.9980000  0  6G18G 2G11G16G19G 6
  22016679.897     6691657.627 6   5206138.00721
  20911662.8184  -13388347.60147 -10344433.62163
  22355918.7094   -5817873.58946  -4472772.92761
  23135453.8974    -187381.67045   -118760.21461
  20451532.928    -1957396.994 6  -1515147.72922
  22571007.8114   -8603925.53445  -6563217.33861
 91  4 23 21 14 14.9980000  0  5G18G 2G11G19G 6
  22023409.1074    6727013.29446   5233687.72461
  20904370.850   -13426663.429 7 -10374290.05523
  22355776.5684   -5818619.16946  -4473353.90261
  20451452.303    -1957829.472 6  -1515484.74622
  22562581.4674   -8648204.75045  -6597720.52861
 91  4 23 21 14 29.9980000  0  6G18G 2G11G16G19G 6
  22030147.264     6762428.282 6   5261283.65321
  20897094.1544  -13464906.60547 -10404089.87762
  22355661.6474   -5819219.21346  -4473821.47661
  23133208.022          -0.99515
  20451378.818    -1958210.226 6  -1515781.46122
  22554154.8184   -8692481.62145  -6632221.88761
 91  4 23 21 14 44.9980000  0  6G18G 2G11G16G19G 6
  22036899.4514    6797907.51846   5288929.65661
  20889830.6704  -13503071.90147 -10433829.00863
  22355575.8424   -5819668.55146
  23132115.881       -5720.947 5
  20451317.912    -1958533.784 6
  22545729.4284   -8736750.87645  -6666717.31761
 91  4 23 21 14 59.9980000  0  6G18G 2G11G16G19G 6
  22043659.9124    6833434.92646   5316613.20261
  20882580.8974  -13541175.25247 -10463519.86963
  22355516.9514   -5819983.21546
  23131051.725      -11332.639 5
  20451262.006    -1958815.993 6
  22537305.3504   -8781028.39845  -6701219.18961
 91  4 23 21 15 14.9970000  0  6G18G 2G11G16G19G 6
  22050428.853     6869017.840 6   5344339.97621
  20875343.0564  -13579204.17347 -10493152.73763
  22355483.376    -5820153.453 6
  23130005.181      -16826.248 5
  20451219.9074   -1959046.92746  -1516433.47762
  22528881.5014   -8825301.41146  -6735717.53861
 91  4 23 21 15 29.9970000  0  6G18G 2G11G16G19G 6
  22057214.478     6904660.969 6   5372113.69821
  20868120.1654  -13617163.34147 -10522731.25163
  22355478.915    -5820178.917 6
  23128982.0874     -22202.02045
  20451187.392    -1959226.180 6  -1516573.17322
  22520457.157    -8869575.349 6  -6770216.61621
 91  4 23 21 15 44.9970000  0  6G18G 2G11G16G19G 6
  22064007.751     6940363.156 6   5399933.44221
  20860911.0174  -13655048.93547 -10552252.43763
  22355503.157    -5820058.292 6
  23127982.3764     -27458.45645        -0.08571
  20451163.431    -1959352.240 6
  22512031.3064   -8913845.85346  -6804713.01861
 91  4 23 21 15 59.9970000  0  6G18G 2G11G16G19G 6
  22070813.7594    6976127.22946   5427801.40061
  20853715.610   -13692857.768 7 -10581713.81323
  22355553.7904   -5819788.60646
  23127006.267      -32592.654 5     -4000.82621
  20451149.142    -1959421.934 6
  22503606.829    -8958109.879 6  -6839204.38321
 91  4 23 21 16 14.9970000  0  6G18G 2G11G16G19G 6
  22077630.0874    7011950.39346   5455715.37461
  20846536.423   -13730592.343 7 -10611117.32323
  22355630.962    -5819372.489 6  -4473940.98121
  23126051.837      -37607.497 5     -7908.56221
  20451148.001    -1959437.896 6
  22495183.165    -9002370.021 6  -6873692.71721
 91  4 23 21 16 29.9970000  0  6G18G 2G11G16G19G 6
  22084459.7354    7047831.88546   5483674.82261
  20839369.087   -13768253.236 7 -10640463.42423
  22355739.868    -5818810.686 6  -4473503.22721
  23125120.517      -42503.665 5    -11723.83521
  20451151.423    -1959400.490 6
  22486762.5874   -9046626.71546  -6908178.37161
 91  4 23 21 16 44.9970000  0  6G18G 2G11G16G19G 6
  22091298.9704    7083772.87946   5511680.64261
  20832216.321   -13805838.962 7 -10669750.95323
  22355874.798    -5818101.775 6  -4472950.84521
  23124211.2594     -47279.73245    -15445.49461
  20451171.040    -1959308.116 6
  22478345.681    -9090878.490 6  -6942660.18921
 91  4 23 21 16 59.9970000  0  6G18G 2G11G16G19G 6
  22098149.556     7119771.133 6   5539731.07121
  20825078.118   -13843351.306 7 -10698981.30423
  22356034.728    -5817247.582 6  -4472285.25921
  23123327.6964     -51937.84245    -19075.30561
  20451199.517    -1959162.607 6
  22469921.2744   -9135127.14145  -6977139.56861
 91  4 23 21 17 14.9970000  0  6G18G 2G11G16G19G 6
  22105010.923     7155830.384 6   5567829.01921
  20817953.235   -13880786.475 7 -10728151.51923
  22356227.095    -5816244.337 6  -4471503.52221
  23122462.6034     -56474.17845    -22610.17461
  20451237.837    -1958959.832 6
  22461502.2434   -9179368.76745  -7011613.47761
 91  4 23 21 17 29.9970000  0  6G18G 2G11G16G19G 6
  22111884.071     7191951.292 6   5595975.00421
  20810845.235   -13918143.573 7 -10757260.89523
  22356446.540    -5815091.342 6  -4470605.09921
  23121623.5794     -60887.82445    -26049.46361
  20451287.556    -1958698.831 6  -1516162.39422
  22453083.970    -9223602.495 5  -7046081.21021
 91  4 23 21 17 44.9970000  0  6G18G 2G11G16G19G 6
  22118770.3844    7228131.59146   5624167.28161
  20803750.704   -13955424.579 7 -10786310.98123
  22356693.2744   -5813790.68946  -4469591.61261
  23120804.7044     -65181.02345    -29394.87661
  20451349.814    -1958381.600 6  -1515915.21923
  22444669.829    -9267830.282 5  -7080544.32621
 91  4 23 21 17 59.9970000  0  6G18G 2G11G16G19G 6
  22125663.2984    7264362.83446   5652399.27161
  20796669.735   -13992637.595 7 -10815308.08523
  22356969.212    -5812350.667 6  -4468469.52821
  23120008.2984     -69362.58545    -32653.31961
  20451414.993    -1958016.392 6  -1515630.65523
  22436250.4314   -9312060.31845  -7115009.19261
 91  4 23 21 18 14.9970000  0  6G18G 2G11G16G19G 6
  22132569.251     7300649.909 6   5680674.74521
  20789601.204   -14029777.396 7 -10844248.14223
  22357269.6184   -5810766.10346  -4467234.81261
  23119236.4784     -73427.11245    -35820.58461
  20451494.7594   -1957597.83746  -1515304.51663
  22427838.4704   -9356287.35445  -7149471.72761
 91  4 23 21 18 29.9970000  0  6G18G 2G11G16G19G 6
  22139485.5484    7336995.98946   5708996.19061
  20782549.392   -14066840.710 7 -10873128.59723
  22357598.4464   -5809033.80646  -4465884.98961
  23118487.7744     -77371.66745    -38894.34861
  20451587.2594   -1957122.47146  -1514934.11463
  22419420.3924   -9400508.08645  -7183929.35161
 91  4 23 21 18 44.9970000  0  6G18G 2G11G16G19G 6
  22146412.2044    7373397.88246   5737361.13761
  20775509.220   -14103830.508 7 -10901951.76823
  22357955.9394   -5807156.85846  -4464422.44361
  23117754.6034     -81199.18745    -41876.92161
  20451688.384    -1956593.259 6  -1514521.75523
  22411005.4704   -9444725.33445  -7218384.25661
 91  4 23 21 18 59.9970000  0  6G18G 2G11G16G19G 6
  22153351.431     7409856.642 6   5765770.39721
  20768484.368   -14140745.184 7 -10930716.39623
  22358340.399    -5805133.868 6  -4462846.10421
  23117047.571      -84908.356 5    -44767.29221
  20451802.774    -1956008.595 6  -1514066.19222
  22402593.501    -9488937.710 5  -7252835.37921
 91  4 23 21 19 14.9970000  0  6G18G 2G11G16G19G 6
  22160300.7674    7446372.89946   5794224.47361
  20761475.064   -14177583.835 7 -10959421.78923
  22358752.4544   -5802963.93146  -4461155.26161
  23116368.8844     -88498.28245    -47564.72161
  20451922.774    -1955367.287 6  -1513566.48723
  22394182.5564   -9533144.10145  -7287281.84061
 91  4 23 21 19 29.9970000  0  6G18G 2G11G16G19G 6
  22167260.2204    7482946.56046   5822723.24761
  20754479.017   -14214346.492 7 -10988067.96223
  22359194.110    -5800647.179 6  -4459350.01221
  23115706.962      -91969.425 5    -50269.60521
  20452050.478    -1954669.573 6  -1513022.83723
  22385769.196    -9577344.615 6  -7321723.70721
 91  4 23 21 19 44.9970000  0  6G18G 2G11G16G19G 6
  22174230.5954    7519574.36646   5851264.22161
  20747498.134   -14251036.112 7 -11016657.21923
  22359664.306    -5798186.773 6  -4457432.82921
  23115066.5174     -95324.93644    -52884.39561
  20452196.814    -1953918.358 6  -1512437.49822
  22377359.0484   -9621542.22846  -7356163.33561
 91  4 23 21 19 59.9970000  0  6G18G 2G11G16G19G 6
  22181211.829     7556255.895 6   5879847.06521
  20740530.540   -14287652.836 7 -11045189.67423
  22360159.001    -5795582.846 6  -4455403.80721
  23114450.149      -98565.040 4    -55409.25021
  20452347.610    -1953113.418 6  -1511810.28723
  22368949.251    -9665736.914 6  -7390600.67821
 91  4 23 21 20 14.9970000  0  6G18G 2G11G16G19G 6
  22188201.509     7592990.428 6   5908471.20521
  20733576.8144  -14324197.45747 -11073665.94463
  22360682.8374   -5792836.39646  -4453263.72861
  23113858.5014    -101690.82645    -57845.02661
  20452512.759    -1952255.554 6  -1511141.83722
  22360537.6424   -9709929.46046  -7425036.36461
 91  4 23 21 20 29.9970000  0  6G18G 2G11G16G19G 6
  22195200.4394    7629778.12146   5937136.76961
  20726635.2204  -14360669.06547 -11102085.32263
  22361231.6494   -5789946.64346  -4451011.97761
  23113284.501     -104701.553 4    -60191.13721
  20452686.142    -1951343.836 6  -1510431.42023
  22352131.3374   -9754119.08546  -7459469.78861
 91  4 23 21 20 44.9970000  0  6G18G 2G11G16G19G 6
  22202211.126     7666618.705 6   5965843.54321
  20719708.7674  -14397067.72047 -11130447.85263
  22361807.767    -5786913.819 6  -4448648.74921
  23112732.415     -107597.325 4    -62447.65621
  20452871.524    -1950378.307 6  -1509679.07923
  22343721.9154   -9798305.68846  -7493900.84061
 91  4 23 21 20 59.9970000  0  6G18G 2G11G16G19G 6
  22209232.501     7703507.650 6   5994588.01421
  20712794.9464  -14433397.79747 -11158756.94163
  22362412.189    -5783742.530 6  -4446177.62421
  23112201.9394    -110382.68244    -64618.16061
  20453062.626    -1949363.284 6  -1508888.17222
  22335313.6894   -9842493.69546  -7528332.99961
 91  4 23 21 21 14.9970000  0  6G18G 2G11G16G19G 6
  22216263.048     7740447.788 6   6023372.36921
  20705894.923   -14469656.176 7 -11187010.17123
  22363041.642    -5780429.794 6  -4443596.28921
  23111695.165     -113054.827 4    -66700.43021
  20453268.087    -1948295.524 6  -1508056.17423
  22326904.1734   -9886680.00945  -7562763.82961
 91  4 23 21 21 29.9970000  0  6G18G 2G11G16G19G 6
  22223301.439     7777442.996 6   6052199.63821
  20699009.3454  -14505838.60247 -11215204.21163
  22363703.6184   -5776971.44046  -4440901.47961
  23111207.415     -115609.977 4    -68691.53521
  20453478.962    -1947170.727 6  -1507179.73222
  22318499.6964   -9930860.43045  -7597190.07161
 91  4 23 21 21 44.9970000  0  6G18G 2G11G16G19G 6
  22230351.681     7814491.303 6   6081068.27521
  20692138.7674  -14541946.97047 -11243340.54763
  22364386.0714   -5773369.34646  -4438094.66161
  23110745.2204    -118049.70444    -70592.71761
  20453705.587    -1945990.569 6  -1506260.15222
  22310091.431    -9975036.523 5  -7631612.93721
 91  4 23 21 21 59.9970000  0  6G18G 2G11G16G19G 6
  22237412.548     7851589.060 6   6109975.44721
  20685281.204   -14577984.614 7 -11271421.76623
  22365098.4464   -5769627.00446  -4435178.55661
  23110302.899     -120377.395 4    -72406.58621
  20453937.415    -1944758.289 6  -1505299.95622
  22301683.5644  -10019211.69045  -7666035.08161
 91  4 23 21 22 14.9970000  0  6G18G 2G11G16G19G 6
  22244482.0094    7888738.80246   6138923.14261
  20678436.845   -14613948.613 7 -11299445.61623
  22365839.4934   -5765741.57546  -4432150.96161
  23109877.735     -122590.727 4    -74131.33821
  20454183.314    -1943470.925 6  -1504296.83822
  22293277.126   -10063383.093 5  -7700454.27521
 91  4 23 21 22 29.9970000  0  6G18G 2G11G16G19G 6
  22251561.415     7925940.527 6   6167911.34821
  20671607.259   -14649839.126 7 -11327412.19623
  22366604.2594   -5761713.26646  -4429012.02461
  23109480.985     -124690.086 4    -75767.28321
  20454438.735    -1942128.503 6  -1503250.81722
  22284873.1184  -10107550.69845  -7734870.53361
 91  4 23 21 22 44.9970000  0  6G18G 2G11G16G19G 6
  22258650.884     7963199.792 6   6196944.34221
  20664792.8764  -14685650.11447 -11355316.80963
  22367397.7674   -5757536.29946  -4425757.25061
  23109103.399     -126669.822 4    -77310.01921
  20454708.7514   -1940724.92046  -1502157.14762
  22276470.5324  -10151708.50845  -7769279.13761
 91  4 23 21 22 59.9970000  0  6G18G 2G11G16G19G 6
  22265751.642     8000511.448 6   6226018.15921
  20657992.165   -14721386.226 7 -11383163.07723
  22368219.4314   -5753215.51746  -4422390.41461
  23108749.0244    -128534.68045    -78763.24261
  20454985.7674   -1939264.90546  -1501019.50262
  22268070.9544  -10195861.20345  -7803683.76461
 91  4 23 21 23 14.9970000  0  6G18G 2G11G16G19G 6
  22272862.907     8037877.873 6   6255134.68621
  20651205.524   -14757044.854 7 -11410948.97123
  22369069.9394   -5748748.65646  -4418909.74961
  23108417.603     -130281.923 5    -80124.81621
  20455276.0324   -1937745.98246  -1499835.95662
  22259667.8294  -10240006.27546  -7838082.46561
 91  4 23 21 23 29.9970000  0  6G18G 2G11G16G19G 6
  22279983.649     8075297.030 6   6284292.29921
  20644434.696   -14792627.768 7 -11438675.86823
  22369949.1034   -5744137.48646  -4415316.63761
  23108107.220     -131913.756 5    -81396.48121
  20455572.2204   -1936169.52046  -1498607.57562
  22251270.5404  -10284145.32546  -7872476.46861
 91  4 23 21 23 44.9970000  0  6G18G 2G11G16G19G 6
  22287111.087     8112763.972 6   6313487.15421
  20637677.978   -14828139.908 7 -11466347.61723
  22370853.0324   -5739387.04246  -4411614.99061
  23107818.2434    -133435.48845    -82582.32761
  20455884.8684   -1934540.61346  -1497338.32262
  22242870.1964  -10328283.20746  -7906869.55861
 91  4 23 21 23 59.9970000  0  6G18G 2G11G16G19G 6
  22294252.1894    8150287.84946   6342726.36361
  20630934.868   -14863571.754 7 -11493956.80123
  22371783.8994   -5734487.73546  -4407797.35761
  23107551.196     -134837.493 5    -83674.89721
  20456206.9314   -1932849.48046  -1496020.58662
  22234471.8684  -10372410.25446  -7941254.20961
 91  4 23 21 24 14.9970000  0  6G18G 2G11G16G19G 6
  22301403.5874    8187862.69846   6372005.27961
  20624206.462   -14898928.782 7 -11521507.68223
  22372744.4154   -5729445.40546  -4403868.27161
  23107308.032     -136125.443 5    -84678.58821
  20456540.3374   -1931101.52946  -1494658.57662
  22226078.196   -10416532.039 6  -7975634.75121
 91  4 23 21 24 29.9970000  0  6G18G 2G11G16G19G 6
  22308564.9154    8225490.64546   6401325.56861
  20617493.056   -14934208.843 7 -11548998.59323
  22373732.1574   -5724258.03746  -4399826.18161
  23107086.0404    -137297.78345    -85592.21061
  20456881.1894   -1929294.55446  -1493250.57562
  22217682.2674  -10460646.48246  -8010009.57861
 91  4 23 21 24 44.9970000  0  6G18G 2G11G16G19G 6
  22315734.056     8263168.584 6   6430684.83121
  20610794.321   -14969414.757 7 -11576431.72423
  22374745.0324   -5718928.67146  -4395673.43461
  23106879.0714    -138357.40044    -86417.94761
  20457237.1654   -1927431.42746  -1491798.82162
  22209289.0564  -10504756.33146  -8044380.83161
 91  4 23 21 24 59.9970000  0  6G18G 2G11G16G19G 6
  22322913.345     8300899.002 5   6460084.99521
  20604108.899   -15004543.814 7 -11603804.96823
  22375787.7204   -5713454.55546  -4391407.89761
  23106697.790     -139301.383 4    -87153.64821
  20457602.6344   -1925509.20946  -1490301.01962
  22200894.4464  -10548858.64146  -8078746.19761
 91  4 23 21 25 14.9970000  0  6G18G 2G11G16G19G 6
  22330101.8144    8338676.45045   6489521.78961
  20597438.423   -15039601.050 7 -11631122.24523
  22376856.6104   -5707840.91746  -4387033.63461
  23106542.181     -140135.150 4    -87803.42121
  20457980.2044   -1923532.99346  -1488761.14362
  22192503.5404  -10592958.56046  -8113109.69961
 91  4 23 21 25 29.9970000  0  6G18G 2G11G16G19G 6
  22337300.8844    8376503.01946   6518996.85061
  20590780.353   -15074584.294 7 -11658381.87223
  22377950.9154   -5702085.73846  -4382549.08661
  23106405.423     -140856.767 4    -88365.79421
  20458364.4624   -1921500.22146  -1487177.19362
  22184110.618   -10637053.733 6  -8147469.50721
 91  4 23 21 25 44.9970000  0  6G18G 2G11G16G19G 6
  22344508.587     8414376.008 6   6548508.09621
  20584136.884   -15109495.771 7 -11685585.57223
  22379072.5244   -5696191.46246  -4377956.15161
  23106286.462     -141468.943 4    -88842.93221
  20458763.524    -1919413.291 6  -1485551.04522
  22175721.392   -10681146.393 5  -8181827.33621
 91  4 23 21 25 59.9970000  0  6G18G 2G11G16G19G 6
  22351727.1034    8452303.02246   6578061.42961
  20577508.673   -15144327.985 7 -11712727.51223
  22380222.7904   -5690150.72846  -4373249.09161
  23106194.837     -141964.224 4    -89228.96321
  20459171.0014   -1917264.51246  -1483876.70262
  22167335.329   -10725229.062 5  -8216177.39421
 91  4 23 21 26 14.9970000  0  6G18G 2G11G16G19G 6
  22358953.9234    8490283.36946   6607656.31861
  20570894.923   -15179081.372 7 -11739808.03123
  22381397.1184   -5683964.02746  -4368428.29561
  23106124.5954    -142342.78845    -89524.05161
  20459593.8604   -1915054.22746  -1482154.43362
  22158946.345   -10769302.063 5  -8250519.91221
 91  4 23 21 26 29.9970000  0  6G18G 2G11G16G19G 6
  22366192.8144    8528314.49646   6637290.77561
  20564297.0794  -15213757.83747 -11766828.60863
  22382603.9234   -5677633.51046  -4363495.43461
  23106072.8844    -142607.39645    -89730.33561
  20460023.3604   -1912784.38046  -1480385.75762
  22150561.4154  -10813367.36945  -8284856.45361
 91  4 23 21 26 44.9970000  0  6G18G 2G11G16G19G 6
  22373437.3534    8566397.74346   6666965.85461
  20557712.8454  -15248355.91747 -11793788.11363
  22383836.3764   -5671157.91046  -4358449.52561
  23106044.7284    -142756.67745
  20460468.2594   -1910453.29446  -1478569.35962
  22142176.4784  -10857423.42245  -8319185.76761
 91  4 23 21 26 59.9970000  0  6G18G 2G11G16G19G 6
  22380694.1654    8604536.18946   6696683.95661
  20551144.446   -15282872.340 7 -11820683.98523
  22385096.2354   -5664533.95146  -4353288.00561
  23106040.2354    -142787.14645
  20460924.673    -1908057.401 6  -1476702.45722
  22133796.774   -10901466.735 5  -8353505.15621
 91  4 23 21 27 14.9970000  0  6G18G 2G11G16G19G 6
  22387964.0874    8642733.26246   6726447.72761
  20544593.0714  -15317303.41647 -11847513.35363
  22386385.4074   -5657758.08946  -4348008.12461
  23106055.8064    -142695.52045
  20461395.7824   -1905593.17846  -1474782.31562
  22125418.0174  -10945493.74146  -8387811.84261
 91  4 23 21 27 29.9970000  0  6G18G 2G11G16G19G 6
  22395242.7904    8680982.31146   6756251.99561
  20538054.649   -15351655.400 7 -11874281.09123
  22387703.4854   -5650836.82146  -4342614.92961
  23106098.0644    -142488.62545
  20461873.8994   -1903066.90746  -1472813.81762
  22117042.673   -10989510.608 6  -8422110.62021
 91  4 23 21 27 44.9970000  0  6G18G 2G11G16G19G 6
  22402529.126     8719278.893 6   6786093.29421
  20531531.939   -15385932.544 7 -11900990.51223
  22389046.8454   -5643774.73046  -4337112.01061
  23106157.923     -142170.918 5
  20462367.2594   -1900482.81246  -1470800.26862
  22108666.642   -11033521.714 6  -8456404.90221
 91  4 23 21 27 59.9970000  0  6G18G 2G11G16G19G 6
  22409828.2984    8757629.92946   6815977.03361
  20525025.8454  -15420127.45247 -11927635.85463
  22390418.9154   -5636564.34846  -4331493.54461
  23106241.751     -141735.045 5    -89051.14721
  20462871.5954   -1897833.29046  -1468735.73662
  22100295.095   -11077519.538 6  -8490688.83721
 91  4 23 21 28 14.9970000  0  6G18G 2G11G16G19G 6
  22417138.1654    8796035.90546   6845903.60361
  20518534.235   -15454239.842 7 -11954216.89623
  22391819.2284   -5629205.38346  -4325759.28861
  23106344.5874    -141180.82945    -88619.41661
  20463388.1104   -1895117.73246  -1466619.74862
  22091924.548   -11121503.497 6  -8524961.97721
 91  4 23 21 28 29.9970000  0  6G18G 2G11G16G19G 6
  22424457.360     8834492.750 6   6875869.81421
  20512057.173   -15488273.356 7 -11980736.47423
  22393247.0174   -5621701.82646  -4319912.37561
  23106473.626     -140512.019 5    -88098.34021
  20463914.9464   -1892339.95446  -1464455.27062
  22083557.329   -11165477.303 6  -8559227.19221
 91  4 23 21 28 44.9970000  0  6G18G 2G11G16G19G 6
  22431785.3374    8873004.19846   6905878.55261
  20505597.0954  -15522224.07847 -12007191.54463
  22394702.2284   -5614049.80046  -4313949.76361
  23106623.595     -139725.096 5    -87485.26221
  20464457.931    -1889495.869 6  -1462239.12722
  22075192.134   -11209436.961 6  -8593481.38921
 91  4 23 21 28 59.9970000  0  6G18G 2G11G16G19G 6
  22439123.3214    8911571.56246   6935930.86661
  20499152.8684  -15556090.30547 -12033580.77063
  22396188.0014   -5606247.87246  -4307870.34761
  23106793.728     -138818.257 5    -86778.72621
  20465012.243    -1886583.793 6  -1459970.00122
  22066830.0644  -11253380.90046  -8627723.32161
 91  4 23 21 29 14.9970000  0  6G18G 2G11G16G19G 6
  22446471.610     8950189.627 6   6966022.67221
  20492723.517   -15589877.009 7 -12059908.02324
  22397701.8994   -5598301.02446  -4301678.00661
  23106989.6814    -137796.91345    -85982.94861
  20465576.946    -1883608.357 6  -1457651.50722
  22058468.3534  -11297313.70246  -8661956.58761
 91  4 23 21 29 29.9970000  0  6G18G 2G11G16G19G 6
  22453830.4934    8988854.98946   6996151.33561
  20486307.665   -15623587.223 7 -12086175.68324
  22399241.532    -5590212.497 6  -4295375.26721
  23107204.4624    -136664.33344    -85100.52861
  20466155.126    -1880572.561 6  -1455285.96922
  22050111.071   -11341238.485 5  -8696183.60421
 91  4 23 21 29 44.9970000  0  6G18G 2G11G16G19G 6
  22461199.0094    9027566.17246   7026315.70961
  20479907.4154  -15657222.22147 -12112384.72864
  22400805.2434   -5581983.92646  -4288963.39561
  23107440.267     -135422.076 4    -84132.60421
  20466745.798    -1877477.891 6  -1452874.56022
  22041753.7044  -11385156.54845  -8730405.38061
 91  4 23 21 29 59.9970000  0  6G18G 2G11G16G19G 6
  22468572.399     9066330.720 5   7056521.68021
  20473523.196   -15690774.190 7 -12138529.07624
  22402400.196    -5573607.685 6  -4282436.46621
  23107697.6654    -134062.64944    -83073.43161
  20467346.446    -1874316.376 6  -1450411.06222
  22033397.321   -11429060.081 5  -8764615.84021
 91  4 23 21 30 14.9970000  0  6G18G 2G11G16G19G 6
  22475959.3144    9105143.91745   7086765.54761
  20467153.8994  -15724247.67947 -12164612.27163
  22404019.923    -5565088.409 6  -4275798.08821
  23107980.540     -132590.684 4    -81926.51421
  20467959.751    -1871092.297 6  -1447898.81222
  22025045.0714  -11472953.45945  -8798818.38561
 91  4 23 21 30 29.9970000  0  6G18G 2G11G16G19G 6
  22483353.8684    9144002.83145   7117045.03661
  20460797.985   -15757645.175 7 -12190636.25223
  22405668.2904   -5556428.61646  -4269050.20361
  23108279.1894    -131008.58044    -80693.80461
  20468582.610    -1867808.019 6  -1445339.65922
  22016694.6104  -11516839.06645  -8833014.86861
 91  4 23 21 30 44.9970000  0  6G18G 2G11G16G19G 6
  22490760.3764    9182913.09646   7147364.55461
  20454458.126   -15790960.974 7 -12216596.57223
  22407344.6654   -5547623.09046  -4262188.76461
  23108602.1034    -129311.52544    -79371.51061
  20469222.392    -1864458.015 6  -1442729.28622
  22008344.5794  -11560711.31945  -8867200.95361
 91  4 23 21 30 59.9970000  0  6G18G 2G11G16G19G 6
  22498171.626     9221873.250 6   7177722.93021
  20448133.196   -15824196.467 7 -12242494.31523
  22409048.1814   -5538673.14746  -4255214.78861
  23108950.103     -127500.838 4
  20469871.868    -1861043.232 6  -1440068.44322
  21999999.509   -11604571.360 6  -8901377.52421
 91  4 23 21 31 14.9970000  0  6G18G 2G11G16G19G 6
  22505597.8534    9260887.15245   7208123.19861
  20441824.915   -15857347.346 7 -12268326.12323
  22410778.7284   -5529574.51246  -4248124.95061
  23109316.032          -0.34914
  20470535.478    -1857559.401 6  -1437353.78322
  21991655.6894  -11648414.79346  -8935541.16961
 91  4 23 21 31 29.9970000  0  6G18G 2G11G16G19G 6
  22513029.243     9299953.696 5   7238564.47421
  20435533.048   -15890414.353 7 -12294092.57923
  22412538.7434   -5520328.29946  -4240920.10761
  23109704.212        2045.010 4
  20471213.720    -1854007.364 6  -1434585.97823
  21983315.634   -11692242.399 6  -8969692.46021
 91  4 23 21 31 44.9970000  0  6G18G 2G11G16G19G 6
  22520475.0484    9339071.83145   7269045.94961
  20429254.009   -15923398.430 7 -12319794.40923
  22414327.1424   -5510935.67546  -4233601.18361
  23110115.9704       4206.04544
  20471898.798    -1850387.739 6  -1431765.50722
  21974978.360   -11736055.132 6  -9003832.17721
 91  4 23 21 31 59.9970000  0  6G18G 2G11G16G19G 6
  22527930.165     9378242.996 5   7299568.77721
  20422995.087   -15956297.615 7 -12345430.09323
  22416141.118    -5501394.778 6  -4226166.72921
  23110547.7824       6484.45944        -0.27971
  20472598.946    -1846698.576 6  -1428890.85022
  21966644.5874  -11779850.74546  -9037958.57261
 91  4 23 21 32 14.9970000  0  6G18G 2G11G16G19G 6
  22535393.3214    9417463.62845   7330130.12161
  20416749.267   -15989115.499 7 -12371002.42723
  22417985.5954   -5491709.22746  -4218619.55961
  23111003.5324       8876.59544      1863.60861
  20473317.915    -1842943.249 6  -1425964.63922
  21958314.095   -11823632.835 6  -9072074.41421
 91  4 23 21 32 29.9970000  0  6G18G 2G11G16G19G 6
  22542865.657     9456733.712 5   7360729.98521
  20410520.1344  -16021852.01947 -12396511.36163
  22419854.540    -5481879.221 6  -4210959.82121
  23111480.3064      11382.21544      3815.95461
  20474042.228    -1839121.791 6  -1422986.90122
  21949984.306   -11867401.264 6  -9106179.60221
 91  4 23 21 32 44.9970000  0  6G18G 2G11G16G19G 6
  22550348.462     9496052.190 5   7391367.56321
  20404305.407   -16054507.598 7 -12421957.21823
  22421751.8764   -5471905.42146  -4203188.04861
  23111981.7744      14000.85444      5856.33261
  20474783.790    -1835234.392 6  -1419957.78022
  21941657.454   -11911156.426 6  -9140274.45421
 91  4 23 21 32 59.9970000  0  6G18G 2G11G16G19G 6
  22557839.2594    9535419.63645   7422043.29061
  20398107.735   -16087081.644 7 -12447339.54723
  22423678.415    -5461787.359 6  -4195303.86121
  23112499.6734      16732.55444      7984.84161
  20475533.314    -1831280.412 6  -1416876.77422
  21933333.024   -11954897.591 6  -9174358.39621
 91  4 23 21 33 14.9970000  0  6G18G 2G11G16G19G 6
  22565341.2204    9574834.65145   7452756.11561
  20391923.759   -16119574.985 7 -12472658.98823
  22425631.2674   -5451526.25446  -4187308.20661
  23113043.5324      19576.13744     10200.51761
  20476300.4074   -1827260.77246  -1413744.60562
  21925012.579   -11998625.720 6  -9208432.19121
 91  4 23 21 33 29.9970000  0  6G18G 2G11G16G19G 6
  22572850.923     9614298.799 5   7483507.20021
  20385756.157   -16151985.898 7 -12497914.20223
  22427611.298    -5441120.388 6  -4179199.75521
  23113601.579       22533.163 4     12504.58221
  20477076.860    -1823173.623 6  -1410559.82922
  21916694.3214  -12042338.90946  -9242494.32461
 91  4 23 21 33 44.9970000  0  6G18G 2G11G16G19G 6
  22580369.954     9653810.301 5   7514295.18721
  20379604.446   -16184316.021 7 -12523106.45723
  22429619.360    -5430571.395 6  -4170979.77721
  23114188.2674      25601.84344     14895.70261
  20477869.103    -1819020.257 6  -1407323.45322
  21908377.6894  -12086038.51346  -9276545.88061
 91  4 23 21 33 59.9970000  0  6G18G 2G11G16G19G 6
  22587897.9784    9693371.36445   7545121.81261
  20373468.595   -16216562.961 7 -12548233.89423
  22431655.1574   -5419877.25946  -4162646.69361
  23114794.767       28784.380 4     17375.46821
  20478670.048    -1814798.250 6  -1404033.59722
  21900065.3214  -12129722.23646  -9310585.04861
 91  4 23 21 34 14.9970000  0  6G18G 2G11G16G19G 6
  22595434.228     9732980.022 5   7575985.51421
  20367347.462   -16248728.727 7 -12573298.08423
  22433715.689    -5409040.036 6  -4154202.11721
  23115420.415       32078.706 4     19942.38521
  20479488.220    -1810509.577 6  -1400691.79422
  21891754.728   -12173391.911 6  -9344613.28521
 91  4 23 21 34 29.9970000  0  6G18G 2G11G16G19G 6
  22602982.087     9772635.178 5   7606885.43921
  20361240.517   -16280814.072 7 -12598299.60523
  22435804.6494   -5398060.72446  -4145646.82261
  23116070.3064      35483.98744     22595.76461
  20480315.603    -1806154.812 6  -1397298.49222
  21883448.149   -12217048.288 6  -9378631.15321
 91  4 23 21 34 44.9970000  0  6G18G 2G11G16G19G 6
  22610533.3294    9812334.18045   7637819.51161
  20355150.587   -16312821.011 7 -12623240.02723
  22437921.431    -5386941.652 6  -4136982.62021
  23116737.6894      38997.17244     25333.23061
  20481157.165    -1801736.013 6  -1393855.28922
  21875143.103   -12260693.402 6  -9412640.25821
 91  4 23 21 34 59.9970000  0  6G18G 2G11G16G19G 6
  22618098.1344    9852075.42245   7668786.53361
  20349073.564   -16344750.899 7 -12648120.41323
  22440062.524    -5375684.382 6  -4128210.74621
  23117425.329       42617.259 3     28153.96521
  20482008.759    -1797254.522 6  -1390363.23022
  21866837.6184  -12304328.57846  -9446641.62261
 91  4 23 21 35 14.9970000  0  6G18G 2G11G16G19G 6
  22625668.6734    9891858.10845   7699785.83961
  20343013.384   -16376604.133 7 -12672941.06923
  22442232.478    -5364289.382 6  -4119331.54921
  23118134.689       46343.203 3     31057.19521
  20482875.782    -1792710.470 6  -1386822.43522
  21858536.8994  -12347954.06246  -9480635.43961
 91  4 23 21 35 29.9970000  0  6G18G 2G11G16G19G 6
  22633248.556     9931685.523 5   7730819.99621
  20336966.439   -16408377.449 7 -12697699.45323
  22444426.024    -5352753.455 6  -4110342.54421
  23118866.040       50178.550 3     34045.67321
  20483751.126    -1788100.384 6  -1383230.18022
  21850238.5094  -12391566.25746  -9514618.89261
 91  4 23 21 35 44.9970000  0  6G18G 2G11G16G19G 6
  22640836.564     9971559.797 5   7761890.67421
  20330935.415   -16440068.556 7 -12722393.77923
  22446648.720    -5341074.562 6  -4101242.13021
  23119617.2434      54125.58042     37121.16261
  20484643.353    -1783422.001 6  -1379584.70123
  21841942.2594  -12435162.94546  -9548590.27461
 91  4 23 21 35 59.9970000  0  6G18G 2G11G16G19G 6
  22648435.485    10011478.601 5   7792996.03621
  20324920.376   -16471679.532 7 -12747025.66523
  22448898.4394   -5329255.00846  -4092032.12461
  23120390.9704      58181.44542     40281.50661
  20485543.071    -1778677.320 6  -1375887.56923
  21833648.7984  -12478746.20546  -9582551.19461
 91  4 23 21 36 14.9970000  0  6G18G 2G11G16G19G 6
  22656039.751    10051443.631 5   7824137.42021
  20318921.6104  -16503208.23047 -12771593.44163
  22451175.314    -5317292.843 6  -4082710.97521
  23121180.8604      62348.16942     43528.18761
  20486460.649    -1773864.138 6  -1372137.05923
  21825358.6494  -12522313.69246  -9616499.82061
 91  4 23 21 36 29.9970000  0  6G18G 2G11G16G19G 6
  22663653.8064   10091457.62245   7855316.93861
  20312937.845   -16534651.815 7 -12796094.89123
  22453481.274    -5305185.480 6  -4073276.68421
  23121995.689       66628.363 2     46863.28821
  20487389.939    -1768979.467 6  -1368330.84523
  21817069.4314  -12565862.56146  -9650433.94661
 91  4 23 21 36 44.9970000  0  6G18G 2G11G16G19G 6
  22671274.7284   10131516.73645   7886531.61661
  20306970.5484  -16566013.75047 -12820532.72663
  22455809.603    -5292936.630 6  -4063732.15021
  23122830.985       71017.953 3     50283.63421
  20488333.384    -1764026.883 6  -1364471.71523
  21808785.2674  -12609396.29446  -9684356.27361
 91  4 23 21 36 59.9970000  0  6G18G 2G11G16G19G 6
  22678907.501    10171619.221 5   7917780.10321
  20301016.8844  -16597295.56747 -12844908.12663
  22458165.5404   -5280547.83046  -4054078.57661
  23123687.220       75515.780 3     53788.31921
  20489286.899    -1759007.561 6  -1360560.57723
  21800503.4234  -12652916.14846  -9718267.78661
 91  4 23 21 37 14.9970000  0  6G18G 2G11G16G19G 6
  22686548.7514   10211762.29245   7949060.22961
  20295079.2354  -16628499.88847 -12869223.14563
  22460550.712    -5268021.864 6  -4044318.10921
  23124567.8374      80118.75343     57374.98161
  20490255.431    -1753924.147 6  -1356599.50123
  21792224.4854  -12696424.64546  -9752170.43961
 91  4 23 21 37 29.9970000  0  6G18G 2G11G16G19G 6
  22694193.368    10251950.868 5   7980375.80321
  20289156.485   -16659621.816 7 -12893473.95423
  22462962.329    -5255353.888 6  -4034446.98821
  23125458.7904      84831.31343     61046.98861
  20491234.892    -1748771.530 6  -1352584.50023
  21783949.1654  -12739916.75346  -9786060.33461
 91  4 23 21 37 44.9970000  0  6G18G 2G11G16G19G 6
  22701849.2904   10292180.50145   8011723.36861
  20283249.6654  -16690665.29047 -12917663.63463
  22465399.8604   -5242548.35446  -4024468.67461
  23126375.4784      89649.76243     64801.48561
  20492229.0564   -1743553.71946  -1348518.70063
  21775674.157   -12783396.493 6  -9819940.57621
 91  4 23 21 37 59.9970000  0  6G18G 2G11G16G19G 6
  22709512.6184   10332447.46745   8043100.03061
  20277355.532   -16721633.668 7 -12941794.79723
  22467862.868    -5229608.871 6  -4014385.98421
  23127315.7674      94570.28143     68635.56761
  20493231.548    -1738274.010 6  -1344404.66523
  21767402.321   -12826867.186 6  -9853813.76721
 91  4 23 21 38 14.9970000  0  6G18G 2G11G16G19G 6
  22717182.915    10372759.014 5   8074511.41621
  20271478.8294  -16752519.36347 -12965861.53263
  22470351.345    -5216527.869 6  -4004193.01921
  23128271.235       99600.282 3     72554.93021
  20494252.064    -1732924.565 6  -1340236.29523
  21759133.189   -12870320.938 6  -9887673.76821
 91  4 23 21 38 29.9970000  0  6G18G 2G11G16G19G 6
  22724862.001    10413114.307 5   8105956.91321
  20265616.509   -16783323.186 7 -12989864.46923
  22472867.9314   -5203306.41146  -3993890.61661
  23129246.110      104738.514 3
  20495280.970    -1727506.200 6  -1336014.21823
  21750868.095   -12913758.569 6  -9921521.19921
 91  4 23 21 38 44.9970000  0  6G18G 2G11G16G19G 6
  22732550.4784   10453510.69845   8137434.41561
  20259769.9314  -16814047.61447 -13013805.54263
  22475408.2984   -5189946.91046  -3983480.64961
  23130250.095      109982.461 3
  20496326.3924   -1722020.93846  -1331740.02063
  21742603.7674  -12957182.34746  -9955357.84461
 91  4 23 21 38 59.9970000  0  6G18G 2G11G16G19G 6
  22740245.0324   10493951.55845   8168946.56261
  20253938.6104  -16844688.93747 -13037681.86363
  22477976.6264   -5176445.99646  -3972960.48661
  23131266.923      115335.761 3
  20497382.4934   -1716465.25946  -1327410.94863
  21734345.720   -13000588.588 6  -9989180.83121
 91  4 23 21 39 14.9970000  0  6G18G 2G11G16G19G 6
  22747948.4464   10534434.03845   8200491.13061
  20248123.0714  -16875249.43247 -13061495.19163
  22480572.915    -5162806.319 6  -3962332.19221
  23132301.189      120795.607 3
  20498455.3534   -1710841.52946  -1323028.84763
  21726087.1184  -13043979.51546 -10022991.88961
 91  4 23 21 39 29.9970000  0  6G18G 2G11G16G19G 6
  22755658.7594   10574960.63745   8232070.09161
  20242323.9074  -16905726.67247 -13085243.65763
  22483195.1734   -5149025.54946  -3951593.95261
  23133364.189      126364.160 3
  20499538.1264   -1705147.00346  -1318591.58263
  21717832.673   -13087352.543 6 -10056788.99421
 91  4 23 21 39 44.9970000  0  6G18G 2G11G16G19G 6
  22763383.4314   10615538.63645   8263689.10361
  20236541.2904  -16936113.17747 -13108921.41764
  22485846.970    -5135096.316 6  -3940740.03421
  23134445.517      132048.721 3
  20500637.0874   -1699374.20546
  21709585.4074  -13130700.03046 -10090566.19861
 91  4 23 21 39 59.9970000  0  6G18G 2G11G16G19G 6
  22771113.8144   10656160.01645   8295341.92161
  20230774.1104  -16966416.83047 -13132534.61664
  22488523.6104   -5121026.81946  -3929776.81561
  23135549.642      137840.988 2
  20501747.6034   -1693530.88746
  21701338.767   -13174029.944 6 -10124329.71221
 91  4 23 21 40 14.9970000  0  5G18G 2G11G19G 6
  22778852.548    10696821.354 5   8327025.87221
  20225023.1894  -16996640.43147 -13156085.43664
  22491227.407    -5106819.985 6  -3918706.57421
  20502874.2514   -1687619.64246  -1304933.98663
  21693096.8924  -13217344.78546 -10158081.47961
 91  4 23 21 40 29.9970000  0  6G18G 2G11G16G19G 6
  22786598.6034   10737524.08545   8358742.06561
  20219287.0874  -17026782.49747 -13179572.72264
  22493957.595    -5092474.405 6  -3907528.22621
  23137813.8294         -0.65553
  20504012.251    -1681638.763 6  -1300273.58823
  21684857.571   -13260642.990 6 -10191820.28521
 91  4 23 21 40 44.9970000  0  6G18G 2G11G16G19G 6
  22794351.9934   10778272.06545   8390493.52961
  20213569.0174  -17056839.08147 -13202993.39664
  22496713.235    -5077986.572 6  -3896239.02821
  23138974.4624       6112.42043
  20505165.2044   -1675584.50246  -1295556.01063
  21676622.165   -13303920.639 6 -10225543.07621
 91  4 23 21 40 59.9970000  0  6G18G 2G11G16G19G 6
  22802113.001    10819064.775 5   8422279.85521
  20207864.4624  -17086810.29047 -13226347.54863
  22499497.3604   -5063356.62046  -3884839.09361
  23140161.0644      12334.71743
  20506328.4624   -1669456.91946  -1290781.30063
  21668389.587   -13347177.566 6 -10259249.71721
 91  4 23 21 41 14.9970000  0  6G18G 2G11G16G19G 6
  22809884.892    10859901.803 5   8454100.71521
  20202178.1184  -17116696.28047 -13249635.28963
  22502309.603    -5048584.913 6  -3873328.68021
  23141362.9704      18666.44743
  20507509.6814   -1663255.70246  -1285949.21463
  21660162.321   -13390413.746 6 -10292940.19521
 91  4 23 21 41 29.9970000  0  6G18G 2G11G16G19G 6
  22817666.540    10900780.758 5   8485954.25121
  20196506.2044  -17146499.36647 -13272858.43763
  22505146.314    -5033674.110 6  -3861709.89021
  23142589.3764      25104.51043
  20508703.1494   -1656983.35346  -1281061.70463
  21651938.540   -13433631.543 6 -10326616.35421
 91  4 23 21 41 44.9970000  0  6G18G 2G11G16G19G 6
  22825452.853    10941698.829 5   8517838.24121
  20190850.3924  -17176221.98547 -13296018.87963
  22508009.571    -5018626.936 6  -3849984.83821
  23143836.0014      31646.24643        -0.18371
  20509910.3374   -1650642.03846  -1276120.44663
  21643717.017   -13476833.364 6 -10360280.05521
 91  4 23 21 41 59.9970000  0  6G18G 2G11G16G19G 6
  22833244.470    10982655.457 5   8549752.27721
  20185209.9934  -17205864.39047 -13319116.81663
  22510899.7284   -5003443.59146  -3838153.67061
  23145101.4624      38291.34344      5177.72261
  20511131.8294   -1644231.96746  -1271125.61763
  21635498.009   -13520019.224 6 -10393931.33121
 91  4 23 21 42 14.9970000  0  6G18G 2G11G16G19G 6
  22841045.884    11023653.529 5   8581698.60521
  20179584.8144  -17235423.37847 -13342149.75563
  22513813.860    -4988121.150 6  -3826214.13221
  23146387.665       45042.953 4     10438.57921
  20512364.5244   -1637749.88146  -1266074.67263
  21627283.767   -13563185.772 6 -10427567.55821
 91  4 23 21 42 29.9970000  0  6G18G 2G11G16G19G 6
  22848857.251    11064692.071 5   8613676.47921
  20173974.790   -17264900.035 7 -13365118.53623
  22516755.689    -4972660.996 6  -3814167.26721
  23147690.1814      51899.47944     15781.26161
  20513612.6034   -1631196.80146  -1260968.40563
  21619073.017   -13606334.168 6 -10461189.63421
 91  4 23 21 42 44.9970000  0  6G18G 2G11G16G19G 6
  22856673.1964   11105770.02245   8645685.05861
  20168381.4854  -17294294.77247 -13388023.48663
  22519725.321    -4957063.811 6  -3802013.63821
  23149014.681       58860.099 5     21204.97721
  20514872.2984   -1624573.06046  -1255807.08463
  21610866.587   -13649464.643 6 -10494797.74921
 91  4 23 21 42 59.9970000  0  6G18G 2G11G16G19G 6
  22864496.0094   11146887.79445   8677724.66461
  20162803.0954  -17323606.87147 -13410864.04363
  22522719.2434   -4941329.03646  -3789752.78461
  23150359.9154      65925.14445     26710.09661
  20516142.9464   -1617877.83746  -1250590.05663
  21602662.735   -13692576.465 6 -10528391.32221
 91  4 23 21 43 14.9970000  0  6G18G 2G11G16G19G 6
  22872329.3764   11188049.21945   8709798.27561
  20157242.009   -17352832.463 7 -13433637.18923
  22525740.149    -4925452.998 6  -3777381.85721
  23151725.251       73098.593 5     32299.69221
  20517433.7744   -1611107.06846  -1245314.16763
  21594463.032   -13735665.514 6 -10561967.15421
 91  4 23 21 43 29.9970000  0  6G18G 2G11G16G19G 6
  22880169.5014   11229248.86245   8741901.67761
  20151695.1184  -17381976.82147 -13456347.04263
  22528786.681    -4909441.188 6  -3764905.13521
  23153108.806       80374.867 5     37969.38521
  20518736.4784   -1604265.99646  -1239983.49263
  21586266.665   -13778736.952 6 -10595529.26221
 91  4 23 21 43 44.9960000  0  6G18G 2G11G16G19G 6
  22888019.2154   11270489.76945   8774037.24161
  20146167.5434  -17411031.81847 -13478987.25963
  22531860.816    -4893288.653 6  -3752318.76121
  23154513.0664      87759.36145     43723.43361
  20520052.7074   -1597348.80346  -1234593.50163
  21578075.324   -13821781.705 6 -10629070.57421
 91  4 23 21 43 59.9960000  0  6G18G 2G11G16G19G 6
  22895877.613    11311783.819 5   8806214.21521
  20140655.2704  -17439994.84447 -13501555.81163
  22534962.816    -4876986.915 6  -3739616.11521
  23155943.316       95259.265 5     49567.39621
  20521386.1844   -1590347.88046  -1229138.26763
  21569890.215   -13864798.762 6 -10662590.30821
 91  4 23 21 44 14.9960000  0  6G18G 2G11G16G19G 6
  22903744.348    11353128.545 5   8838430.65421
  20135161.668   -17468863.534 7 -13524050.85223
  22538093.9884   -4860536.79346  -3726797.85761
  23157391.4184     102874.35645     55501.14661
  20522731.441    -1583263.157 6  -1223617.72823
  21561709.871   -13907784.717 6 -10696085.79621
 91  4 23 21 44 29.9960000  0  6G18G 2G11G16G19G 6
  22911620.285    11394525.715 5   8870687.97021
  20129686.5274  -17497635.81147 -13546470.76763
  22541253.0824   -4843936.51746  -3713862.58561
  23158861.9264     110606.39645     61525.98561
  20524093.1604   -1576092.30346  -1218030.07263
  21553536.332   -13950737.348 6 -10729555.33821
 91  4 23 21 44 44.9960000  0  6G18G 2G11G16G19G 6
  22919510.879    11435976.783 5   8902987.29921
  20124230.418   -17526310.102 7 -13568814.33223
  22544438.996    -4827184.568 6  -3700809.13321
  23160358.0044     118456.95945     67643.21561
  20525477.379    -1568833.734 6  -1212374.07123
  21545368.348   -13993654.931 6 -10762997.55821
 91  4 23 21 44 59.9960000  0  6G18G 2G11G16G19G 6
  22927408.723    11477479.170 5   8935326.61221
  20118792.254   -17554888.354 7 -13591083.05823
  22547656.035    -4810283.353 6  -3687639.37321
  23161872.441      126423.798 5     73851.00721
  20526873.5664   -1561489.56746  -1206651.37663
  21537208.879   -14036539.494 6 -10796414.04721
 91  4 23 21 45 14.9960000  0  6G18G 2G11G16G19G 6
  22935313.9264   11519026.57445   8967700.98361
  20113370.652   -17583376.819 7 -13613281.81723
  22550899.965    -4793239.343 6  -3674358.34821
  23163409.5434     134500.03145     80144.03961
  20528288.4814   -1554065.91546  -1200866.74063
  21529052.0824  -14079397.13246 -10829809.55761
 91  4 23 21 45 29.9960000  0  6G18G 2G11G16G19G 6
  22943231.1064   11560622.08145   9000112.82961
  20107966.691   -17611772.120 7 -13635407.98423
  22554170.645    -4776049.335 6  -3660963.54721
  23164969.9414     142688.94845     86524.90461
  20529715.1604   -1546559.27246  -1195017.44063
  21520902.535   -14122224.379 6 -10863181.38321
 91  4 23 21 45 44.9960000  0  6G18G 2G11G16G19G 6
  22951154.684    11602263.670 5   9032560.59621
  20102581.902   -17640075.857 7 -13657462.80423
  22557469.277    -4758715.170 6  -3647456.41921
  23166546.512      150988.429 5     92991.90721
  20531160.8014   -1538971.04746  -1189104.57363
  21512759.5514  -14165022.65446 -10896530.63261
 91  4 23 21 45 59.9960000  0  6G18G 2G11G16G19G 6
  22959088.8164   11643950.57545   9065043.67261
  20097211.824   -17668288.915 7 -13679446.96223
  22560795.027    -4741237.811 6  -3633837.71821
  23168146.7154     159397.90045     99544.62961
  20532617.6374   -1531301.92346  -1183128.66663
  21504619.504   -14207792.570 6 -10929857.78421
 91  4 23 21 46 14.9960000  0  6G18G 2G11G16G19G 6
  22967028.9574   11685678.96145   9097559.08861
  20091860.0044  -17696414.92647 -13701363.29863
  22564148.426    -4723621.208 6  -3620110.50821
  23169768.2624     167913.21145    106179.81861
  20534094.6064   -1523555.59046  -1177092.58863
  21496485.809   -14250537.814 6 -10963165.71421
 91  4 23 21 46 29.9960000  0  6G18G 2G11G16G19G 6
  22974979.7464   11727443.86045   9130102.95261
  20086523.1524  -17724458.67947 -13723215.53263
  22567525.465    -4705870.219 6  -3606278.58621
  23171407.613      176529.290 5    112893.50321
  20535581.4494   -1515736.63546  -1170999.92763
  21488354.871   -14293262.882 6 -10996457.92321
 91  4 23 21 46 44.9960000  0  6G18G 2G11G16G19G 6
  22982933.691    11769247.519 5   9162676.98621
  20081202.9414  -17752417.57847 -13745001.64863
  22570930.316    -4687982.463 6  -3592340.09921
  23173067.465      185248.674 5    119687.73121
  20537084.7854   -1507842.23446  -1164848.47263
  21480229.606   -14335965.064 6 -11029732.28821
 91  4 23 21 46 59.9960000  0  6G18G 2G11G16G19G 6
  22990893.6604   11811084.44045   9195276.95261
  20075898.5354  -17780296.62147 -13766725.54163
  22574358.4654   -4669963.41646  -3578299.30661
  23174746.1454     194065.99345    126558.23861
  20538599.8404   -1499877.53046  -1158642.24163
  21472106.8874  -14378649.37446 -11062992.72061
 91  4 23 21 47 14.9960000  0  6G18G 2G11G16G19G 6
  22998861.9344   11852953.99945   9227902.33361
  20070606.418   -17808096.257 7 -13788387.55324
  22577812.684    -4651813.807 6  -3564156.77621
  23176442.184      202980.405 5    133504.43121
  20540130.746    -1491842.854 6  -1152381.48223
  21463986.7234  -14421316.30746 -11096239.62061
 91  4 23 21 47 29.9960000  0  6G18G 2G11G16G19G 6
  23006836.0124   11894856.31445   9260553.25661
  20065332.9654  -17835816.21447 -13809987.48364
  22581289.496    -4633533.463 6  -3549912.37421
  23178157.5434     211991.87045    140526.20361
  20541671.676    -1483737.653 6  -1146065.76523
  21455870.2544  -14463965.15446 -11129472.42161
 91  4 23 21 47 44.9960000  0  6G18G 2G11G16G19G 6
  23014818.535    11936801.449 5   9293237.54321
  20060073.9264  -17863446.26047 -13831517.35564
  22584796.8404   -4615112.29546  -3535558.24961
  23179890.981      221110.406 5    147631.42821
  20543228.488    -1475551.662 6  -1139687.09523
  21447761.973   -14506585.617 6 -11162683.09821
 91  4 23 21 47 59.9960000  0  6G18G 2G11G16G19G 6
  23022808.5354   11978783.80945   9325950.86861
  20054832.5434  -17890991.58147 -13852981.20264
  22588326.832    -4596555.693 6  -3521098.58521
  23181644.723      230330.770 5    154816.00821
  20544799.957    -1467289.992 6  -1133249.44723
  21439654.0904  -14549182.86846 -11195875.69861
 91  4 23 21 48 14.9960000  0  6G18G 2G11G16G19G 6
  23030802.3564   12020803.31445   9358693.13261
  20049607.0984  -17918452.09647 -13874378.96464
  22591883.4414   -4577863.91046  -3506533.58761
  23183419.2464     239652.76745    162079.78461
  20546387.723    -1458952.562 6  -1126752.77023
  21431554.8874  -14591756.54746 -11229049.93361
 91  4 23 21 48 29.9960000  0  6G18G 2G11G16G19G 6
  23038805.4024   12062863.77945   9391467.28261
  20044398.4574  -17945823.96747 -13895707.65464
  22595466.9734   -4559033.09446  -3491860.25161
  23185217.059      249080.140 5    169425.66421
  20547987.293    -1450535.276 6  -1120193.86523
  21423456.8714  -14634302.61546 -11262202.64361
 91  4 23 21 48 44.9960000  0  5G18G 2G11G19G 6
  23046816.770    12104966.626 5   9424274.42221
  20039207.7314  -17973105.44047 -13916965.90664
  22599077.8484   -4540061.76946  -3477077.42961
  20549607.645    -1442036.402 6  -1113571.38623
  21415365.996   -14676819.284 6 -11295332.45921
 91  4 23 21 48 59.9960000  0  5G18G 2G11G19G 6
  23054835.9184   12147102.36145   9457107.22961
  20034031.0434  -18000305.59947 -13938160.79763
  22602711.5904   -4520959.52046  -3462192.60161
  20551238.488    -1433465.001 6  -1106892.39723
  21407279.1454  -14719315.62046 -11328446.43161
 91  4 23 21 49 14.9960000  0  5G18G 2G11G19G 6
  23062863.4884   12189273.35945   9489967.50461
  20028871.4884  -18027421.94047 -13959290.37564
  22606374.3634   -4501723.86446  -3447203.81461
  20552883.559    -1424818.292 6  -1100154.72623
  21399197.8874  -14761788.85446 -11361542.40561
 91  4 23 21 49 29.9960000  0  5G18G 2G11G19G 6
  23070894.3324   12231481.59545   9522856.79261
  20023726.7464  -18054452.27947 -13980352.94663
  22610060.238    -4482352.953 6  -3432109.61921
  20554542.168    -1416093.931 6  -1093356.54423
  21391120.0274  -14804236.74246 -11394618.62561
 91  4 23 21 49 44.9960000  0  5G18G 2G11G19G 6
  23078932.9264   12273721.91945   9555771.06361
  20018598.7234  -18081401.62847 -14001352.40263
  22613769.7624   -4462851.88646  -3416914.01161
  20556217.699    -1407296.737 6  -1086501.61223
  21383045.5354  -14846663.93846 -11427678.71861
 91  4 23 21 49 59.9960000  0  5G18G 2G11G19G 6
  23086976.879    12315993.548 5   9588709.72321
  20013486.0044  -18108270.50047 -14022289.15163
  22617506.4024   -4443221.46446  -3401617.61461
  20557902.371    -1398427.252 6  -1079590.33923
  21374974.7464  -14889071.01746 -11460723.13161
 91  4 23 21 50 14.9960000  0  5G18G 2G11G19G 6
  23095026.3794   12358296.19744   9621672.56661
  20008387.9734  -18135058.75747 -14043163.08263
  22621266.1524   -4423461.87746  -3386220.56261
  20559605.441    -1389485.448 6  -1072622.71723
  21366909.1134  -14931457.75746 -11493751.70261
 91  4 23 21 50 29.9960000  0  5G18G 2G11G19G 6
  23103082.4734   12400624.59545   9654655.50761
  20003304.9814  -18161771.44647 -14063978.12963
  22625049.652    -4403578.421 6  -3370726.97821
  20561320.027    -1380476.219 6  -1065602.55323
  21358846.4884  -14973829.03046 -11526768.21961
 91  4 23 21 50 44.9960000  0  5G18G 2G11G19G 6
  23111140.9884   12442981.69344   9687660.78261
  19998236.9574  -18188405.39347 -14084731.81763
  22628857.0984   -4383568.18146  -3355134.62361
  20563050.816    -1371396.142 6  -1058527.18823
  21350786.0204  -15016181.52746 -11559770.10561
 91  4 23 21 50 59.9960000  0  5G18G 2G11G19G 6
  23119207.0984   12485364.65945   9720686.23361
  19993183.2234  -18214963.20047 -14105426.17663
  22632688.0594   -4363433.91146  -3339445.60761
  20564789.262    -1362247.807 6  -1051398.63523
  21342730.0274  -15058517.68446 -11592759.25061
 91  4 23 21 51 14.9960000  0  5G18G 2G11G19G 6
  23127278.6604   12527776.37945   9753734.05961
  19988143.7154  -18241441.66847 -14126058.71363
  22636541.8794   -4343172.71746  -3323657.69161
  20566544.996    -1353028.070 6  -1044214.43823
  21334678.2314  -15100834.22846 -11625733.11361
 91  4 23 21 51 29.9960000  0  5G18G 2G11G19G 6
  23135353.8634   12570213.03845   9786801.35261
  19983119.2704  -18267844.73247 -14146632.49263
  22640424.785    -4322788.586 6  -3307773.98121
  20568310.379    -1343740.481 6  -1036977.38023
  21326628.488   -15143134.728 6 -11658694.48421
 91  4 23 21 51 44.9960000  0  5G18G 2G11G19G 6
  23143434.957    12612674.039 5   9819887.59021
  19978110.2314  -18294172.79047 -14167147.82863
  22644325.879    -4302282.164 6  -3291794.96921
  20570093.863    -1334385.029 6  -1029687.43623
  21318582.0824  -15185419.46646 -11691643.56861
 91  4 23 21 51 59.9960000  0  5G18G 2G11G19G 6
  23151518.5274   12655154.06245   9852988.64661
  19973113.3634  -18320430.51947 -14187608.36263
  22648249.465    -4281658.492 6  -3275724.59721
  20571884.106    -1324966.727 6  -1022348.52523
  21310538.6764  -15227693.17546 -11724584.05961
 91  4 23 21 52 14.9960000  0  5G18G 2G11G19G 6
  23159605.020    12697655.415 5   9886106.32821
  19968130.1914  -18346615.50147 -14208012.21263
  22652198.770    -4260915.173 6  -3259560.99721
  20573689.356    -1315483.071 6  -1014958.68123
  21302496.0594  -15269953.10346 -11757513.81561
 91  4 23 21 52 29.9960000  0  5G18G 2G11G19G 6
  23167698.613    12740181.035 5   9919242.92521
  19963162.2704  -18372724.94847 -14228357.20363
  22656169.301    -4240049.725 6  -3243302.22621
  20575506.434    -1305930.942 6  -1007515.48822
  21294458.2074  -15312196.31746 -11790430.54261
 91  4 23 21 52 44.9960000  0  5G18G 2G11G19G 6
  23175796.8404   12782726.58045   9952395.03061
  19958207.1914  -18398762.68247 -14248646.31563
  22660162.254    -4219066.125 6  -3226951.38621
  20577338.348    -1296314.141 6  -1000021.89723
  21286421.293   -15354426.491 6 -11823337.11721
 91  4 23 21 52 59.9960000  0  5G18G 2G11G19G 6
  23183897.4024   12825288.63644   9985560.00161
  19953264.7854  -18424731.81647 -14268881.97163
  22664175.168    -4197967.847 6  -3210511.18521
  20579180.238    -1286635.707 6   -992480.28323
  21278387.285   -15396646.623 6 -11856235.86621
 91  4 23 21 53 14.9960000  0  5G18G 2G11G19G 6
  23191999.441    12867872.739 5  10018742.12521
  19948337.6684  -18450626.46547 -14289059.59164
  22668213.668    -4176749.288 6  -3193977.26621
  20581034.715    -1276889.724 6   -984886.03123
  21270354.949   -15438850.682 6 -11889122.09921
 91  4 23 21 53 29.9960000  0  5G18G 2G11G19G 6
  23200107.2074   12910474.28245  10051937.85961
  19943422.1524  -18476451.23447 -14309182.75663
  22672273.691    -4155415.326 6  -3177353.42121
  20582899.7154   -1267080.64746   -977242.62163
  21262326.8634  -15481043.20846 -11921999.33361
 91  4 23 21 53 44.9960000  0  5G18G 2G11G19G 6
  23208216.9104   12953094.59945  10085148.25461
  19938522.5354  -18502204.64547 -14329250.31363
  22676356.215    -4133964.553 6  -3160638.54821
  20584780.441    -1257206.796 6   -969548.73323
  21254301.004   -15523222.437 6 -11954866.20421
 91  4 23 21 53 59.9960000  0  5G18G 2G11G19G 6
  23216329.723    12995729.686 5  10118370.13721
  19933634.9344  -18527890.17147 -14349264.97763
  22680458.395    -4112400.784 6  -3143835.64121
  20586670.340    -1247271.561 6   -961807.01523
  21246275.004   -15565391.669 6 -11987725.29621
 91  4 23 21 54 14.9960000  0  5G18G 2G11G19G 6
  23224446.8874   13038386.50945  10151608.97661
  19928761.4964  -18553500.73647 -14369221.22563
  22684585.2854   -4090717.29446  -3126939.42861
  20588574.1604   -1237267.93846   -954012.01463
  21238254.371   -15607543.833 6 -12020571.08221
 91  4 23 21 54 29.9960000  0  5G18G 2G11G19G 6
  23232566.6374   13081061.23345  10184861.73061
  19923901.6604  -18579040.07447 -14389121.97363
  22688733.527    -4068917.884 6  -3109952.89221
  20590491.6134   -1227199.38446   -946166.41063
  21230235.5904  -15649682.35646 -12053406.23961
 91  4 23 21 54 44.9960000  0  5G18G 2G11G19G 6
  23240691.895    13123753.792 4  10218128.38521
  19919054.2464  -18604508.12747 -14408967.17264
  22692903.8954   -4047002.67546  -3092876.13161
  20592417.7774   -1217065.70246   -938270.06463
  21222218.9654  -15691807.01846 -12086230.58861
 91  4 23 21 54 59.9960000  0  5G18G 2G11G19G 6
  23248817.9024   13166465.27643  10251409.77761
  19914222.1604  -18629903.50147 -14428755.73763
  22697096.207    -4024970.493 6  -3075708.21521
  20594360.606    -1206865.432 6   -930321.82523
  21214206.8794  -15733916.15046 -12119042.83262
 91  4 23 21 55 14.9960000  0  5G18G 2G11G19G 6
  23256951.449    13209194.247 4  10284704.84221
  19909402.9344  -18655227.24147 -14448488.48763
  22701310.637    -4002822.842 6  -3058450.32721
  20596312.7544   -1196599.68946   -922322.58162
  21206196.082   -15776010.928 6 -12151843.90521
 91  4 23 21 55 29.9960000  0  5G18G 2G11G19G 6
  23265084.9574   13251942.90444  10318015.25361
  19904597.9654  -18680476.92847 -14468163.52563
  22705548.582    -3980557.559 6  -3041100.77321
  20598278.2774   -1186265.92846   -914270.33063
  21198187.9024  -15818088.80346 -12184631.79962
 91  4 23 21 55 44.9960000  0  5G18G 2G11G19G 6
  23273222.715    13294703.627 4  10351335.00521
  19899805.9574  -18705659.77847 -14487786.49163
  22709807.238    -3958182.119 6  -3023665.38921
  20600257.9884   -1175871.33746   -906170.68563
  21190183.2704  -15860156.88046 -12217412.05261
 91  4 23 21 55 59.9960000  0  5G18G 2G11G19G 6
  23281365.7464   13337481.97245  10384668.53061
  19895028.3164  -18730770.19347 -14507353.00863
  22714084.3484   -3935691.10046  -3006139.94461
  20602249.9814   -1165410.02946   -898019.05362
  21182180.7384  -15902209.23546 -12250180.06561
 91  4 23 21 56 14.9960000  0  5G18G 2G11G19G 6
  23289510.191    13380281.929 5  10418018.88921
  19890264.5904  -18755804.05447 -14526859.87963
  22718387.3244   -3913080.63646  -2988521.42761
  20604252.7934   -1154877.79346   -889812.15763
  21174182.9494  -15944241.58946 -12282932.49261
 91  4 23 21 56 29.9960000  0  4G 2G11G19G 6
  19885514.1454  -18780765.18747 -14546310.08463
  22722712.691    -3890354.715 6  -2970812.95521
  20606271.8244   -1144278.43446   -881552.95063
  21166188.4964  -15986257.57146 -12315672.15961
 91  4 23 21 56 44.9960000  0  4G 2G11G19G 6
  19880778.0354  -18805652.12347 -14565702.47163
  22727060.387    -3867512.206 6  -2953013.62021
  20608298.9654   -1133610.49446   -873240.30063
  21158195.598   -16028255.654 6 -12348397.88721
 91  4 23 21 56 59.9960000  0  4G 2G11G19G 6
  19876055.0904  -18830468.89747 -14585040.18963
  22731428.8164   -3844557.36646  -2935126.76861
  20610338.7464   -1122877.74446   -864877.14963
  21150206.137   -16070239.604 6 -12381112.59421
 91  4 23 21 57 14.9960000  0  4G 2G11G19G 6
  19871347.3714  -18855209.73347 -14604318.73363
  22735818.223    -3821484.486 6  -2917147.93421
  20612398.4184   -1112074.07346   -856458.73763
  21142220.746   -16112203.331 6 -12413811.54621
 91  4 23 21 57 29.9960000  0  4G 2G11G19G 6
  19866652.676   -18879882.552 7 -14623544.28323
  22740230.7624   -3798301.88446  -2899083.60061
  20614464.2154   -1101207.52046   -847991.32863
  21134236.0904  -16154154.75746 -12446500.91161
 91  4 23 21 57 44.9960000  0  4G 2G11G19G 6
  19861972.1134  -18904479.72447 -14642710.87863
  22744664.7774   -3775002.24846  -2880928.07861
  20616547.5904   -1090270.48046   -839468.99363
  21126257.2544  -16196086.16646 -12479174.67361
 91  4 23 21 57 59.9960000  0  4G 2G11G19G 6
  19857306.0594  -18928998.13947 -14661816.10563
  22749121.7154   -3751582.55546  -2862678.99761
  20618641.0824   -1079259.68746   -830889.19063
  21118284.8954  -16237994.17146 -12511830.21261
 91  4 23 21 58 14.9960000  0  4G 2G11G19G 6
  19852653.5594  -18953443.10747 -14680864.10163
  22753599.3714   -3728048.40146  -2844340.73261
  20620750.4344   -1068180.17746   -822255.83263
  21110312.4654  -16279883.94746 -12544471.52961
 91  4 23 21 58 29.9960000  0  4G 2G11G19G 6
  19848015.6844  -18977818.51347 -14699857.88763
  22758097.9964   -3704404.07746  -2825916.61461
  20622869.1684   -1057035.88546   -813572.00663
  21102342.4414  -16321759.24746 -12577101.57561
 91  4 23 21 58 44.9960000  0  4G 2G11G19G 6
  19843390.6524  -19002120.87547 -14718794.75763
  22762617.5904   -3680646.25846  -2807404.06961
  20625004.8954   -1045823.16346   -804834.85563
  21094377.5904  -16363616.32846 -12609717.42761
 91  4 23 21 58 59.9960000  0  4G 2G11G19G 6
  19838781.410   -19026345.775 7 -14737671.25923
  22767161.9884   -3656770.89246  -2788799.92161
  20627150.2854   -1034537.46946   -796040.84363
  21086417.9414  -16405450.79546 -12642315.64962
 91  4 23 21 59 14.9960000  0  4G 2G11G19G 6
  19834185.4884  -19050495.29847 -14756489.03363
  22771728.637    -3632780.219 6  -2770105.93121
  20629314.8634   -1023180.88946   -787191.59162
  21078461.0044  -16447264.38546 -12674897.60461
 91  4 23 21 59 29.9960000  0  4G 2G11G19G 6
  19829604.8484  -19074566.17047 -14775245.51663
  22776317.543    -3608671.241 6  -2751319.74621
  20631488.1684   -1011750.02646   -778284.46562
  21070507.6994  -16489053.61046 -12707460.57562
 91  4 23 21 59 44.9960000  0  4G 2G11G19G 6
  19825038.0514  -19098563.36147 -14793944.58563
  22780926.4264   -3584449.16546  -2732445.43961
  20633677.6684   -1000249.82146   -769323.30662
  21062558.8874  -16530823.49946 -12740008.48062
 91  4 23 21 59 59.9960000  0  4G 2G11G19G 6
  19820486.7854  -19122485.26647 -14812584.99863
  22785558.0744   -3560112.54346  -2713481.87261
  20635877.9814    -988678.33846   -760306.59862
  21054613.3714  -16572572.17546 -12772539.85462
 91  4 23 22  0 14.9960000  0  4G 2G11G19G 6
  19815947.2934  -19146334.47347 -14831168.75963
  22790208.7704   -3535664.29446  -2694431.32761
  20638092.0044    -977038.31046   -751236.48562
  21046674.910   -16614301.926 6 -12805056.48822
 91  4 23 22  0 29.9960000  0  4G 2G11G19G 6
  19811424.6134  -19170104.60147 -14849690.90163
  22794884.8094   -3511098.19746  -2675288.95361
  20640321.9024    -965323.04146   -742107.73862
  21038737.691   -16656006.151 6 -12837553.23222
 91  4 23 22  0 44.9960000  0  4G 2G11G19G 6
  19806916.6994  -19193792.89747 -14868149.28063
  22799582.035    -3486411.802 6  -2656052.84821
  20642566.2074    -953529.69946   -732918.15762
  21030807.051   -16697682.116 6 -12870027.95621
 91  4 23 22  0 59.9960000  0  4G 2G11G19G 6
  19802422.0984  -19217410.50247 -14886552.57563
  22804299.254    -3461616.557 6  -2636731.92721
  20644822.4414    -941669.31046   -723676.32562
  21022879.043   -16739340.748 6 -12902489.17621
 91  4 23 22  1 14.9960000  0  4G 2G11G19G 6
  19797941.9964  -19240952.34747 -14904896.83763
  22809041.762    -3436707.670 6  -2617322.45021
  20647093.1914    -929736.71346   -714378.23062
  21014956.824   -16780976.701 6 -12934932.72821
 91  4 23 22  1 29.9960000  0  4G 2G11G19G 6
  19793477.6134  -19264414.82047 -14923179.24763
  22813803.3094   -3411681.73146  -2597821.76161
  20649381.1454    -917728.33446   -705021.08462
  21007037.481   -16822586.324 6 -12967355.75521
 91  4 23 22  1 44.9960000  0  4G 2G11G19G 6
  19789028.2704  -19287801.28847 -14941402.43563
  22818588.1994   -3386542.24546  -2578232.59261
  20651676.9884    -905647.34446   -695607.36062
  20999123.676   -16864172.615 6 -12999760.60922
 91  4 23 22  1 59.9960000  0  4G 2G11G19G 6
  19784591.7774  -19311110.62547 -14959565.52163
  22823393.231    -3361288.415 6  -2558554.33421
  20653990.7934    -893492.63646   -686136.19162
  20991214.926   -16905734.319 6 -13032146.30322
 91  4 23 22  2 14.9960000  0  4G 2G11G19G 6
  19780170.4734  -19334346.97947 -14977671.74163
  22828220.0824   -3335924.64246  -2538790.38661
  20656315.3874    -881268.17346   -676610.67062
  20983311.887   -16947275.281 6 -13064515.83422
 91  4 23 22  2 29.9960000  0  4G 2G11G19G 6
  19775762.9264  -19357505.73647 -14995717.49763
  22833068.7624   -3310446.57946  -2518937.38361
  20658657.3794    -868969.10246   -667027.01262
  20975411.840   -16988790.836 6 -13096865.56622
 91  4 23 22  2 44.9960000  0  4G 2G11G19G 6
  19771371.1214  -19380586.63647 -15013702.58363
  22837936.6374   -3284854.27146  -2498995.34461
  20661012.152     -856595.205 6   -657385.05622
  20967515.301   -17030280.741 6 -13129195.30922
 91  4 23 22  2 59.9960000  0  4G 2G11G19G 6
  19766994.1684  -19403588.07047 -15031625.74663
  22842827.3484   -3259146.30946  -2478963.20861
  20663381.2934    -844144.89946   -647683.55062
  20959626.121   -17071742.928 6 -13161503.45322
 91  4 23 22  3 14.9960000  0  4G 2G11G19G 6
  19762631.4734  -19426509.04247 -15049486.21263
  22847743.660    -3233322.062 6  -2458840.46421
  20665765.4024    -831617.13846   -637921.69962
  20951740.637   -17113176.426 6 -13193789.24022
 91  4 23 22  3 29.9960000  0  4G 2G11G19G 6
  19758283.7234  -19449357.24147 -15067289.97163
  22852678.6374   -3207389.35246  -2438633.17661
  20668163.5664    -819019.38046   -628105.30162
  20943860.309   -17154588.605 6 -13226058.42022
 91  4 23 22  3 44.9960000  0  4G 2G11G19G 6
  19753950.5904  -19472131.63447 -15085036.22063
  22857634.4574   -3181347.58446  -2418340.93361
  20670573.3564    -806350.45546   -618233.44262
  20935983.668   -17195978.253 6 -13258310.04022
 91  4 23 22  3 59.9960000  0  4G 2G11G19G 6
  19749630.7544  -19494829.61147 -15102722.92463
  22862612.231    -3155194.322 6  -2397961.80021
  20672997.6214    -793607.56746   -608303.95162
  20928112.012   -17237342.546 6 -13290541.91122
 91  4 23 22  4 14.9960000  0  4G 2G11G19G 6
  19745326.8954  -19517448.70947 -15120348.16863
  22867607.7544   -3128927.32445  -2377494.05361
  20675438.2314    -780788.16546   -598314.83462
  20920246.215   -17278678.873 6 -13322751.98822
 91  4 23 22  4 29.9960000  0  4G 2G11G19G 6
  19741036.7544  -19539993.63247 -15137915.61163
  22872628.496    -3102551.464 5  -2356941.46621
  20677892.0044    -767896.83446   -588269.67262
  20912384.035   -17319991.557 6 -13354943.63722
 91  4 23 22  4 44.9960000  0  4G 2G11G19G 6
  19736760.3954  -19562462.83947 -15155424.05463
  22877667.840    -3076065.584 5  -2336303.17321
  20680357.6374    -754932.06846   -578167.29062
  20904528.871   -17361279.080 6 -13387115.67822
 91  4 23 22  4 59.9960000  0  4G 2G11G19G 6
  19732499.4494  -19584855.90247 -15172873.16563
  22882727.1764   -3049469.71445  -2315579.15061
  20682840.2544    -741893.52746   -568007.42562
  20896676.207   -17402540.974 6 -13419267.75322
 91  4 23 22  5 14.9960000  0  4G 2G11G19G 6
  19728252.465   -19607177.053 7 -15190266.24423
  22887809.738    -3022768.192 5  -2294772.81221
  20685334.2934    -728785.15546   -557793.15062
  20888828.254   -17443781.130 6 -13451402.89222
 91  4 23 22  5 29.9960000  0  4G 2G11G19G 6
  19724018.3874  -19629423.00747 -15207600.72863
  22892910.848    -2995957.837 5  -2273881.68121
  20687845.4344    -715603.47346   -547521.74162
  20880986.129   -17484995.928 6 -13483518.26622
 91  4 23 22  5 44.9960000  0  4G 2G11G19G 6
  19719798.949   -19651595.323 7 -15224877.82923
  22898035.137    -2969040.673 5  -2252907.31021
  20690365.0274    -702350.06046   -537194.44262
  20873148.059   -17526186.948 6 -13515615.10922
 91  4 23 22  5 59.9960000  0  4G 2G11G19G 6
  19715593.8634  -19673692.77147 -15242096.58963
  22903176.1374   -2942015.82045  -2231849.02561
  20692900.8794    -689023.51646   -526810.16162
  20865313.5354  -17567352.59246 -13547692.17862
 91  4 23 22  6 14.9960000  0  4G 2G11G19G 6
  19711403.0434  -19695714.70447 -15259256.50963
  22908340.512    -2914882.591 5  -2210706.30021
  20695450.3484    -675622.90546   -516368.16462
  20857486.1064  -17608492.01046 -13579748.80862
 91  4 23 22  6 29.9960000  0  4G 2G11G19G 6
  19707227.1454  -19717660.47247 -15276357.08263
  22913524.957    -2887640.621 5  -2189478.82721
  20698013.6454    -662147.75446   -505868.08562
  20849661.9654  -17649604.46946 -13611784.43262
 91  4 23 22  6 44.9960000  0  4G 2G11G19G 6
  19703064.7384  -19739532.14547 -15293399.91863
  22918729.879    -2860292.353 5  -2168168.53421
  20700592.5124    -648600.14846   -495311.54762
  20841843.9344  -17690691.76146 -13643800.44562
 91  4 23 22  6 59.9960000  0  4G 2G11G19G 6
  19698916.887   -19761331.932 7 -15310386.73624
  22923953.035    -2832839.985 5  -2146777.13121
  20703186.2704    -634981.79846   -484699.88262
  20834027.6764  -17731755.70346 -13675798.26162
 91  4 23 22  7 14.9960000  0  4G 2G11G19G 6
  19694782.457   -19783057.744 7 -15327315.91623
  22929197.801    -2805282.017 5  -2125303.44421
  20705789.0664    -621290.77346   -474031.58562
  20826218.9414  -17772794.31646 -13707776.34762
 91  4 23 22  7 29.9960000  0  4G 2G11G19G 6
  19690663.3484  -19804707.98847 -15344186.20764
  22934461.6684   -2777617.25645  -2103746.52961
  20708411.3634    -607525.49446   -463305.42962
  20818413.8954  -17813805.82546 -13739733.30861
 91  4 23 22  7 44.9960000  0  4G 2G11G19G 6
  19686556.8954  -19826281.89947 -15360997.01964
  22939745.3484   -2749844.95145  -2082105.83561
  20711043.012     -593685.042 6   -452520.68922
  20810616.2154  -17854789.10446 -13771668.27462
 91  4 23 22  7 59.9960000  0  4G 2G11G19G 6
  19682465.9884  -19847782.04547 -15377750.35164
  22945050.793    -2721967.938 5  -2060383.54421
  20713691.0124    -579771.80546   -441679.24462
  20802822.2704  -17895746.49846 -13803583.06962
 91  4 23 22  8 14.9960000  0  4G 2G11G19G 6
  19678388.1684  -19869208.07647 -15394445.92964
  22950378.004    -2693986.282 5  -2038579.70621
  20716352.0124    -565785.37846   -430780.76162
  20795031.0434  -17936677.52646 -13835477.31562
 91  4 23 22  8 29.9960000  0  4G 2G11G19G 6
  19674325.4814  -19890555.83447 -15411080.51664
  22955723.4104   -2665896.10246  -2016691.28861
  20719031.1134    -551721.42746   -419821.86962
  20787249.4024  -17977577.95946 -13867347.72362
 91  4 23 22  8 44.9960000  0  4G 2G11G19G 6
  19670277.7774  -19911829.40347 -15427657.29364
  22961086.254    -2637701.631 5  -1994721.60121
  20721718.8244    -537584.05346   -408805.76762
  20779471.0124  -18018451.51446 -13899197.18162
 91  4 23 22  8 59.9960000  0  4G 2G11G19G 6
  19666245.4104  -19933021.55047 -15444170.62463
  22966472.887    -2609395.759 5  -1972665.12221
  20724429.6064    -523365.76046   -397726.61462
  20771699.0514  -18059290.75046 -13931019.90662
 91  4 23 22  9 14.9960000  0  4G 2G11G19G 6
  19662226.9344  -19954136.58647 -15460623.87163
  22971880.2854   -2580983.20645  -1950525.54261
  20727144.801     -509070.928 6   -386587.82422
  20763933.629   -18100099.795 6 -13962819.11122
 91  4 23 22  9 29.9960000  0  4G 2G11G19G 6
  19658222.606   -19975178.623 7 -15477020.24223
  22977306.9024   -2552468.42345  -1928306.27661
  20729879.2774    -494703.80846   -375392.69962
  20756173.6064  -18140882.72646 -13994597.95362
 91  4 23 22  9 44.9960000  0  4G 2G11G19G 6
  19654232.262   -19996146.733 7 -15493358.99923
  22982749.340    -2523850.692 5  -1906006.79221
  20732626.9574    -480263.21046   -364140.31862
  20748416.9414  -18181638.17146 -14026355.38362
 91  4 23 22  9 59.9960000  0  4G 2G11G19G 6
  19650256.7234  -20017037.84547 -15509637.76263
  22988218.3564   -2495127.10945  -1883624.83261
  20735388.3954    -465745.80346   -352828.08662
  20740668.0514  -18222362.87146 -14058088.85562
 91  4 23 22 10 14.9960000  0  4G 2G11G19G 6
  19646295.363   -20037853.813 7 -15525857.97123
  22993702.941    -2466299.982 5  -1861162.18121
  20738165.4264    -451153.39046   -341457.41062
  20732924.6604  -18263058.59046 -14089799.74062
 91  4 23 22 10 29.9960000  0  4G 2G11G19G 6
  19642348.9494  -20058597.99447 -15542022.24063
  22999207.277    -2437373.077 5  -1838621.79021
  20740956.2234    -436489.45646   -330031.00962
  20725183.6684  -18303728.56646 -14121490.56362
 91  4 23 22 10 44.9960000  0  4G 2G11G19G 6
  19638414.777   -20079267.045 7 -15558127.96523
  23004732.395    -2408343.097 5  -1816001.07921
  20743761.1524    -421750.21346   -318545.92662
  20717451.0984  -18344369.04546 -14153158.41062
 91  4 23 22 10 59.9960000  0  4G 2G11G19G 6
  19634495.4264  -20099866.04747 -15574179.10463
  23010275.473    -2379215.343 5  -1793304.17721
  20746579.7074    -406940.76846   -307006.13862
  20709721.5904  -18384984.91346 -14184807.07462
 91  4 23 22 11 14.9960000  0  4G 2G11G19G 6
  19630589.0594  -20120392.53747 -15590173.74063
  23015837.8564   -2349987.73645  -1770529.48261
  20749412.324     -392058.476 6   -295409.58822
  20701997.2154  -18425573.59346 -14216434.55462
 91  4 23 22 11 29.9960000  0  4G 2G11G19G 6
  19626697.1294  -20140844.08947 -15606109.98464
  23021417.356    -2320658.145 5  -1747675.30121
  20752259.004     -377100.911 6   -283754.38422
  20694279.7854  -18466132.35146 -14248038.72162
 91  4 23 22 11 44.9960000  0  4G 2G11G19G 6
  19622819.9344  -20161221.63447 -15621988.56063
  23027017.8094   -2291227.60245  -1724742.46261
  20755118.660     -362068.948 6   -272041.20822
  20686567.981   -18506661.820 6 -14279620.07222
 91  4 23 22 11 59.9960000  0  4G 2G11G19G 6
  19618956.8164  -20181523.44747 -15637808.12364
  23032637.746    -2261694.734 5  -1701729.88321
  20757994.527     -346960.803 6   -260268.67422
  20678860.965   -18547160.205 6 -14311177.19622
 91  4 23 22 12 14.9960000  0  4G 2G11G19G 6
  19615108.0824  -20201749.67647 -15653568.79564
  23038277.793    -2232059.988 5  -1678637.91621
  20760882.957     -331776.582 6   -248436.86222
  20671160.652   -18587627.439 6 -14342710.05622
 91  4 23 22 12 29.9960000  0  4G 2G11G19G 6
  19611273.8564  -20221897.30247 -15669268.21464
  23043937.691    -2202320.624 5  -1655464.43821
  20763787.5204    -316513.21346   -236543.36362
  20663465.871   -18628060.227 6 -14374216.07422
 91  4 23 22 12 44.9960000  0  4G 2G11G19G 6
  19607453.8794  -20241973.90947 -15684912.29464
  23049615.949    -2172484.367 5  -1632215.46121
  20766705.106     -301177.952 6   -224593.85122
  20655775.731   -18668465.810 6 -14405700.89022
 91  4 23 22 12 59.9960000  0  4G 2G11G19G 6
  19603646.6914  -20261978.27747 -15700500.08764
  23055312.434    -2142550.316 5  -1608890.26721
  20769636.699     -285769.494 6   -212587.30422
  20648093.106   -18708842.974 6 -14437163.56022
 91  4 23 22 13 14.9960000  0  4G 2G11G19G 6
  19599854.4184  -20281906.34547 -15716028.42563
  23061029.246    -2112514.806 5  -1585486.02321
  20772583.824     -270283.801 6   -200520.57122
  20640416.535   -18749187.413 6 -14468600.73022
 91  4 23 22 13 29.9960000  0  4G 2G11G19G 6
  19596076.6604  -20301756.62147 -15731496.14464
  23066762.949    -2082376.646 5  -1562001.79721
  20775546.793     -254719.398 6   -188392.51722
  20632746.1134  -18789497.26546 -14500010.94962
 91  4 23 22 13 44.9960000  0  4G 2G11G19G 6
  19592313.9494  -20321533.24347 -15746906.47163
  23072517.191    -2052140.284 5  -1538441.03721
  20778523.191     -239080.365 6   -176206.30122
  20625080.363   -18829776.650 6 -14531397.42722
 91  4 23 22 13 59.9960000  0  4G 2G11G19G 6
  19588563.3874  -20341236.66347 -15762259.75564
  23078287.824    -2021806.265 5  -1514804.18721
  20781514.473     -223366.931 6   -163962.11322
  20617422.691   -18870025.713 6 -14562760.28222
 91  4 23 22 14 14.9950000  0  4G 2G11G19G 6
  19584828.0154  -20360866.99247 -15777556.08463
  23084078.202    -1991378.282 5  -1491094.12121
  20784515.390     -207581.417 6   -151661.76022
  20609767.616   -18910242.959 6 -14594098.34022
 91  4 23 22 14 29.9950000  0  4G 2G11G19G 6
  19581106.4604  -20380425.78647 -15792796.67264
  23089888.1014   -1960851.48845  -1467307.04961
  20787534.2804    -191720.67346   -139302.78562
  20602120.757   -18950432.472 6 -14625414.79622
 91  4 23 22 14 44.9950000  0  4G 2G11G19G 6
  19577397.7964  -20399911.22447 -15807980.09763
  23095716.155    -1930227.799 5  -1443444.47721
  20790567.444     -175785.132 6   -126885.52822
  20594479.702   -18990590.845 6 -14656706.98622
 91  4 23 22 14 59.9950000  0  4G 2G11G19G 6
  19573704.8124  -20419321.59947 -15823105.03063
  23101560.741    -1899505.723 5  -1419505.24321
  20793613.9764    -159772.91746   -114408.51962
  20586842.562   -19030716.007 6 -14687973.29522
 91  4 23 22 15 14.9950000  0  4G 2G11G19G 6
  19570025.0234  -20438659.56847 -15838173.55064
  23107425.124    -1868688.300 5  -1395491.70721
  20796674.327     -143686.670 6   -101873.83022
  20579213.124   -19070810.544 6 -14719215.74322
 91  4 23 22 15 29.9950000  0  4G 2G11G19G 6
  19566359.4604  -20457922.57247 -15853183.65263
  23113306.7184   -1837773.31745  -1371402.16161
  20799752.5854    -127523.90346    -89279.50162
  20571589.030   -19110871.787 6 -14750432.24522
 91  4 23 22 15 44.9950000  0  4G 2G11G19G 6
  19562707.0544  -20477112.85647 -15868137.09363
  23119209.351    -1806763.119 5  -1347238.41721
  20802840.530     -111286.615 6    -76627.11822
  20563972.648   -19150901.590 6 -14781624.25222
 91  4 23 22 15 59.9950000  0  4G 2G11G19G 6
  19559069.3824  -20496231.26947 -15883034.52763
  23125131.015    -1775658.881 5  -1323001.38821
  20805945.241      -94975.573 6    -63917.26322
  20556359.796   -19190900.604 6 -14812792.27322
 91  4 23 22 16 14.9950000  0  4G 2G11G19G 6
  19555444.483   -20515279.804 7 -15897877.51624
  23131066.960    -1744462.802 5  -1298692.79721
  20809062.655      -78592.675 6    -51151.41922
  20548754.163   -19230870.614 6 -14843937.68822
 91  4 23 22 16 29.9950000  0  4G 2G11G19G 6
  19551833.265   -20534257.154 7 -15912665.03423
  23137018.812    -1713173.664 5  -1274311.70921
  20812195.194      -62136.468 6    -38328.44922
  20541154.616   -19270809.958 6 -14875059.21022
 91  4 23 22 16 44.9950000  0  4G 2G11G19G 6
  19548236.0384  -20553162.68047 -15927396.58263
  23142992.3824   -1681791.27445  -1249857.95561
  20815340.499      -45606.400 6    -25447.92722
  20533560.765   -19310717.842 6 -14906156.21722
 91  4 23 22 16 59.9950000  0  4G 2G11G19G 6
  19544650.8744  -20572000.22847 -15942075.16663
  23148979.687    -1650320.037 5  -1225334.95521
  20818501.874      -29006.159 6    -12512.72822
  20525971.194   -19350598.121 6 -14937231.71422
 91  4 23 22 17 14.9950000  0  4G 2G11G19G 6
  19541080.0074  -20590769.52947 -15956700.56763
  23154987.366    -1618759.827 5  -1200742.63821
  20821670.1084     -12335.35046       477.45662
  20518387.804   -19390449.992 6 -14968285.06922
 91  4 23 22 17 29.9950000  0  4G 2G11G19G 6
  19537521.0624  -20609469.22647 -15971271.73264
  23161008.3904   -1587109.43945  -1176080.04961
  20824857.2804       4407.43646     13523.73562
  20510808.351   -19430271.934 6 -14999315.10322
 91  4 23 22 17 44.9950000  0  4G 2G11G19G 6
  19533976.2024  -20628095.21847 -15985785.46163
  23167050.4444   -1555365.16345  -1151344.27761
  20828056.507       21226.489 6     26629.43722
  20503237.749   -19470059.595 6 -15030318.42122
 91  4 23 22 17 59.9950000  0  4G 2G11G19G 6
  19530444.2574  -20646652.52047 -16000245.66864
  23173106.2734   -1523532.35445  -1126539.52961
  20831274.210       38116.647 6     39790.55322
  20495674.265   -19509817.902 6 -15061298.87322
 91  4 23 22 18 14.9950000  0  4G 2G11G19G 6
  19526926.5854  -20665143.72347 -16014654.36964
  23179179.3824   -1491613.51845  -1101667.74861
  20834498.0304      55075.41246     53005.12862
  20488112.366   -19549549.057 7 -15092258.16622
 91  4 23 22 18 29.9950000  0  4G 2G11G19G 6
  19523420.9134  -20683563.61047 -16029007.50064
  23185272.390    -1459603.975 5  -1076725.29121
  20837740.398       72108.127 6     66277.32522
  20480557.358   -19589247.660 6 -15123192.09122
 91  4 23 22 18 44.9950000  0  4G 2G11G19G 6
  19519928.851   -20701916.738 7 -16043308.61324
  23191381.530    -1427508.629 5  -1051715.97721
  20840993.148       89210.328 6     79603.66622
  20473007.226   -19628918.100 6 -15154104.07222
 91  4 23 22 18 59.9950000  0  4G 2G11G19G 6
  19516448.773   -20720200.928 7 -16057556.00724
  23197504.5074   -1395325.52845  -1026638.27361
  20844263.460      106384.373 6     92985.99822
  20465464.944   -19668558.060 6 -15184992.30222
 91  4 23 22 19 14.9950000  0  4G 2G11G19G 6
  19512982.562   -20738418.646 7 -16071751.61124
  23203647.054    -1363057.417 5  -1001494.33821
  20847544.140      123627.791 6    106422.37822
  20457927.679   -19708169.681 6 -15215858.45122
 91  4 23 22 19 29.9950000  0  4G 2G11G19G 6
  19509529.108   -20756565.478 7 -16085891.97424
  23209802.562    -1330700.132 5   -976280.90521
  20850843.804      140945.062 6    119916.30822
  20450395.483   -19747748.171 6 -15246698.78722
 91  4 23 22 19 44.9950000  0  4G 2G11G19G 6
  19506088.773   -20774646.331 7 -16099980.92624
  23215977.921    -1298258.789 5   -951001.99421
  20854148.171      158331.358 6    133464.02422
  20442870.296   -19787298.298 6 -15277517.01722
 91  4 23 22 19 59.9950000  0  3G 2G19G 6
  19502658.749   -20792662.817 7 -16114019.72324
  20857473.210      175785.306 6    147064.45322
  20435349.179   -19826821.245 7 -15308314.07422
 91  4 23 22 20 14.9950000  0  3G 2G19G 6
  19499244.007   -20810611.656 7 -16128005.80724
  20860804.452      193310.144 6    160720.12222
  20427833.616   -19866313.684 7 -15339087.35122
 91  4 23 22 20 29.9950000  0  3G 2G19G 6
  19495841.015   -20828491.219 7 -16141937.91224
  20864154.616      210907.565 6    174432.35122
  20420323.632   -19905773.880 7 -15369835.50722
 91  4 23 22 20 44.9950000  0  3G 2G19G 6
  19492452.741   -20846301.253 7 -16155815.83424
  20867515.843      228578.013 6    188201.48222
  20412822.155   -19945201.088 7 -15400557.95522
 91  4 23 22 20 59.9950000  0  3G 2G19G 6
  19489075.226   -20864049.023 7 -16169645.24124
  20870895.382      246314.303 6    202021.91322
  20405323.476   -19984602.400 7 -15431260.22122
 91  4 23 22 21 14.9950000  0  3G 2G19G 6
  19485709.257   -20881733.234 7 -16183425.12024
  20874277.983      264117.692 6    215894.64722
  20397831.0934  -20023976.31547 -15461941.13962
 91  4 23 22 21 29.9950000  0  3G 2G19G 6
  19482357.358   -20899355.013 7 -16197156.35224
  20877683.9604     281987.14746    229818.85162
  20390343.249   -20063323.652 7 -15492601.34822
 91  4 23 22 21 44.9950000  0  3G 2G19G 6
  19479016.819   -20916910.885 7 -16210836.22624
  20881093.491      299926.341 6    243797.39122
  20382860.648   -20102640.646 7 -15523237.91422
 91  4 23 22 21 59.9950000  0  3G 2G19G 6
  19475688.413   -20934401.380 7 -16224465.15824
  20884519.226      317934.593 6    257829.74922
  20375385.218   -20141927.783 7 -15553851.21122
 91  4 23 22 22 14.9950000  0  3G 2G19G 6
  19472372.116   -20951824.714 7 -16238041.75924
  20887960.452      336013.605 6    271917.24722
  20367915.132   -20181183.264 7 -15584439.84922
 91  4 23 22 22 29.9950000  0  3G 2G19G 6
  19469069.874   -20969177.279 7 -16251563.21624
  20891415.546      354167.170 6    286062.83122
  20360452.265   -20220402.964 7 -15615000.60422
 91  4 23 22 22 44.9950000  0  3G 2G19G 6
  19465780.507   -20986465.469 7 -16265034.50624
  20894881.6014     372389.10346    300261.69862
  20352994.304   -20259592.938 7 -15645538.20122
 91  4 23 22 22 59.9950000  0  3G 2G19G 6
  19462503.608   -21003687.351 7 -16278454.13323
  20898364.843      390681.235 6    314515.25322
  20345541.046   -20298751.122 7 -15676051.02222
 91  4 23 22 23 14.9950000  0  3G 2G19G 6
  19459239.327   -21020839.380 7 -16291819.32823
  20901857.515      409047.326 6    328826.45422
  20338098.413   -20337873.694 7 -15706536.09122
 91  4 23 22 23 29.9950000  0  3G 2G19G 6
  19455986.741   -21037927.781 7 -16305134.94623
  20905366.4834     427481.45646    343190.66062
  20330658.726   -20376966.469 7 -15736997.94522
 91  4 23 22 23 44.9950000  0  3G 2G19G 6
  19452748.858   -21054946.020 7 -16318395.89323
  20908887.905      445990.065 6    357612.90822
  20323225.858   -20416022.741 7 -15767431.34822
 91  4 23 22 23 59.9950000  0  3G 2G19G 6
  19449523.483   -21071896.405 7 -16331603.96223
  20912424.640      464570.813 6    372091.36322
  20315799.437   -20455044.589 7 -15797837.93122
 91  4 23 22 24 14.9950000  0  3G 2G19G 6
  19446310.273   -21088776.004 7 -16344756.87623
  20915974.507      483226.729 6    386628.39922
  20308382.718   -20494028.920 7 -15828215.28022
 91  4 23 22 24 29.9950000  0  3G 2G19G 6
  19443112.398   -21105588.611 7 -16357857.58624
  20919537.398      501954.158 6    401221.14622
  20300969.327   -20532979.227 7 -15858566.12122
 91  4 23 22 24 44.9950000  0  3G 2G19G 6
  19439924.898   -21122335.969 7 -16370907.45324
  20923115.077      520751.608 6    415868.46922
  20293565.226   -20571896.831 7 -15888891.48122
 91  4 23 22 24 59.9950000  0  3G 2G19G 6
  19436750.944   -21139013.885 7 -16383903.20524
  20926707.421      539623.137 6    430573.49622
  20286164.679   -20610777.461 7 -15919188.02722
 91  4 23 22 25 14.9950000  0  3G 2G19G 6
  19433591.101   -21155623.978 7 -16396846.11024
  20930310.898      558567.230 6    445335.08522
  20278774.132   -20649622.501 7 -15949456.84122
 91  4 23 22 25 29.9950000  0  3G 2G19G 6
  19430441.491   -21172169.351 7 -16409738.58524
  20933928.437      577580.558 6    460150.60522
  20271388.663   -20688434.880 7 -15979700.20222
 91  4 23 22 25 44.9950000  0  3G 2G19G 6
  19427305.921   -21188650.865 7 -16422581.29924
  20937560.187      596662.419 6    475019.54922
  20264007.546   -20727215.131 7 -16009918.53322
 91  4 23 22 25 59.9950000  0  3G 2G19G 6
  19424181.913   -21205066.235 7 -16435372.47724
  20941204.655      615815.510 6    489943.98422
  20256635.405   -20765960.545 7 -16040109.71622
 91  4 23 22 26 14.9950000  0  3G 2G19G 6
  19421070.562   -21221416.310 7 -16448112.77224
  20944863.491      635038.848 6    504923.15622
  20249269.483   -20804671.834 7 -16070274.30722
 91  4 23 22 26 29.9950000  0  3G 2G19G 6
  19417970.608   -21237700.944 7 -16460802.07624
  20948535.921      654332.765 6    519957.32722
  20241908.976   -20843348.574 7 -16100411.98122
 91  4 23 22 26 44.9950000  0  3G 2G19G 6
  19414883.741   -21253924.481 7 -16473443.77524
  20952218.827      673692.831 6    535043.04322
  20234554.273   -20881995.006 7 -16130526.03422
 91  4 23 22 26 59.9950000  0  2G19G 6
  20955916.780      693120.881 6    550181.73522
  20227206.874   -20920609.109 7 -16160614.90222
 91  4 23 22 27 14.9950000  0  3G 2G19G 6
  19408745.0154         -0.08957
  20959626.0384     712617.70846    565374.01162
  20219864.546   -20959189.532 7 -16190677.52522
 91  4 23 22 27 29.9950000  0  3G 2G19G 6
  19405695.9994     -16029.57147
  20963349.819      732187.187 6    580622.90922
  20212529.819   -20997732.363 7 -16220710.85722
 91  4 23 22 27 44.9950000  0  3G 2G19G 6
  19402656.241      -31996.291 7        -0.09034
  20967088.1404     751824.73646    595924.84162
  20205202.694   -21036242.187 7 -16250718.46822
 91  4 23 22 27 59.9950000  0  3G 2G19G 6
  19399630.437      -47901.289 7    -12393.57524
  20970838.874      771529.518 6    611279.15921
  20197880.483   -21074719.849 7 -16280701.01722
 91  4 23 22 28 14.9950000  0  3G 2G19G 6
  19396616.194      -63739.944 7    -24735.36024
  20974600.6164     791306.19746    626689.50862
  20190565.0774  -21113160.30847 -16310654.58062
 91  4 23 22 28 29.9950000  0  3G 2G19G 6
  19393613.444      -79521.192 7    -37032.41424
  20978377.452      811145.787 6    642148.87321
  20183255.015   -21151572.169 7 -16340585.85422
 91  4 23 22 28 44.9950000  0  3G 2G19G 6
  19390621.718      -95239.158 7    -49280.15624
  20982164.9444     831054.27746    657661.92562
  20175953.226   -21189949.415 7 -16370490.15622
 91  4 23 22 28 59.9950000  0  3G 2G19G 6
  19387642.976     -110892.991 7    -61477.92124
  20985966.046      851032.627 6    673229.40822
  20168655.819   -21228290.990 7 -16400366.66922
 91  4 23 22 29 14.9950000  0  3G 2G19G 6
  19384675.718     -126487.551 7    -73629.50423
  20989780.390      871075.822 6    688847.43522
  20161364.905   -21266601.405 7 -16430218.89522
 91  4 23 22 29 29.9950000  0  3G 2G19G 6
  19381720.0544    -142017.40647    -85730.66463
  20993609.2654     891189.56546    704520.41062
  20154082.9134  -21304874.85547 -16460042.32062
 91  4 23 22 29 44.9950000  0  3G 2G19G 6
  19378776.796     -157489.862 7    -97787.09823
  20997446.194      911366.626 6    720242.75321
  20146805.9524  -21343118.59847 -16489842.59962
 91  4 23 22 29 59.9950000  0  3G 2G19G 6
  19375844.7024    -172896.69547   -109792.39763
  21001301.0934     931615.09546    736020.71162
  20139535.0544  -21381324.04747 -16519613.04162
 91  4 23 22 30 14.9950000  0  3G 2G19G 6
  19372923.773     -188242.529 7   -121750.16123
  21005165.4054     951930.57646    751850.90662
  20132270.8274  -21419495.50647 -16549356.99462
 91  4 23 22 30 29.9950000  0  3G 2G19G 6
  19370016.249     -203525.780 7   -133659.16623
  21009048.7264     972314.67546    767734.55261
  20125012.827   -21457631.222 7 -16579073.09422
 91  4 23 22 30 44.9950000  0  3G 2G19G 6
  19367119.858     -218746.801 8   -145519.67723
  21012938.624      992767.059 6    783671.42422
  20117763.273   -21495731.258 7 -16608761.39222
 91  4 23 22 30 59.9950000  0  3G 2G19G 6
  19364234.460     -233904.118 7   -157330.55023
  21016842.687     1013289.235 6    799662.66121
  20110520.452   -21533793.784 7 -16638420.46022
 91  4 23 22 31 14.9950000  0  3G 2G19G 6
  19361362.413     -248996.848 7   -169091.09523
  21020763.804     1033882.145 6    815709.04022
  20103284.5384  -21571817.84447 -16668049.56062
 91  4 23 22 31 29.9950000  0  3G 2G19G 6
  19358501.929     -264029.572 7   -180804.89521
  21024692.452     1054541.498 6    831807.16221
  20096054.8434  -21609807.58847 -16697651.92961
 91  4 23 22 31 44.9950000  0  3G 2G19G 6
  19355654.3904    -278995.80047   -192466.85464
  21028637.874     1075273.810 6    847962.16122
  20088833.4524  -21647756.10647 -16727222.16262
 91  4 23 22 31 59.9950000  0  4G15G 2G19G 6
  22804570.319          -0.84715
  19352818.132     -293897.408 7   -204078.47423
  21032599.882     1096077.207 6    864172.53021
  20081620.8664  -21685665.08647 -16756761.58962
 91  4 23 22 32 14.9950000  0  4G15G 2G19G 6
  22797521.249      -37058.598 5
  19349994.999     -308730.990 7   -215637.08424
  21036569.0544    1116955.00946    880440.88161
  20074413.8124  -21723531.11747 -16786267.55462
 91  4 23 22 32 29.9950000  0  5G15G 2G13G19G 6
  22790486.101      -74025.765 5        -0.01231
  19347185.194     -323501.074 7   -227146.21823
  22616145.8824         -0.43254
  21040560.8514    1137902.66146    896763.66861
  20067217.2804  -21761358.35647 -16815743.28962
 91  4 23 22 32 44.9950000  0  5G15G 2G13G19G 6
  22783465.562     -110906.043 5    -28737.70921
  19344385.788     -338211.950 7   -238609.21524
  22602436.8824     -72051.74944
  21044555.2184    1158916.02946    913137.66061
  20060024.5234  -21799150.69747 -16845191.82462
 91  4 23 22 32 59.9950000  0  5G15G 2G13G19G 6
  22776462.882     -147694.799 5    -57404.12021
  19341598.577     -352859.016 7   -250022.49223
  22588732.7104    -144072.07644
  21048566.9054    1179999.69246    929566.42961
  20052840.6404  -21836903.27547 -16874609.38162
 91  4 23 22 33 14.9950000  0  5G15G 2G13G19G 6
  22769482.202     -184387.159 5    -85995.37421
  19338825.054     -367437.883 7   -261382.62923
  22575032.9764    -216056.49543
  21052593.4214    1201158.11046    946053.43661
  20045665.2964  -21874611.53647 -16903992.40762
 91  4 23 22 33 29.9950000  0  5G15G 2G13G19G 6
  22762517.9214    -220986.37045
  19336062.6484    -381952.36747   -272692.60661
  22561338.7414    -288008.19744
  21056634.999     1222387.455 6    962595.71921
  20038497.351   -21912279.101 7 -16933343.72921
 91  4 23 22 33 44.9950000  0  5G15G 2G13G19G 6
  22755570.6014    -257491.50445
  19333312.7494    -396402.03547   -283952.07561
  22547654.6634    -359926.15945
  21060684.444     1243688.409 6    979193.78821
  20031336.7334  -21949905.17347 -16962662.71361
 91  4 23 22 33 59.9950000  0  5G15G 2G13G19G 6
  22748642.5694    -293907.53245
  19330574.452     -410792.209 7   -295165.17621
  22533973.0624    -431815.49244
  21064756.6634    1265055.50346    995843.40761
  20024183.7804  -21987494.83847 -16991953.32361
 91  4 23 22 34 14.9950000  0  5G15G 2G13G19G 6
  22741728.4914    -330229.64445
  19327847.5694    -425118.52547   -306328.51063
  22520298.6244    -503671.40243
  21068832.6324    1286493.26046   1012548.10361
  20017038.7184  -22025043.40247 -17021211.90862
 91  4 23 22 34 29.9950000  0  5G15G 2G13G19G 6
  22734834.8984    -366461.56245        -0.20171
  19325133.335     -439384.902 7   -317445.14224
  22506633.944     -575497.453 4
  21072923.0774    1307997.74546   1029304.77361
  20009900.7654  -22062554.66547 -17050441.42063
 91  4 23 22 34 44.9950000  0  5G15G 2G13G19G 6
  22727959.351     -402602.600 5    -28161.91721
  19322429.585     -453591.264 7   -328515.01223
  22492969.437     -647292.875 5
  21077031.304     1329569.201 6   1046113.63121
  20002769.7414  -22100028.07947 -17079641.44862
 91  4 23 22 34 59.9950000  0  5G15G 2G13G19G 6
  22721096.343     -438650.031 5    -56250.66021
  19319738.405     -467735.291 7   -339536.31124
  22479314.4134    -719054.88545        -0.30271
  21081148.366     1351209.893 6   1062976.45921
  19995645.679   -22137461.088 7 -17108809.98423
 91  4 23 22 35 14.9950000  0  5G15G 2G13G19G 6
  22714254.4134    -474603.38845    -84266.10661
  19317057.804     -481817.084 7   -350509.11824
  22465664.179     -790783.199 4    -55892.18821
  21085278.9444    1372919.82946   1079893.19761
  19988530.5854  -22174853.63647 -17137946.99263
 91  4 23 22 35 29.9950000  0  5G15G 2G13G19G 6
  22707429.0694    -510466.35244   -112211.13061
  19314389.515     -495840.571 7   -361436.48723
  22452018.0464    -862481.41943   -111760.51861
  21089422.4764    1394695.04446   1096860.85561
  19981420.9994  -22212209.47247 -17167055.40163
 91  4 23 22 35 44.9950000  0  5G15G 2G13G19G 6
  22700622.030     -546241.589 4   -140087.76521
  19311732.273     -509808.798 7   -372320.79724
  22438381.2884    -934151.96345   -167607.39261
  21093578.679     1416532.757 6   1113877.18321
  19974319.819   -22249531.066 7 -17196137.12123
 91  4 23 22 35 59.9950000  0  5G15G 2G13G19G 6
  22693833.398     -581925.797 5   -167893.49321
  19309085.327     -523718.978 7   -383159.87923
  22424748.163    -1005791.619 5   -223430.29821
  21097745.5624    1438435.78745   1130944.41561
  19967225.7734  -22286815.28747 -17225189.72563
 91  4 23 22 36 14.9950000  0  5G15G 2G13G19G 6
  22687061.374     -617517.125 5   -195626.84921
  19306448.960     -537569.599 7   -393952.54923
  22411121.9764   -1077398.49244   -279227.56161
  21101927.3584    1460405.46646   1148063.58161
  19960137.5464  -22324060.50447 -17254211.93262
 91  4 23 22 36 29.9950000  0  5G15G 2G13G19G 6
  22680304.648     -653019.591 5   -223290.94421
  19303823.632     -551364.836 7   -404702.06423
  22397496.812    -1148976.239 3   -335002.07221
  21106118.6484    1482437.67846   1165231.47561
  19953055.968   -22361270.667 7 -17283206.82423
 91  4 23 22 36 44.9950000  0  5G15G 2G13G19G 6
  22673567.077     -688427.177 5   -250881.12321
  19301210.991     -565099.059 7   -415404.03523
  22383885.187    -1220518.843 4   -390749.17021
  21110325.3824    1504537.95746   1182452.41561
  19945983.483   -22398440.115 7 -17312169.98622
 91  4 23 22 36 59.9950000  0  5G15G 2G13G19G 6
  22666844.3984    -723744.03245   -278400.60761
  19298607.257     -578777.012 7   -426062.15923
  22370277.8904   -1292030.51445   -446472.25861
  21114542.9684    1526701.78646   1199722.83361
  19938918.6244  -22435572.98847 -17341104.65062
 91  4 23 22 37 14.9950000  0  5G15G 2G13G19G 6
  22660142.796     -758968.036 5   -305847.75021
  19296015.765     -592397.202 7   -436675.28321
  22356675.8584   -1363509.30944
  21118773.616     1548930.818 5   1217044.12821
  19931858.6084  -22472667.56147 -17370009.47961
 91  4 23 22 37 29.9950000  0  5G15G 2G13G19G 6
  22653460.015     -794098.460 5   -333221.98721
  19293434.616     -605959.183 7   -447243.04022
  22343078.5074   -1434954.42943
  21123018.7494    1571225.46646   1234416.47461
  19924806.273   -22509723.104 7 -17398883.87822
 91  4 23 22 37 44.9950000  0  5G15G 2G13G19G 6
  22646791.5854    -829136.60345   -360524.29661
  19290864.468     -619464.548 7   -457766.68322
  22329489.8664   -1506366.90344
  21127270.7494    1593584.10746   1251838.76561
  19917762.280   -22546740.914 7 -17427728.87522
 91  4 23 22 37 59.9950000  0  5G15G 2G13G19G 6
  22640140.648     -864078.786 5   -387751.82021
  19288306.483     -632910.034 7   -468243.66921
  22315909.3664   -1577742.81645
  21131539.8194    1616010.19046   1269313.55361
  19910726.499   -22583717.420 7 -17456541.69621
 91  4 23 22 38 14.9950000  0  5G15G 2G13G19G 6
  22633509.4914    -898927.63645   -414906.66561
  19285758.444     -646298.588 7   -478676.29421
  22302332.0624   -1649084.71045
  21135817.491     1638500.612 5   1286838.46821
  19903696.812   -22620655.352 7 -17485324.45421
 91  4 23 22 38 29.9950000  0  5G15G 2G13G19G 6
  22626896.804     -933684.517 5   -441989.79021
  19283221.523     -659632.065 7   -489065.98723
  22288761.5854   -1720394.16443
  21140110.780     1661053.490 6   1304412.12621
  19896675.069   -22657556.311 7 -17514078.39922
 91  4 23 22 38 44.9950000  0  5G15G 2G13G19G 6
  22620294.4444    -968349.19745   -469001.11661
  19280694.483     -672910.469 7   -499412.77724
  22275197.3744   -1791670.84744
  21144411.9914    1683668.84545   1322034.40061
  19889660.6014  -22694420.26547 -17542803.51962
 91  4 23 22 38 59.9950000  0  5G15G 2G13G19G 6
  22613720.327    -1002915.581 5   -495935.84221
  19278179.140     -686128.241 7   -509712.31424
  22261641.585    -1862908.542 5
  21148732.804     1706352.438 6   1339709.85921
  19882653.499   -22731241.091 7 -17571495.03123
 91  4 23 22 39 14.9950000  0  5G15G 2G13G19G 6
  22607156.780    -1037392.002 5   -522800.46721
  19275673.499     -699294.048 7   -519971.36624
  22248090.390    -1934115.467 4        -0.23731
  21153059.351     1729095.723 6   1357431.82721
  19875652.468   -22768027.037 7 -17600159.36023
 91  4 23 22 39 29.9950000  0  5G15G 2G13G19G 6
  22600614.6484   -1071776.32745   -549593.34561
  19273179.483     -712406.261 7   -530188.65223
  22234541.6164   -2005289.44144    -55460.10661
  21157398.3824    1751900.35146   1375201.63661
  19868659.819   -22804776.270 7 -17628795.07823
 91  4 23 22 39 44.9950000  0  5G15G 2G13G19G 6
  22594087.1794   -1106065.56545   -576312.11061
  19270693.851     -725462.140 7   -540362.05123
  22221006.585    -2076427.443 4   -110891.95821
  21161748.7884    1774769.13646   1393021.36362
  19861674.546   -22841485.959 7 -17657399.98523
 91  4 23 22 39 59.9950000  0  5G15G 2G13G19G 6
  22587579.671    -1140260.930 5   -602957.75321
  19268220.312     -738463.503 8   -550492.97123
  22207478.132    -2147530.698 5   -166296.77921
  21166114.577     1797700.312 6   1410889.74521
  19854696.069   -22878157.391 7 -17685975.07723
 91  4 23 22 40 14.9950000  0  5G15G 2G13G19G 6
  22581091.452    -1174361.666 5   -629529.64321
  19265756.8584    -751409.79548   -560580.98264
  22193954.9764   -2218598.20245   -221673.72661
  21170490.046     1820694.424 6   1428807.20321
  19847725.007   -22914789.874 7 -17714519.82123
 91  4 23 22 40 29.9950000  0  5G15G 2G13G19G 6
  22574621.507    -1208369.247 5   -656028.94921
  19263302.7964    -764303.00948   -570627.63064
  22180437.358    -2289631.697 4   -277024.14221
  21174876.4994    1843749.42846   1446772.05661
  19840760.843   -22951385.179 7 -17743035.59423
 91  4 23 22 40 44.9950000  0  5G15G 2G13G19G 6
  22568167.890    -1242281.360 5   -682453.87721
  19260860.1554    -777141.13447   -580631.35264
  22166926.1484   -2360628.66944   -332346.08061
  21179275.983     1866867.283 6   1464785.89621
  19833805.366   -22987940.951 7 -17771520.56823
 91  4 23 22 40 59.9950000  0  5G15G 2G13G19G 6
  22561734.0624   -1276101.86545   -708807.40461
  19258426.1484    -789928.22747   -590595.31164
  22153421.905    -2431592.628 5   -387642.32421
  21183684.2574    1890043.92845   1482845.57461
  19826854.093   -23024461.217 7 -17799977.87123
 91  4 23 22 41 14.9950000  0  5G15G 2G13G19G 6
  22555318.1164   -1309825.45845   -735085.39961
  19256003.046     -802659.772 7   -600515.98124
  22139927.6554   -2502518.47245   -442908.86461
  21188110.3194    1913284.13446   1500954.72461
  19819912.601   -23060940.719 7 -17828403.41423
 91  4 23 22 41 29.9950000  0  5G15G 2G13G19G 6
  22548916.7104   -1343455.85445   -761290.79461
  19253590.124     -815339.636 7   -610396.38224
  22126437.9444   -2573409.64145   -498148.42261
  21192541.827     1936583.868 6   1519110.34321
  19812978.390   -23097383.335 7 -17856800.21523
 91  4 23 22 41 44.9950000  0  5G15G 2G13G19G 6
  22542532.9444   -1376992.22645   -787422.92561
  19251187.788     -827967.491 7   -620236.25624
  22112952.3984   -2644265.42045   -553360.32861
  21196986.6944    1959943.60546   1537312.62461
  19806050.7574  -23133788.33147 -17885167.70663
 91  4 23 22 41 59.9950000  0  5G15G 2G13G19G 6
  22536168.9134   -1410438.46345   -813484.78961
  19248793.749     -840547.734 7   -630039.02724
  22099474.9524   -2715089.68245   -608547.67161
  21201444.5624    1983359.12845   1555558.42761
  19799129.015   -23170159.728 7 -17913509.01023
 91  4 23 22 42 14.9950000  0  5G15G 2G13G19G 6
  22529820.398    -1443785.864 5   -839469.66821
  19246410.007     -853071.906 7   -639798.10524
  22086003.741    -2785873.526 5   -663703.55721
  21205912.390     2006838.752 6   1573854.18321
  19792215.819   -23206488.865 7 -17941817.38323
 91  4 23 22 42 29.9950000  0  5G15G 2G13G19G 6
  22523494.538    -1477033.199 5   -865376.55621
  19244038.5854    -865539.36748   -649513.00464
  22072541.5234   -2856616.01945   -718827.26061
  21210390.6554    2030383.19145   1592200.43761
  19785311.054   -23242774.876 7 -17970092.15323
 91  4 23 22 42 44.9950000  0  5G15G 2G13G19G 6
  22517183.577    -1510185.812 5   -891209.63121
  19241675.2574    -877955.53148   -659187.92564
  22059085.421    -2927322.140 5   -773922.60421
  21214882.858     2053986.994 6   1610592.91221
  19778413.843   -23279022.785 7 -17998337.23423
 91  4 23 22 42 59.9950000  0  5G15G 2G13G19G 6
  22510896.0624   -1543241.79045   -916967.40861
  19239322.9374    -890319.04748   -668821.82363
  22045637.726    -2997990.157 5   -828988.21821
  21219389.499     2077651.491 5   1629032.71321
  19771523.312   -23315231.082 7 -18026551.44923
 91  4 23 22 43 14.9950000  0  5G15G 2G13G19G 6
  22504623.460    -1576202.064 5   -942650.61521
  19236979.608     -902631.002 8   -678415.54323
  22032197.7964   -3068620.74445   -884024.66961
  21223901.7494    2101375.60346   1647518.99161
  19764640.2654  -23351400.59247 -18054735.44163
 91  4 23 22 43 29.9950000  0  5G15G 2G13G19G 6
  22498371.241    -1609060.658 5   -968254.61021
  19234647.648     -914885.925 8   -687964.81823
  22018765.085    -3139207.617 5   -939027.06121
  21228427.093     2125164.993 5   1666056.10021
  19757765.562   -23387525.473 7 -18082884.65323
 91  4 23 22 43 44.9950000  0  5G15G 2G13G19G 6
  22492138.6794   -1641820.75345   -993781.82161
  19232325.569     -927087.176 7   -697472.27323
  22005338.710    -3209753.682 5   -993997.68221
  21232968.999     2149016.156 6   1684641.29521
  19750899.2964  -23423608.82747 -18111001.51263
 91  4 23 22 43 59.9950000  0  5G15G 2G13G19G 6
  22485920.6324   -1674482.85645  -1019232.70161
  19230014.210     -939235.913 8   -706938.80323
  21991921.4374   -3280259.74845  -1048937.12361
  21237516.1014    2172928.10845   1703273.98661
  19744040.9214  -23459651.59047 -18139086.74763
 91  4 23 22 44 14.9950000  0  5G15G 2G13G19G 6
  22479726.601    -1707045.804 5  -1044606.31521
  19227712.343     -951331.454 8   -716363.88323
  21978514.366    -3350724.711 5  -1103844.52821
  21242080.444     2196901.576 6   1721954.48121
  19737189.6484  -23495652.63647 -18167139.47063
 91  4 23 22 44 29.9950000  0  5G15G 2G13G19G 6
  22473547.085    -1739510.545 5  -1069903.39221
  19225420.085     -963374.851 8   -725748.33323
  21965111.9134   -3421148.93845  -1158720.16761
  21246655.2574    2220935.51545   1740682.17461
  19730347.1554  -23531612.49447 -18195160.09663
 91  4 23 22 44 44.9950000  0  5G15G 2G13G19G 6
  22467388.374    -1771877.724 5  -1095124.46321
  19223138.898     -975367.247 8   -735093.04123
  21951716.9914   -3491533.47045  -1213564.90861
  21251236.913     2245028.657 6   1759455.96821
  19723510.9834  -23567532.53447 -18223149.70063
 91  4 23 22 44 59.9950000  0  5G15G 2G13G19G 6
  22461248.4914   -1804144.86745  -1120267.55161
  19220865.843     -987306.543 8   -744396.37223
  21938330.8514   -3561875.66245  -1268376.67561
  21255836.4294    2269183.29245   1778277.67361
  19716684.437   -23603410.249 7 -18251106.32023
 91  4 23 22 45 14.9950000  0  5G15G 2G13G19G 6
  22455124.429    -1836311.147 5  -1145332.06821
  19218604.741     -999192.160 8   -753657.87723
  21924955.523    -3632174.657 5  -1323154.78121
  21260445.4764    2293399.92246   1797147.72061
  19709864.6944  -23639244.51047 -18279029.08363
 91  4 23 22 45 29.9950000  0  5G15G 2G13G19G 6
  22449025.765    -1868378.201 5  -1170319.27921
  19216352.710    -1011026.143 8   -762879.14423
  21911583.3664   -3702431.88045  -1377900.32261
  21265061.8904    2317676.50845   1816064.47061
  19703053.2264  -23675037.29047 -18306919.52763
 91  4 23 22 45 44.9950000  0  5G15G 2G13G19G 6
  22442941.7264   -1900344.20545  -1195227.73161
  19214110.679    -1022807.226 7   -772059.19323
  21898222.812    -3772645.579 5  -1432611.96521
  21269694.2964    2342014.40946   1835028.93661
  19696251.0074  -23710787.01247 -18334776.41863
 91  4 23 22 45 59.9950000  0  5G15G 2G13G19G 6
  22436881.2264   -1932207.19845  -1220055.92361
  19211879.538    -1034533.715 7   -781196.69823
  21884868.6634   -3842813.67945  -1487288.02661
  21274337.358     2366415.220 5   1854042.53221
  19689455.8984  -23746491.61447 -18362598.15063
 91  4 23 22 46 14.9950000  0  5G15G 2G13G19G 6
  22430836.2024   -1963968.07245  -1244804.53661
  19209657.827    -1046206.835 7   -790292.61823
  21871525.358    -3912937.009 5  -1541929.21421
  21278994.7184    2390877.83646   1873104.16761
  19682670.7654  -23782152.02747 -18390385.44563
 91  4 23 22 46 29.9950000  0  5G15G 2G13G19G 6
  22424810.4294   -1995625.16545  -1269472.27761
  19207446.960    -1057825.360 7   -799345.99624
  21858189.4684   -3983013.87445  -1596534.25061
  21283660.8514    2415403.32145   1892214.93061
  19675892.2964  -23817766.94647 -18418137.29563
 91  4 23 22 46 44.9950000  0  5G15G 2G13G19G 6
  22418805.288    -2027181.200 5  -1294061.28521
  19205246.226    -1069392.089 7   -808359.01524
  21844863.608    -4053046.604 5  -1651104.88721
  21288340.5624    2439988.94346   1911372.41461
  19669124.4994  -23853338.82147 -18445855.60363
 91  4 23 22 46 59.9940000  0  5G15G 2G13G19G 6
  22412819.9794   -2058638.08345  -1318572.99561
  19203054.275    -1080910.696 7   -817334.53724
  21831545.1584   -4123034.42045  -1705640.50661
  21293022.588     2464628.704 5   1930572.16721
  19662363.2364  -23888869.30247 -18473541.65963
 91  4 23 22 47 14.9940000  0  5G15G 2G13G19G 6
  22406855.455    -2089993.271 5  -1343005.50521
  19200871.877    -1092376.563 7   -826268.96224
  21818234.1434   -4192979.91245  -1760143.10061
  21297726.7684    2489332.24646   1949821.60761
  19655609.8464  -23924356.55247 -18501194.03563
 91  4 23 22 47 29.9940000  0  5G15G 2G13G19G 6
  22400905.0104   -2121240.27645  -1367353.69661
  19198701.541    -1103784.877 8   -835158.54624
  21804931.861    -4262874.090 5  -1814605.77821
  21302440.229     2514101.707 5   1969122.40021
  19648866.5024  -23959794.14047 -18528807.70863
 91  4 23 22 47 44.9940000  0  5G15G 2G13G19G 6
  22394977.0724   -2152385.09745  -1391622.28861
  19196539.690    -1115141.769 7   -844008.05724
  21791642.3774   -4332722.75245  -1869032.99161
  21307166.768     2538930.814 6   1988469.65821
  19642131.3304  -23995187.84247 -18556387.17963
 91  4 23 22 47 59.9940000  0  5G15G 2G13G19G 6
  22389071.393    -2183428.580 5  -1415811.91021
  19194388.127    -1126448.493 7   -852818.47424
  21778357.783    -4402526.711 5  -1923425.37421
  21311899.658     2563818.462 5   2007862.59821
  19635404.5104  -24030538.55347 -18583933.15163
 91  4 23 22 48 14.9940000  0  5G15G 2G13G19G 6
  22383185.8154   -2214373.49045  -1439924.71961
  19192245.580    -1137708.408 7   -861592.41524
  21765083.041    -4472288.591 5  -1977784.94921
  21316650.6664    2588761.81346   2027298.80261
  19628684.3694  -24065849.08647 -18611447.81363
 91  4 23 22 48 29.9940000  0  5G15G 2G13G19G 6
  22377317.4404   -2245217.09345  -1463958.60161
  19190112.049    -1148919.231 7   -870328.10124
  21751814.5964   -4542005.65145  -2032109.60261
  21321405.5574    2613762.77045   2046780.10861
  19621972.4474  -24101117.11947 -18638929.36663
 91  4 23 22 48 44.9940000  0  5G15G 2G13G19G 6
  22371465.361    -2275957.440 5  -1487911.98821
  19187988.549    -1160078.934 7   -879023.95724
  21738557.8304   -4611675.72045  -2086397.64061
  21326175.830     2638823.350 5   2066307.65422
  19615270.1584  -24136340.45447 -18666376.08863
 91  4 23 22 48 59.9940000  0  5G15G 2G13G19G 6
  22365636.1044   -2306589.59345  -1511781.09961
  19185876.322    -1171182.969 8   -887676.43324
  21725308.994    -4681293.968 5  -2140645.31721
  21330957.3614    2663948.07745   2085885.30461
  19608577.072   -24171514.126 7 -18693784.12023
 91  4 23 22 49 14.9940000  0  5G15G 2G13G19G 6
  22359826.815    -2337115.287 5  -1535567.24521
  19183772.494    -1182233.675 8   -896287.35824
  21712070.252    -4750861.972 5  -2194853.85421
  21335750.1664    2689134.84745   2105511.29661
  19601893.4554  -24206640.21747 -18721155.07163
 91  4 23 22 49 29.9940000  0  5G15G 2G13G19G 6
  22354034.4004   -2367538.93545  -1559273.89161
  19181679.354    -1193235.579 8   -904860.25624
  21698841.9634   -4820383.88145  -2249026.44261
  21340552.565     2714378.698 5   2125181.72521
  19595215.6504  -24241723.03747 -18748492.29963
 91  4 23 22 49 44.9940000  0  5G15G 2G13G19G 6
  22348264.5804   -2397859.50145  -1582900.19161
  19179594.916    -1204188.052 8   -913394.63124
  21685621.619    -4889858.500 5  -2303162.17921
  21345367.6114    2739680.53945   2144897.35861
  19588548.6434  -24276761.62347 -18775795.05563
 91  4 23 22 49 59.9940000  0  5G15G 2G13G19G 6
  22342518.7054   -2428074.69545  -1606444.39361
  19177520.690    -1215089.117 8   -921888.94924
  21672409.7294   -4959283.53145  -2357259.32261
  21350194.854     2765042.259 5   2164659.69421
  19581889.5884  -24311753.70147 -18803061.57363
 91  4 23 22 50 14.9940000  0  5G15G 2G13G19G 6
  22336787.8154   -2458180.30045  -1629903.21161
  19175457.127    -1225935.204 8   -930340.42824
  21659207.9554   -5028654.73945  -2411314.49561
  21355033.2054    2790467.67545   2184471.54761
  19575240.4084  -24346695.16647 -18830288.65363
 91  4 23 22 50 29.9940000  0  5G15G 2G13G19G 6
  22331077.330    -2488180.559 5  -1653279.92621
  19173403.244    -1236730.870 8   -938752.61924
  21646017.4164   -5097976.29145  -2465331.01561
  21359882.7214    2815952.03145   2204329.49661
  19568600.9634  -24381590.40847 -18857479.71263
 91  4 23 22 50 44.9940000  0  5G15G 2G13G19G 6
  22325388.8854   -2518072.32845  -1676572.11861
  19171358.315    -1247473.313 8   -947123.33724
  21632834.166    -5167245.060 5  -2519306.37821
  21364742.2604    2841498.44445   2224235.65261
  19561969.8934  -24416436.33947 -18884632.34963
 91  4 23 22 50 59.9940000  0  5G15G 2G13G19G 6
  22319723.9164   -2547854.32245  -1699778.76761
  19169325.065    -1258161.554 8   -955451.82224
  21619662.6904   -5236459.72545  -2573239.58061
  21369618.0884    2867107.61645   2244190.75361
  19555348.3154  -24451231.62447 -18911745.52463
 91  4 23 22 51 14.9940000  0  5G15G 2G13G19G 6
  22314077.3694   -2577530.88345  -1722903.26061
  19167299.760    -1268799.978 8   -963741.48824
  21606502.057    -5305624.020 5  -2627133.53621
  21374498.4944    2892775.05145   2264191.32061
  19548734.9004  -24485980.51247 -18938822.54763
 91  4 23 22 51 29.9940000  0  5G15G 2G13G19G 6
  22308448.791    -2607097.379 5  -1745941.98121
  19165285.393    -1279384.880 8   -971989.45024
  21593349.315    -5374733.597 5  -2680984.86821
  21379400.299     2918504.749 5   2284240.31521
  19542132.9244  -24520678.64947 -18965860.02363
 91  4 23 22 51 44.9940000  0  5G15G 2G13G19G 6
  22302843.0574   -2636557.48145  -1768897.81361
  19163281.244    -1289919.900 8   -980198.54324
  21580207.9794   -5443791.98245  -2734796.32961
  21384303.6904    2944292.86945   2304334.86961
  19535537.9164  -24555329.74147 -18992860.83763
 91  4 23 22 51 59.9940000  0  5G15G 2G13G19G 6
  22297258.0024   -2665910.73545  -1791770.38861
  19161285.330    -1300404.722 8   -988368.52024
  21567076.5334   -5512798.37245  -2788567.24061
  21389224.1584    2970139.71645   2324475.21661
  19528954.4404  -24589933.10047 -19019824.46063
 91  4 23 22 52 14.9940000  0  5G15G 2G13G19G 6
  22291689.900    -2695157.088 5  -1814559.66321
  19159299.932    -1310839.994 8   -996499.88724
  21553955.580    -5581752.832 5  -2842297.69821
  21394152.5574    2996044.98845   2344661.01961
  19522378.6044  -24624489.01547 -19046751.11163
 91  4 23 22 52 29.9940000  0  5G15G 2G13G19G 6
  22286147.1194   -2724298.87645  -1837267.46261
  19157323.213    -1321228.195 7  -1004594.57624
  21540842.7054   -5650657.60645  -2895989.44361
  21399093.572     3022005.930 5   2364890.27521
  19515810.9244  -24658999.74047 -19073642.54564
 91  4 23 22 52 44.9940000  0  5G15G 2G13G19G 6
  22280619.4474   -2753329.95445  -1859889.00061
  19155356.2214   -1331563.46548  -1012648.02064
  21527739.9084   -5719506.41045  -2949637.56361
  21404044.1904    3048028.39845   2385167.43961
  19509253.6584  -24693459.01347 -19100493.89164
 91  4 23 22 52 59.9940000  0  5G15G 2G13G19G 6
  22275116.900    -2782253.727 5  -1882426.94121
  19153399.0024   -1341849.69047  -1020663.25164
  21514650.4324   -5788302.50145  -3003244.65561
  21409007.3384    3074108.59845   2405489.55361
  19502705.7834  -24727870.53747 -19127308.02764
 91  4 23 22 53 14.9940000  0  5G15G 2G13G19G 6
  22269634.8614   -2811069.14245  -1904880.41061
  19151451.4244   -1352086.24848  -1028639.78164
  21501569.979    -5857044.966 5  -3056809.92521
  21413982.736     3100247.107 5   2425857.18721
  19496166.3464  -24762233.31447 -19154084.18063
 91  4 23 22 53 29.9940000  0  5G15G 2G13G19G 6
  22264170.2214   -2839775.33045  -1927248.77461
  19149512.3614   -1362272.57048  -1036577.16864
  21488497.5964   -5925732.67645  -3110332.52261
  21418967.119     3126444.511 5   2446270.65121
  19489636.9714  -24796546.42847 -19180821.63663
 91  4 23 22 53 44.9940000  0  5G15G 2G13G19G 6
  22258731.4084   -2868372.20846  -1949531.95461
  19147583.2054   -1372408.70547  -1044475.44364
  21475436.3384   -5994365.39445  -3163812.28761
  21423962.4864    3152700.77545   2466729.97561
  19483116.7754  -24830809.75647 -19207520.30363
 91  4 23 22 53 59.9940000  0  5G15G 2G13G19G 6
  22253310.119    -2896857.379 6  -1971728.10921
  19145664.5334   -1382492.77747  -1052333.15364
  21462386.025    -6062940.588 5  -3217247.23821
  21428972.713     3179017.631 5   2487236.53221
  19476605.6904  -24865021.09347 -19234178.45363
 91  4 23 22 54 14.9940000  0  5G15G 2G13G19G 6
  22247909.4634   -2925228.56446  -1993835.42161
  19143755.4474   -1392522.60848  -1060148.59464
  21449347.7994   -6131455.80045  -3270635.41161
  21433989.3544    3205397.27945   2507792.01261
  19470106.9794  -24899177.80847 -19260794.04363
 91  4 23 22 54 29.9940000  0  5G15G 2G13G19G 6
  22242533.9004   -2953489.46245  -2015856.80361
  19141857.994    -1402502.041 8  -1067924.76324
  21436321.838    -6199914.516 5  -3323979.58221
  21439025.088     3231835.697 5   2528393.28821
  19463617.1114  -24933283.78647 -19287370.09464
 91  4 23 22 54 44.9940000  0  5G15G 2G13G19G 6
  22237175.010    -2981635.754 5  -2037788.89821
  19139968.2914   -1412427.40948  -1075658.80664
  21423306.674    -6268312.757 5  -3377276.62721
  21444064.9084    3258336.68045   2549043.32361
  19457136.7834  -24967334.94147 -19313903.42864
 91  4 23 22 54 59.9940000  0  5G15G 2G13G19G 6
  22231842.1044   -3009668.63145  -2059632.59561
  19138089.471    -1422300.246 8  -1083351.91524
  21410300.4634   -6336651.48745  -3430527.32561
  21449120.963     3284898.795 5   2569740.95421
  19450667.7524  -25001332.45347 -19340394.96364
 91  4 23 22 55 14.9940000  0  5G15G 2G13G19G 6
  22226528.041    -3037586.117 5  -2081386.40921
  19136221.5254   -1432118.91748  -1091002.81764
  21397307.166    -6404928.327 5  -3483729.77721
  21454187.0254    3311523.66545   2590487.54661
  19444208.7604  -25035274.26847 -19366843.09964
 91  4 23 22 55 29.9940000  0  5G15G 2G13G19G 6
  22221237.6114   -3065393.07345  -2103054.06961
  19134362.0184   -1441888.80248  -1098615.70664
  21384324.0254   -6473148.50745  -3536888.08461
  21459268.752     3338205.897 5   2611278.80521
  19437758.2054  -25069165.61547 -19393251.91063
 91  4 23 22 55 44.9940000  0  5G15G 2G13G19G 6
  22215968.8934   -3093086.60945  -2124633.36861
  19132512.393    -1451607.177 8  -1106188.45324
  21371354.721    -6541308.571 5  -3589999.53521
  21464353.697     3364948.180 5   2632116.85121
  19431319.2524  -25103003.26647 -19419618.87764
 91  4 23 22 55 59.9940000  0  5G15G 2G13G19G 6
  22210717.104    -3120670.619 5  -2146127.31321
  19130672.596    -1461278.245 8  -1113724.33624
  21358395.510    -6609412.481 5  -3643067.27621
  21469454.6664    3391746.33445   2652998.45761
  19424890.1504  -25136791.24647 -19445947.14264
 91  4 23 22 56 14.9940000  0  5G15G 2G13G19G 6
  22205491.330    -3148135.327 5  -2167528.27821
  19128843.275    -1470892.390 8  -1121215.86624
  21345447.1194   -6677450.05145  -3696083.27061
  21474564.8934    3418609.93645   2673931.00961
  19418471.1434  -25170519.64747 -19472228.98364
 91  4 23 22 56 29.9940000  0  5G15G 2G13G19G 6
  22200285.658    -3175490.654 5  -2188844.03921
  19127022.5184   -1480459.71848  -1128670.91564
  21332510.8544   -6745431.07245  -3749055.22361
  21479686.869     3445528.910 5   2694906.74221
  19412063.8934  -25204198.35547 -19498472.10164
 91  4 23 22 56 44.9940000  0  5G15G 2G13G19G 6
  22195100.549    -3202736.477 5  -2210074.47121
  19125211.205    -1489980.334 8  -1136089.56724
  21319584.5964   -6813355.47645  -3801983.05961
  21484819.3304    3472502.81445   2715925.31461
  19405663.5024  -25237827.19147 -19524676.36264
 91  4 23 22 56 59.9940000  0  5G15G 2G13G19G 6
  22189937.424    -3229864.785 5  -2231213.31521
  19123409.0884   -1499446.62048  -1143465.88064
  21306672.268    -6881215.018 5  -3854860.38321
  21489967.604     3499539.522 5   2736992.77221
  19399275.6434  -25271398.23047 -19550835.58064
 91  4 23 22 57 14.9940000  0  5G15G 2G13G19G 6
  22184799.221    -3256879.831 5  -2252263.92321
  19121616.893    -1508863.486 8  -1150803.68724
  21293770.9244   -6949014.00145  -3907690.49161
  21495119.2524    3526634.24445   2758105.41261
  19392896.9324  -25304915.91447 -19576953.22564
 91  4 23 22 57 29.9940000  0  5G15G 2G13G19G 6
  22179679.7054   -3283783.73945  -2273227.92261
  19119834.361    -1518233.556 8  -1158105.02724
  21280880.5104   -7016754.83545  -3960475.28261
  21500291.0024    3553784.26745   2779261.20561
  19386527.4404  -25338382.53347 -19603031.07564
 91  4 23 22 57 44.9940000  0  5G15G 2G13G19G 6
  22174580.830    -3310571.376 5  -2294101.30721
  19118060.963    -1527551.814 8  -1165365.98724
  21268000.947    -7084431.910 5  -4013210.42521
  21505464.7364    3580994.66845   2800463.99061
  19380170.9084  -25371792.82447 -19629065.03864
 91  4 23 22 57 59.9940000  0  5G15G 2G13G19G 6
  22169504.2444   -3337249.50545  -2314889.36261
  19116295.697    -1536825.437 8  -1172592.17324
  21255131.721    -7152052.000 5  -4065901.14821
  21510655.9324    3608258.12845   2821708.16861
  19373822.9324  -25405153.72347 -19655060.51564
 91  4 23 22 58 14.9940000  0  5G15G 2G13G19G 6
  22164451.705    -3363809.322 5  -2335585.26021
  19114542.494    -1546045.601 8  -1179776.70024
  21242276.041    -7219606.045 5  -4118540.43021
  21515852.6664    3635583.30345   2843000.41861
  19367485.0494  -25438456.12147 -19681010.40764
 91  4 23 22 58 29.9940000  0  5G15G 2G13G19G 6
  22159415.1584   -3390255.57645  -2356192.63861
  19112796.229    -1555217.305 8  -1186923.46624
  21229433.7524   -7287098.54145  -4171131.71861
  21521067.471     3662965.318 5   2864336.88721
  19361158.815   -25471704.833 7 -19706918.46724
 91  4 23 22 58 44.9940000  0  5G15G 2G13G19G 6
  22154407.8224   -3416589.97045  -2376712.86261
  19111060.619    -1564342.621 8  -1194034.08924
  21216601.2364   -7354530.95145  -4223676.19161
  21526284.111     3690402.105 5   2885716.14021
  19354840.7444  -25504901.31647 -19732785.82564
 91  4 23 22 58 59.9940000  0  5G15G 2G13G19G 6
  22149416.916    -3442809.443 5  -2397143.53721
  19109332.861    -1573418.841 8  -1201106.45724
  21203781.8854   -7421900.27646  -4276171.53261
  21531521.643     3717896.199 5   2907140.03721
  19348535.0964  -25538042.87647 -19758610.38464
 91  4 23 22 59 14.9940000  0  5G15G 2G13G19G 6
  22144452.5574   -3468907.60245  -2417479.66661
  19107615.244    -1582439.922 8  -1208135.85824
  21190974.455    -7489200.034 6  -4328612.65821
  21536764.088     3745453.688 5   2928613.26721
  19342239.7444  -25571123.19147 -19784387.22064
 91  4 23 22 59 29.9940000  0  5G15G 2G13G19G 6
  22139508.322    -3494884.186 5  -2437721.07921
  19105909.307    -1591405.793 7  -1215122.23524
  21178181.604    -7556429.619 5  -4380999.07321
  21542017.150     3773074.695 5   2950136.00621
  19335955.8614  -25604141.62747 -19810115.83563
 91  4 23 22 59 44.9940000  0  5G15G 2G13G19G 6
  22134586.5804   -3520743.79845  -2457871.32761
  19104212.619    -1600321.461 7  -1222069.49424
  21165401.8074   -7623593.56646  -4433334.36661
  21547285.5964    3800754.13945   2971704.32161
  19329682.5654  -25637102.98247 -19835799.97964
 91  4 23 22 59 59.9940000  0  5G15G 2G13G19G 6
  22129685.7444   -3546486.04245  -2477930.12761
  19102525.322    -1609186.814 7  -1228977.54324
  21152631.400    -7690691.407 5  -4485618.15921
  21552566.627     3828492.127 5   2993318.23921
  19323422.3224  -25670006.72147 -19861439.22764
 91  4 23 23  0 14.9940000  0  5G15G 2G13G19G 6
  22124809.8464   -3572108.48345  -2497895.58761
  19100848.650    -1617999.751 7  -1235844.75324
  21139875.4084   -7757720.78445  -4537848.59361
  21557856.7754    3856290.79545   3014979.43861
  19317171.3464  -25702850.59347 -19887031.82264
 91  4 23 23  0 29.9940000  0  5G15G 2G13G19G 6
  22119957.408    -3597613.956 5  -2517769.90921
  19099180.885    -1626763.424 7  -1242673.57324
  21127134.7364   -7824684.25845  -4590027.67361
  21563155.8694    3884146.88445   3036685.39861
  19310933.4714  -25735637.44047 -19912579.97464
 91  4 23 23  0 44.9940000  0  5G15G 2G13G19G 6
  22115124.854    -3623001.833 5  -2537552.59121
  19097522.8544   -1635477.50847  -1249463.75564
  21114403.354    -7891581.161 5  -4642154.88421
  21568464.018     3912060.723 5   3058436.30721
  19304705.2524  -25768366.65947 -19938083.22364
 91  4 23 23  0 59.9940000  0  5G15G 2G13G19G 6
  22110319.549    -3648270.575 5  -2557242.43621
  19095874.440    -1644140.756 7  -1256214.32624
  21101685.041    -7958409.777 5  -4694228.88221
  21573790.3694    3940033.46845   3080233.11161
  19298488.3694  -25801036.65947 -19963540.33163
 91  4 23 23  1 14.9940000  0  5G15G 2G13G19G 6
  22105533.283    -3673419.354 5  -2576838.79921
  19094235.182    -1652752.533 7  -1262924.78624
  21088982.0654   -8025168.91746  -4746248.77961
  21579123.9084    3968065.76345   3102076.41461
  19292282.7364  -25833646.53047 -19988950.58463
 91  4 23 23  1 29.9940000  0  5G15G 2G13G19G 6
  22100770.3224   -3698446.92545  -2596340.72061
  19092606.658    -1661312.035 7  -1269594.51624
  21076290.596    -8091857.688 6  -4798213.81621
  21584469.8694    3996158.49945   3123966.73361
  19286088.8154  -25866195.08747 -20014313.06463
 91  4 23 23  1 44.9940000  0  5G15G 2G13G19G 6
  22096029.0884   -3723352.50145  -2615747.59361
  19090988.2134   -1669818.63647  -1276223.02464
  21063615.010    -8158474.773 6  -4850122.97221
  21589829.0414    4024312.34145   3145904.66561
  19279907.1194  -25898681.48047 -20039627.10563
 91  4 23 23  1 59.9940000  0  5G15G 2G13G19G 6
  22091315.315    -3748136.385 5  -2635059.62121
  19089379.2684   -1678273.06947  -1282810.88464
  21050950.432    -8225020.476 6  -4901976.52721
  21595199.830     4052526.643 5   3167889.73221
  19273736.5184  -25931105.95747 -20064892.89963
 91  4 23 23  2 14.9940000  0  5G15G 2G13G19G 6
  22086620.346    -3772803.341 5  -2654280.54321
  19087779.5724   -1686680.09147  -1289361.80264
  21038301.002    -8291499.354 6  -4953778.02721
  21600578.0724    4080796.28745   3189917.93361
  19267576.8934  -25963473.17747 -20090114.06964
 91  4 23 23  2 29.9940000  0  5G15G 2G13G19G 6
  22081949.682    -3797351.659 5  -2673409.02321
  19086188.861    -1695038.447 8  -1295874.79924
  21025662.4084   -8357909.59145  -5005526.02361
  21605969.1354    4109122.46845   3211990.17461
  19261429.3934  -25995781.62647 -20115289.44163
 91  4 23 23  2 44.9940000  0  5G15G 2G13G19G 6
  22077301.9404   -3821771.90745  -2692437.69961
  19084608.994    -1703338.779 8  -1302342.56924
  21013039.768    -8424241.419 5  -5057212.92121
  21611371.6664    4137514.47945   3234113.67761
  19255293.3544  -26028021.56447 -20140411.43863
 91  4 23 23  2 59.9940000  0  5G15G 2G13G19G 6
  22072675.9554   -3846071.07645  -2711372.03061
  19083038.7604   -1711588.75048  -1308771.10964
  21000429.3544   -8490502.09745  -5108844.39861
  21616784.377     4165964.660 5   3256282.58621
  19249170.5964  -26060200.31947 -20165485.75863
 91  4 23 23  3 14.9940000  0  5G15G 2G13G19G 6
  22068076.854    -3870245.551 5  -2730209.21521
  19081479.385    -1719784.811 8  -1315157.63824
  20987836.135    -8556687.651 6  -5160417.32521
  21622209.1824    4194476.71145   3278499.65661
  19243059.5884  -26092314.02247 -20190509.39363
 91  4 23 23  3 29.9940000  0  5G15G 2G13G19G 6
  22063498.791    -3894300.800 5  -2748953.47721
  19079929.1354   -1727932.67048  -1321506.61264
  20975253.502    -8622803.173 6  -5211935.68121
  21627647.486     4223044.919 5   3300760.44421
  19236959.9324  -26124368.13247 -20215486.58963
 91  4 23 23  3 44.9940000  0  5G15G 2G13G19G 6
  22058944.049    -3918234.228 5  -2767602.82921
  19078388.3544   -1736029.87348  -1327816.10864
  20962686.205    -8688845.975 6  -5263397.38221
  21633094.900     4251671.544 5   3323066.83021
  19230870.8774  -26156359.90447 -20240415.21363
 91  4 23 23  3 59.9940000  0  5G15G 2G13G19G 6
  22054413.041    -3942045.375 5  -2786156.90521
  19076857.1194   -1744076.36348  -1334086.09564
  20950131.1744   -8754815.67945  -5314802.10961
  21638557.166     4280356.827 5   3345418.90321
  19224795.9084  -26188288.86947 -20265294.89663
 91  4 23 23  4 14.9940000  0  5G15G 2G13G19G 6
  22049905.057    -3965730.933 5  -2804613.10121
  19075336.3074   -1752069.23548  -1340314.29864
  20937592.650    -8820708.896 6  -5366147.25521
  21644023.2134    4309103.42245   3367818.72461
  19218731.3464  -26220152.02147 -20290123.29463
 91  4 23 23  4 29.9940000  0  5G15G 2G13G19G 6
  22045422.260    -3989291.941 5  -2822972.23521
  19073825.2294   -1760009.95248  -1346501.86664
  20925067.447    -8886526.815 5  -5417433.71821
  21649506.166     4337909.970 5   3390265.27621
  19212680.5104  -26251950.23547 -20314901.09763
 91  4 23 23  4 44.9940000  0  5G15G 2G13G19G 6
  22040963.213    -4012728.648 5  -2841234.53421
  19072324.3224   -1767898.87748  -1352649.07664
  20912557.275    -8952269.023 5  -5468661.17521
  21654997.791     4366775.914 5   3412758.09621
  19206643.2754  -26283683.73947 -20339628.47363
 91  4 23 23  4 59.9940000  0  5G15G 2G13G19G 6
  22036527.721    -4036037.772 5  -2859397.41221
  19070833.1974   -1775732.93948  -1358753.53164
  20900061.9944   -9017932.00146  -5519826.92561
  21660503.2134    4395704.56245   3435299.80461
  19200616.8224  -26315349.02647 -20364302.69463
 91  4 23 23  5 14.9940000  0  5G15G 2G13G19G 6
  22032114.104    -4059228.029 5  -2877467.67021
  19069350.9714   -1783520.89448  -1364822.06364
  20887580.7444   -9083524.39446  -5570937.65661
  21666016.1584    4424686.79745   3457883.26461
  19194602.2364  -26346954.67547 -20388930.44363
 91  4 23 23  5 29.9940000  0  5G15G 2G13G19G 6
  22027725.440    -4082290.830 5  -2895438.61321
  19067879.8464   -1791254.70447  -1370848.40364
  20875112.971    -9149037.715 6  -5621986.76621
  21671546.8614    4453730.62645   3480514.72961
  19188601.205   -26378492.369 7 -20413505.24423
 91  4 23 23  5 44.9940000  0  5G15G 2G13G19G 6
  22023361.111    -4105223.001 5  -2913307.78421
  19066417.9404   -1798931.52547  -1376830.33664
  20862663.463    -9214468.677 6  -5672971.71621
  21677084.065     4482838.811 5   3503196.30021
  19182613.385   -26409958.866 7 -20438024.57123
 91  4 23 23  5 59.9940000  0  5G15G 2G13G19G 6
  22019023.2054   -4128031.50745  -2931080.54561
  19064967.5334   -1806558.36547  -1382773.32164
  20850223.533    -9279823.950 6  -5723897.70121
  21682635.1974    4512004.46945   3525922.65761
  19176637.7444  -26441360.98247 -20462493.72563
 91  4 23 23  6 14.9940000  0  5G15G 2G13G19G 6
  22014701.0414   -4150712.59445  -2948754.06761
  19063526.0964   -1814131.73047  -1388674.63964
  20837803.104    -9345099.472 6  -5774761.50921
  21688195.783     4541231.012 5   3548696.50721
  19170675.2444  -26472694.83247 -20486909.68663
 91  4 23 23  6 29.9940000  0  5G15G 2G13G19G 6
  22010408.525    -4173268.103 5  -2966329.72221
  19062094.8154   -1821653.79947  -1394535.98964
  20825396.150    -9410296.879 6  -5825564.48121
  21693769.400     4570516.192 5   3571516.02821
  19164724.830   -26503962.411 7 -20511274.00923
 91  4 23 23  6 44.9940000  0  5G15G 2G13G19G 6
  22006144.4944   -4195697.28945  -2983806.94461
  19060673.0184   -1829123.99647  -1400356.91764
  20813003.775    -9475415.294 6  -5876305.90621
  21699352.135     4599860.686 5   3594381.72521
  19158786.9944  -26535162.81547 -20535585.98663
 91  4 23 23  6 59.9940000  0  5G15G 2G13G19G 6
  22001900.0964   -4218000.24445  -3001185.79361
  19059261.3074   -1836542.69447  -1406137.71564
  20800628.580    -9540454.788 6  -5926985.80721
  21704952.1824    4629263.99045   3617293.28461
  19152863.229   -26566296.071 7 -20559845.64023
 91  4 23 23  7 14.9940000  0  5G15G 2G13G19G 6
  21997678.2364   -4240175.50445  -3018465.17261
  19057859.1274   -1843908.88747  -1411877.60364
  20788265.3384   -9605413.87646  -5977603.06861
  21710555.1504    4658727.17345   3640251.52561
  19146953.252   -26597360.783 7 -20584051.89123
 91  4 23 23  7 29.9940000  0  5G15G 2G13G19G 6
  21993485.1194   -4262218.36945  -3035641.36561
  19056467.8304   -1851217.96247  -1417572.98464
  20775921.2684   -9670287.54646  -6028153.75861
  21716173.0804    4688254.76745   3663259.90461
  19141055.619   -26628352.022 7 -20608200.88423
 91  4 23 23  7 44.9940000  0  5G15G 2G13G19G 6
  21989316.080    -4284131.177 5  -3052716.22621
  19055087.7834   -1858472.34147  -1423225.74464
  20763591.111    -9735077.883 6  -6078639.54221
  21721804.0574    4717844.21445   3686316.48561
  19135171.400   -26659272.097 7 -20632294.43423
 91  4 23 23  7 59.9940000  0  5G15G 2G13G19G 6
  21985171.229    -4305918.670 5  -3069693.44721
  19053717.7914   -1865677.27347  -1428839.97864
  20751278.2444   -9799789.68546  -6129064.11961
  21727449.924     4747490.100 5   3709417.10021
  19129299.885   -26690125.756 7 -20656336.22623
 91  4 23 23  8 14.9940000  0  5G15G 2G13G19G 6
  21981049.8614   -4327583.95145  -3086575.41561
  19052354.4944   -1872836.06147  -1434418.24964
  20738977.0574   -9864425.88146  -6179429.77361
  21733098.7214    4777189.11945   3732559.07161
  19123440.525   -26720916.185 7 -20680328.74623
 91  4 23 23  8 29.9940000  0  5G15G 2G13G19G 6
  21976949.8544   -4349114.65345  -3103352.54961
  19051004.1194   -1879936.21547  -1439950.83564
  20726693.932    -9928973.784 6  -6229726.65821
  21738764.1274    4806953.46045   3755751.94261
  19117595.361   -26751630.618 7 -20704262.05223
 91  4 23 23  8 44.9940000  0  5G15G 2G13G19G 6
  21972875.424    -4370514.522 5  -3120027.71821
  19049663.2134   -1886982.10647  -1445441.13664
  20714427.1824   -9993437.38946  -6279957.83961
  21744437.580     4836778.965 5   3778992.45621
  19111764.674   -26782272.975 7 -20728139.18923
 91  4 23 23  8 59.9940000  0  5G15G 2G13G19G 6
  21968829.697    -4391785.628 5  -3136602.55021
  19048332.0184   -1893976.08547  -1450890.98164
  20702175.2444  -10057818.24246  -6330124.52961
  21750126.3304    4866663.40145   3802278.94161
  19105946.322   -26812845.449 7 -20751961.86723
 91  4 23 23  9 14.9940000  0  5G15G 2G13G19G 6
  21964807.346    -4412926.287 5  -3153075.75021
  19047012.0024   -1900916.81947  -1456299.34764
  20689941.5104  -10122114.62446  -6380225.42861
  21755823.6664    4896608.10045   3825612.38061
  19100142.666   -26843346.098 7 -20775728.58923
 91  4 23 23  9 29.9940000  0  5G15G 2G13G19G 6
  21960809.135    -4433939.789 5  -3169449.86321
  19045700.8614   -1907807.66947  -1461668.83764
  20677721.557   -10186329.644 6  -6430262.90721
  21761533.447     4926609.557 4   3848990.00921
  19094351.736   -26873778.065 7 -20799441.79323
 91  4 23 23  9 44.9940000  0  5G15G 2G13G19G 6
  21956833.1974   -4454825.00145  -3185724.00261
  19044398.1824   -1914647.84247  -1466998.84064
  20665517.768   -10250462.056 6  -6480236.01721
  21767248.588     4956668.623 4   3872412.48121
  19088574.471   -26904140.159 7 -20823100.55023
 91  4 23 23  9 59.9940000  0  5G15G 2G13G19G 6
  21952884.9244   -4475577.68245  -3201894.88961
  19043107.2214   -1921433.25747  -1472286.16664
  20653330.041   -10314507.338 6  -6530141.23621
  21772985.6664    4986789.05445   3895882.83261
  19082811.057   -26934428.307 7 -20846701.67923
 91  4 23 23 10 14.9940000  0  5G15G 2G13G19G 6
  21948958.736    -4496197.594 5  -3217962.30621
  19041826.7994   -1928163.77947  -1477530.72164
  20641159.6504  -10378465.04446  -6579978.22261
  21778726.5024    5016971.10245   3919401.26061
  19077061.291   -26964641.907 7 -20870244.71923
 91  4 23 23 10 29.9940000  0  5G15G 2G13G19G 6
  21945062.2684   -4516685.08045  -3233926.54061
  19040556.5884   -1934840.13947  -1482733.07564
  20629006.0184  -10442335.30846  -6629747.07561
  21784484.5254    5047213.90344   3942966.95861
  19071325.213   -26994781.402 7 -20893730.01423
 91  4 23 23 10 44.9940000  0  5G15G 2G13G19G 6
  21941186.346    -4537041.533 5  -3249788.67521
  19039295.0024   -1941463.73848  -1487894.31564
  20616866.971   -10506119.467 6  -6679448.82221
  21790247.494     5077515.723 4   3966578.61021
  19065604.354   -27024848.029 7 -20917158.53423
 91  4 23 23 10 59.9940000  0  5G15G 2G13G19G 6
  21937339.033    -4557265.790 5  -3265547.78121
  19038045.1434   -1948033.75947  -1493013.80864
  20604747.1664  -10569816.32346  -6729082.54561
  21796030.7134    5107877.49844   3990236.97361
  19059896.072   -27054840.684 7 -20940529.41123
 91  4 23 23 11 14.9940000  0  5G15G 2G13G19G 6
  21933517.0104   -4577357.80845  -3281203.86561
  19036804.5104   -1954550.55747  -1498091.82264
  20592641.072   -10633425.568 6  -6778648.02721
  21801817.0804    5138298.88845   4013941.83261
  19054202.088   -27084759.207 7 -20963842.51923
 91  4 23 23 11 29.9940000  0  5G15G 2G13G19G 6
  21929718.002    -4597315.973 5  -3296755.63321
  19035575.5254   -1961012.61547  -1503127.18364
  20580553.549   -10696945.128 6  -6828143.59021
  21807619.8774    5168781.51644   4037694.45461
  19048523.940   -27114601.827 7 -20987096.48923
 91  4 23 23 11 44.9940000  0  5G15G 2G13G19G 6
  21925946.0884   -4617143.86445  -3312205.90261
  19034356.1114   -1967423.61547  -1508122.75564
  20568481.815   -10760378.670 6  -6877572.15321
  21813423.1664    5199321.67144   4061491.87461
  19042860.018   -27144372.032 7 -21010294.02323
 91  4 23 23 11 59.9940000  0  5G15G 2G13G19G 6
  21922198.8854   -4636836.79545  -3327550.98961
  19033145.9714   -1973779.11147  -1513075.08264
  20556428.5494  -10823721.27446  -6926929.86261
  21819251.1584    5229923.28245   4085337.09461
  19037209.002   -27174065.007 7 -21033431.38623
 91  4 23 23 12 14.9940000  0  5G15G 2G13G19G 6
  21918474.7294   -4656397.86345  -3342793.34261
  19031945.7214   -1980082.56247  -1517986.84964
  20544392.4164  -10886975.83546  -6976218.93861
  21825087.6904    5260583.12745   4109227.73861
  19031573.033   -27203683.933 7 -21056511.04623
 91  4 23 23 12 29.9940000  0  5G15G 2G13G19G 6
  21914776.065    -4675826.917 5  -3357932.82121
  19030756.2444   -1986334.12348  -1522858.18964
  20532370.588   -10950142.138 6  -7025439.26621
  21830932.4474    5291301.04645   4133163.65861
  19025950.1584  -27233228.59847 -21079532.82863
 91  4 23 23 12 44.9940000  0  5G15G 2G13G19G 6
  21911106.4634   -4695122.22745  -3372968.09061
  19029577.057    -1992532.005 7  -1527687.69624
  20520367.8934  -11013218.21146  -7074589.28561
  21836786.010     5322078.769 4   4157146.20121
  19020342.1194  -27262696.97347 -21102495.16763
 91  4 23 23 12 59.9940000  0  5G15G 2G13G19G 6
  21907459.916    -4714283.700 5  -3387899.06221
  19028407.861    -1998676.566 7  -1532475.65324
  20508381.5574  -11076204.08246  -7123669.00561
  21842656.3464    5352915.62344   4181174.79361
  19014748.3614  -27292089.15547 -21125398.14063
 91  4 23 23 13 14.9940000  0  5G15G 2G13G19G 6
  21903838.3224   -4733310.95445  -3402725.45161
  19027249.674    -2004767.501 7  -1537221.82024
  20496412.900   -11139098.928 6  -7172677.80121
  21848536.7834    5383811.92645   4205249.70561
  19009170.533   -27321404.631 7 -21148241.34223
 91  4 23 23 13 29.9940000  0  5G15G 2G13G19G 6
  21900242.5184   -4752207.00545  -3417449.61061
  19026099.666    -2010807.900 7  -1541928.61524
  20484462.3544  -11201905.48746  -7221617.80661
  21854426.963     5414764.691 5   4229368.60221
  19003606.518   -27350645.998 7 -21171026.79823
 91  4 23 23 13 44.9940000  0  5G15G 2G13G19G 6
  21896671.229    -4770969.271 5  -3432069.50621
  19024960.6584   -2016795.70547  -1546594.42164
  20472525.9794  -11264621.25746  -7270487.08861
  21860327.8074    5445775.75945   4253532.92561
  18998056.611   -27379811.045 7 -21193752.78823
 91  4 23 23 13 59.9940000  0  5G15G 2G13G19G 6
  21893128.525    -4789601.556 5  -3446588.11821
  19023830.1194   -2022734.63547  -1551222.15164
  20460609.3694  -11327249.73046  -7319288.30961
  21866236.2684    5476841.35644   4277739.73661
  18992521.2364  -27408903.25547 -21216422.01663
 91  4 23 23 14 14.9940000  0  5G15G 2G13G19G 6
  21889607.8854   -4808098.39245  -3461001.18361
  19022710.5494   -2028619.84147  -1555808.01964
  20448707.8464  -11389785.27246  -7368017.15361
  21872161.4164    5507966.62845   4301993.10061
  18986999.2134  -27437917.13447 -21239030.20064
 91  4 23 23 14 29.9940000  0  5G15G 2G13G19G 6
  21886115.010    -4826459.796 5  -3475308.72321
  19021599.4404   -2034451.32047  -1560352.02164
  20436825.572   -11452227.850 6  -7416673.55821
  21878096.5884    5539151.11645   4326292.61561
  18981492.1584  -27466852.58747 -21261577.27164
 91  4 23 23 14 44.9940000  0  5G15G 2G13G19G 6
  21882646.057    -4844685.040 5  -3489510.16921
  19020500.2754   -2040228.54347  -1564853.74464
  20424962.275   -11514576.546 6  -7465256.78721
  21884041.4864    5570395.36345   4350638.67261
  18976001.229   -27495708.689 7 -21284062.52124
 91  4 23 23 14 59.9940000  0  5G15G 2G13G19G 6
  21879200.361    -4862776.377 5  -3503607.26321
  19019411.182    -2045953.982 7  -1569315.11124
  20413113.8464  -11576833.14746  -7513768.27061
  21889998.6274    5601696.78544   4375029.23461
  18970525.135   -27524487.706 7 -21306487.70423
 91  4 23 23 15 14.9940000  0  5G15G 2G13G19G 6
  21875783.893    -4880731.388 5  -3517598.13321
  19018332.486    -2051625.377 7  -1573734.36624
  20401284.6974  -11638995.13646  -7562206.03361
  21895967.525     5633057.532 5   4399465.99721
  18965063.033   -27553187.073 7 -21328850.82124
 91  4 23 23 15 29.9940000  0  5G15G 2G13G19G 6
  21872393.6274   -4898551.43445  -3531483.84061
  19017263.440    -2057244.432 7  -1578112.83524
  20389474.432   -11701063.930 6  -7610571.15621
  21901946.963     5664476.071 5   4423947.85021
  18959616.322   -27581808.092 7 -21351152.89124
 91  4 23 23 15 44.9940000  0  5G15G 2G13G19G 6
  21869028.4944   -4916238.34045  -3545265.79761
  19016203.721    -2062813.071 7  -1582452.02324
  20377678.6664  -11763041.04446  -7658864.86061
  21907937.2834    5695950.42745   4448473.25661
  18954184.6744  -27610352.49047 -21373395.24864
 91  4 23 23 15 59.9940000  0  5G15G 2G13G19G 6
  21865687.275    -4933789.955 5  -3558942.33921
  19015153.8934   -2068328.95248  -1586750.10264
  20365903.8854  -11824924.07346  -7707085.24261
  21913937.807     5727482.581 4   4473043.68721
  18948767.6354  -27638817.63747 -21395575.85964
 91  4 23 23 16 14.9940000  0  5G15G 2G13G19G 6
  21862375.166    -4951205.949 5  -3572513.18621
  19014114.1744   -2073792.11448  -1591007.10764
  20354145.7604  -11886712.49946  -7755231.91761
  21919946.275     5759072.435 4   4497658.98921
  18943367.2134  -27667203.42147 -21417694.62164
 91  4 23 23 16 29.9940000  0  5G15G 2G13G19G 6
  21859087.104    -4968486.892 5  -3585978.81021
  19013084.5414   -2079203.54848  -1595223.80664
  20342406.893   -11948406.832 6  -7803305.25121
  21925973.408     5790719.012 5   4522318.47821
  18937980.893   -27695510.370 7 -21439751.95924
 91  4 23 23 16 44.9940000  0  5G15G 2G13G19G 6
  21855823.9474   -4985636.74145  -3599342.27461
  19012064.0884   -2084567.17848  -1599403.25264
  20330683.244   -12010010.438 6  -7851307.92721
  21932000.900     5822418.235 5   4547019.03521
  18932607.9944  -27723742.14347 -21461750.71464
 91  4 23 23 16 59.9940000  0  5G15G 2G13G19G 6
  21852583.2294   -5002652.92445  -3612601.58561
  19011052.8074   -2089880.76248  -1603543.69564
  20318977.908   -12071521.010 6  -7899238.08721
  21938043.838     5854172.158 4   4571762.24021
  18927249.752   -27751896.236 7 -21483688.94224
 91  4 23 23 17 14.9940000  0  5G15G 2G13G19G 6
  21849368.752    -5019539.553 5  -3625759.95721
  19010051.010    -2095148.550 8  -1607648.45224
  20307289.8694  -12132942.38846  -7947098.74061
  21944095.3154    5885976.69244   4596544.89261
  18921907.1044  -27779976.64147 -21505569.75164
 91  4 23 23 17 29.9940000  0  5G15G 2G13G19G 6
  21846181.2214   -5036293.99245  -3638815.33761
  19009056.861    -2100368.396 8  -1611715.85424
  20295617.924   -12194271.725 6  -7994887.70521
  21950157.4634    5917834.10344   4621368.73561
  18916578.2834  -27807980.58547 -21527390.97664
 91  4 23 23 17 44.9940000  0  5G15G 2G13G19G 6
  21843022.0024   -5052910.56745  -3651763.27461
  19008073.580    -2105534.623 8  -1615741.47124
  20283968.135   -12255503.102 6  -8042600.29621
  21956230.635     5949749.699 4   4646237.88921
  18911265.6744  -27835902.29347 -21549148.12564
 91  4 23 23 17 59.9940000  0  5G15G 2G13G19G 6
  21839886.158    -5069386.052 5  -3664601.27321
  19007101.2524   -2110644.19448  -1619722.95364
  20272333.8544  -12316633.16646  -8090233.96261
  21962318.8614    5981726.58544   4671154.78961
  18905968.2524  -27863738.38647 -21570838.55664
 91  4 23 23 18 14.9940000  0  5G15G 2G13G19G 6
  21836776.7054   -5085729.59045  -3677336.44061
  19006139.2994   -2115706.41048  -1623667.53264
  20260719.9554  -12377670.69346  -8137795.51961
  21968410.2214    6013755.34144   4696112.11861
  18900685.346   -27891498.051 7 -21592469.43724
 91  4 23 23 18 29.9940000  0  5G15G 2G13G19G 6
  21833692.5024   -5101936.64145  -3689965.27561
  19005185.5804   -2120716.85648  -1627571.77464
  20249121.9554  -12438611.10846  -8185281.40161
  21974519.1904    6045840.33844   4721113.27061
  18895417.549   -27919176.400 7 -21614036.95724
 91  4 23 23 18 44.9940000  0  5G15G 2G13G19G 6
  21830633.408    -5118007.741 5  -3702488.16521
  19004240.8694   -2125676.31548  -1631436.28164
  20237544.6584  -12499454.81146  -8232691.92561
  21980633.4164    6077980.55144   4746157.47861
  18890166.924   -27946773.991 7 -21635541.54724
 91  4 23 23 18 59.9940000  0  5G15G 2G13G19G 6
  21827599.7604   -5133942.58945  -3714904.89661
  19003307.3384   -2130584.72747  -1635261.01064
  20225984.635   -12560201.626 6  -8280026.96121
  21986764.3074    6110175.94945   4771244.68361
  18884929.9474  -27974290.45147 -21656982.91464
 91  4 23 23 19 14.9940000  0  5G15G 2G13G19G 6
  21824591.6274   -5149736.96045  -3727212.18061
  19002382.7294   -2135438.06348  -1639042.82264
  20214442.807   -12620846.733 6  -8327282.73921
  21992900.0494    6142430.56245   4796378.02061
  18879708.8224  -28001721.42947 -21678357.67764
 91  4 23 23 19 29.9940000  0  5G15G 2G13G19G 6
  21821612.7444   -5165391.90245  -3739410.80361
  19001470.0724   -2140237.30748  -1642782.48764
  20202922.8074  -12681390.83746  -8374459.80761
  21999051.3304    6174743.17944   4821556.53861
  18874506.6044  -28029067.71847 -21699666.44164
 91  4 23 23 19 44.9930000  0  5G15G 2G13G19G 6
  21818662.341    -5180904.889 5  -3751498.80021
  19000568.1854   -2144980.76248  -1646478.68364
  20191419.825   -12741828.448 6  -8421553.91321
  22005209.903     6207113.072 4   4846779.64321
  18869318.3104  -28056325.76947 -21720906.45464
 91  4 23 23 19 59.9930000  0  5G15G 2G13G19G 6
  21815736.903    -5196278.152 5  -3763477.92821
  18999675.5994   -2149669.60248  -1650132.32464
  20179939.325   -12802167.623 6  -8468571.29121
  22011380.1534    6239543.97444   4872050.30661
  18864147.4824  -28083499.47947 -21742080.74463
 91  4 23 23 20 14.9930000  0  5G15G 2G13G19G 6
  21812835.192    -5211513.981 5  -3775349.96321
  18998792.6534   -2154307.15148  -1653745.99664
  20168476.1614  -12862407.50046  -8515511.30561
  22017560.9664    6272030.03844   4897363.99661
  18858993.466   -28110590.224 7 -21763190.40223
 91  4 23 23 20 29.9930000  0  5G15G 2G13G19G 6
  21809962.9274   -5226610.76445  -3787113.66561
  18997920.2004   -2158891.76748  -1657318.41864
  20157030.7944  -12922546.19446  -8562372.48361
  22023755.3574    6304572.63244   4922721.77861
  18853853.357   -28137596.278 7 -21784234.06223
 91  4 23 23 20 44.9930000  0  5G15G 2G13G19G 6
  21807117.2084   -5241569.51845  -3798769.80661
  18997057.3884   -2163424.42748  -1660850.35864
  20145606.6694  -12982584.31946  -8609155.27761
  22029952.3964    6337170.63843   4948122.70061
  18848731.099   -28164518.352 7 -21805212.28324
 91  4 23 23 20 59.9930000  0  5G15G 2G13G19G 6
  21804301.427    -5256386.679 5  -3810315.61721
  18996205.7084   -2167901.96548  -1664339.35264
  20134200.6144  -13042518.25746  -8655856.89661
  22036170.6304    6369827.12343   4973569.15461
  18843624.169   -28191352.881 7 -21826122.28224
 91  4 23 23 21 14.9930000  0  5G15G 2G13G19G 6
  21801508.7944   -5271062.54145  -3821751.28661
  18995364.0914   -2172324.67948  -1667785.62364
  20122816.8644  -13102348.01646  -8702477.33961
  22042395.3804    6402541.81844   4999060.96861
  18838534.685   -28218099.960 7 -21846964.13924
 91  4 23 23 21 29.9930000  0  5G15G 2G13G19G 6
  21798740.7084   -5285595.92245  -3833075.97061
  18994533.6774   -2176691.74248  -1671188.52564
  20111449.4114  -13162072.47246  -8749015.72261
  22048634.3334    6435315.71244   5024598.93161
  18833460.903   -28244758.187 7 -21867736.76424
 91  4 23 23 21 44.9930000  0  5G15G 2G13G19G 6
  21796003.1144   -5299995.73345  -3844296.54561
  18993711.7324   -2181012.23248  -1674555.14264
  20100104.1534  -13221700.15046  -8795478.69561
  22054882.2004    6468139.64945   5050175.89361
  18828403.7864  -28271336.48647 -21888447.10464
 91  4 23 23 21 59.9930000  0  5G15G 2G13G19G 6
  21793287.6224   -5314253.40545  -3855406.38961
  18992899.7474   -2185277.51148  -1677878.73764
  20088775.4424  -13281222.31046  -8841859.46761
  22061142.3174    6501021.86444   5075798.27061
  18823362.802   -28297825.991 7 -21909088.25623
 91  4 23 23 22 14.9930000  0  5G15G 2G13G19G 6
  21790599.622    -5328371.266 5  -3866407.29421
  18992097.9194   -2189489.89648  -1681161.12064
  20077470.575   -13340640.927 6  -8888159.53121
  22067406.849     6533959.867 4   5101464.10821
  18818338.208   -28324229.009 7 -21929662.02323
 91  4 23 23 22 29.9930000  0  5G15G 2G13G19G 6
  21787941.5754   -5342354.23045  -3877303.08061
  18991305.3724   -2193654.89248  -1684406.57164
  20066182.146   -13399960.716 6  -8934382.60221
  22073689.419     6566948.370 3   5127169.29821
  18813330.677   -28350550.271 7 -21950172.07923
 91  4 23 23 22 44.9930000  0  5G15G 2G13G19G 6
  21785305.6384   -5356196.11945  -3888088.92661
  18990522.3644   -2197766.20648  -1687610.19664
  20054913.3884  -13459175.29146  -8980523.68361
  22079974.7244    6599993.53144   5152918.61461
  18808337.6854  -28376783.36347 -21970613.43963
 91  4 23 23 22 59.9930000  0  5G15G 2G13G19G 6
  21782699.1464   -5369898.58745  -3898766.12861
  18989749.3104   -2201825.85348  -1690773.55664
  20043663.6304  -13518286.35946  -9026584.10961
  22086271.169     6633093.233 4   5178710.43221
  18803361.567   -28402929.993 7 -21990987.41624
 91  4 23 23 23 14.9930000  0  5G15G 2G13G19G 6
  21780118.724    -5383458.791 5  -3909332.47721
  18988988.1614   -2205831.19148  -1693894.59864
  20032435.286   -13577291.074 6  -9072561.67621
  22092581.435     6666249.840 4   5204546.61621
  18798403.567   -28428987.357 7 -22011291.83424
 91  4 23 23 23 29.9930000  0  5G15G 2G13G19G 6
  21777564.7554   -5396882.38845  -3919792.39561
  18988235.5604   -2209787.79548  -1696977.66764
  20021226.4584  -13636194.49646  -9118460.29861
  22098904.466     6699457.721 3   5230422.71821
  18793460.286   -28454960.647 7 -22031530.74824
 91  4 23 23 23 44.9930000  0  5G15G 2G13G19G 6
  21775039.435    -5410164.666 5  -3930142.17221
  18987493.2084   -2213691.03048  -1700019.15264
  20010038.435   -13694991.701 6  -9164276.17221
  22105227.5284    6732721.47443   5256342.37361
  18788535.161   -28480844.972 7 -22051700.33824
 91  4 23 23 23 59.9930000  0  5G15G 2G13G19G 6
  21772535.419    -5423309.923 5  -3940385.17221
  18986759.3884   -2217545.39048  -1703022.54764
  19998868.200   -13753687.034 6  -9210012.65621
  22111569.036     6766036.299 3   5282301.84121
  18783627.036   -28506644.641 7 -22071803.95824
 91  4 23 23 24 14.9930000  0  5G15G 2G13G19G 6
  21770059.7004   -5436316.87845  -3950520.43361
  18986034.5834   -2221350.02748  -1705987.20364
  19987718.544   -13812279.066 6  -9255668.65421
  22117918.146     6799403.113 4   5308301.82521
  18778733.083   -28532358.405 7 -22091840.64124
 91  4 23 23 24 29.9930000  0  5G15G 2G13G19G 6
  21767613.997    -5449183.268 5  -3960546.14521
  18985321.4664   -2225102.45248  -1708911.16964
  19976590.177   -13870764.943 6  -9301241.92421
  22124276.302     6832824.370 4   5334344.22721
  18773855.388   -28557983.507 7 -22111808.23723
 91  4 23 23 24 44.9930000  0  5G15G 2G13G19G 6
  21765188.7634   -5461911.82245  -3970464.47261
  18984616.3884   -2228805.65248  -1711796.77864
  19965479.232   -13929147.339 6  -9346734.57721
  22130648.5524    6866296.81044   5360426.49961
  18768995.442   -28583522.587 7 -22131708.80423
 91  4 23 23 24 59.9930000  0  5G15G 2G13G19G 6
  21762795.3254   -5474500.64445  -3980273.90961
  18983921.8724   -2232457.70148  -1714642.53364
  19954390.794   -13987424.091 6  -9392144.88121
  22137027.9034    6899822.37343   5386550.14361
  18764153.302   -28608973.646 7 -22151540.78223
 91  4 23 23 25 14.9930000  0  5G15G 2G13G19G 6
  21760423.9504   -5486953.23045  -3989977.18061
  18983234.9894   -2236062.58948  -1717451.53664
  19943318.6774  -14045598.72346  -9437475.64561
  22143418.5994    6933397.17344   5412712.17161
  18759326.817   -28634340.039 7 -22171306.78923
 91  4 23 23 25 29.9930000  0  5G15G 2G13G19G 6
  21758081.075    -5499266.136 5  -3999571.61421
  18982558.3644   -2239616.51248  -1720220.83164
  19932270.294   -14103667.427 6  -9482723.84121
  22149820.6384    6967024.61244   5438915.24561
  18754516.653   -28659617.988 7 -22191003.88024
 91  4 23 23 25 44.9930000  0  5G15G 2G13G19G 6
  21755766.153    -5511440.369 5  -4009057.98621
  18981891.5054   -2243121.00748  -1722951.60464
  19921239.3574  -14161630.81446  -9527889.99961
  22156226.341     7000703.122 4   5465158.11421
  18749722.919   -28684808.551 7 -22210632.87123
 91  4 23 23 25 59.9930000  0  5G15G 2G13G19G 6
  21753475.177    -5523472.350 5  -4018433.50521
  18981234.4664   -2246572.49048  -1725641.07164
  19910229.5524  -14219485.15446  -9572971.17861
  22162644.919     7034436.189 3   5491443.47821
  18744946.482   -28709907.855 7 -22230190.75824
 91  4 23 23 26 14.9930000  0  5G15G 2G13G19G 6
  21751211.5134   -5535366.93745  -4027701.97561
  18980587.3884   -2249976.09548  -1728293.23064
  19899239.6534  -14277235.48946  -9617971.31861
  22169075.6774    7068218.63544   5517767.28261
  18740186.396   -28734920.800 7 -22249681.35023
 91  4 23 23 26 29.9930000  0  5G15G 2G13G19G 6
  21748970.7864   -5547123.60245  -4036862.97261
  18979948.6614   -2253331.14548  -1730907.55864
  19888271.567   -14334880.837 6  -9662889.63921
  22175513.9274    7102050.74844   5544129.82361
  18735443.763   -28759846.556 7 -22269104.00524
 91  4 23 23 26 44.9930000  0  5G15G 2G13G19G 6
  21746761.607    -5558740.962 5  -4045915.42721
  18979320.2944   -2256636.44548  -1733483.11564
  19877321.692   -14392419.471 6  -9707724.83421
  22181958.482     7135933.835 4   5570532.05721
  18730717.380   -28784683.625 7 -22288457.54923
 91  4 23 23 26 59.9930000  0  5G15G 2G13G19G 6
  21744579.130    -5570219.045 5  -4054859.34921
  18978699.4504   -2259892.02948  -1736019.93464
  19866393.427   -14449851.243 6  -9752476.72721
  22188417.6384    7169867.81243   5596973.96661
  18726007.364   -28809431.630 7 -22307741.69323
 91  4 23 23 27 14.9930000  0  5G15G 2G13G19G 6
  21742419.8964   -5581555.95945  -4063693.27561
  18978090.2244   -2263096.36348  -1738516.81764
  19855484.333   -14507174.042 6  -9797143.73121
  22194885.552     7203854.122 3   5623456.65921
  18721316.232   -28834088.702 7 -22326954.97823
 91  4 23 23 27 29.9930000  0  5G15G 2G13G19G 6
  21740289.4504   -5592756.31945  -4072420.79861
  18977490.8414   -2266254.17748  -1740977.45164
  19844595.3174  -14564392.31946  -9841729.27961
  22201364.5994    7237887.91943   5649976.37261
  18716640.114   -28858659.288 7 -22346100.87323
 91  4 23 23 27 44.9930000  0  5G15G 2G13G19G 6
  21738187.974    -5603813.260 5  -4081036.55921
  18976899.0604   -2269358.76948  -1743396.61664
  19833728.896   -14621499.035 6  -9886227.90621
  22207847.3334    7271975.92843   5676538.32661
  18711982.552   -28883136.440 7 -22365173.96723
 91  4 23 23 27 59.9930000  0  5G15G 2G13G19G 6
  21736111.7714   -5614727.40145  -4089541.04961
  18976318.3494   -2272410.93548  -1745774.92964
  19822884.263   -14678494.653 6  -9930639.96221
  22214343.0994    7306117.12443   5703141.71261
  18707341.0134  -28907520.62847 -22384174.62263
 91  4 23 23 28 14.9930000  0  5G15G 2G13G19G 6
  21734062.0364   -5625499.23545  -4097934.66161
  18975747.5364   -2275410.98548  -1748112.62564
  19812057.661   -14735379.175 6  -9974965.45121
  22220849.4744    7340310.90443   5729786.06261
  18702718.8254  -28931812.01347 -22403102.96263
 91  4 23 23 28 29.9930000  0  5G15G 2G13G19G 6
  21732037.7394   -5636129.23145  -4106217.73861
  18975185.8804   -2278359.47248  -1750410.14664
  19801254.6224  -14792152.92346 -10019204.61661
  22227368.950     7374556.824 3   5756471.01721
  18698114.786   -28956010.702 7 -22421959.06623
 91  4 23 23 28 44.9930000  0  5G15G 2G13G19G 6
  21730042.466    -5646615.960 5  -4114389.19221
  18974634.7634   -2281255.35148  -1752666.67764
  19790472.950   -14848814.447 6 -10063356.34221
  22233895.880     7408855.725 3   5783197.29621
  18693527.482   -28980115.530 7 -22440742.03223
 91  4 23 23 28 59.9930000  0  5G15G 2G13G19G 6
  21728071.880    -5656961.415 5  -4122450.56321
  18974093.5214   -2284100.53148  -1754883.70464
  19779710.599   -14905365.325 6 -10107421.84621
  22240431.802     7443205.744 3   5809963.39321
  18688958.146   -29004127.998 7 -22459453.02523
 91  4 23 23 29 14.9930000  0  5G15G 2G13G19G 6
  21726128.333    -5667162.689 5  -4130399.57821
  18973564.0054   -2286892.23148  -1757059.05164
  19768971.169   -14961802.472 6 -10151398.73921
  22246981.3964    7477609.44443   5836771.33661
  18684405.857   -29028045.099 7 -22478089.71023
 91  4 23 23 29 29.9930000  0  5G15G 2G13G19G 6
  21724214.919    -5677225.584 5  -4138240.77621
  18973040.7864   -2289636.38648  -1759197.35764
  19758251.8494  -15018131.48746 -10195291.35461
  22253534.044     7512060.683 2   5863616.29021
  18679873.021   -29051872.511 7 -22496656.50523
 91  4 23 23 29 44.9930000  0  5G15G 2G13G19G 6
  21722328.8724   -5687149.34045  -4145973.55061
  18972527.3334   -2292332.17548  -1761297.96964
  19747553.396   -15074351.466 6 -10239099.02021
  22260095.7004    7546560.06542
  18675356.450   -29075609.262 7 -22515152.65823
 91  4 23 23 29 59.9930000  0  4G15G 2G13G 6
  21720464.552    -5696933.147 5  -4153597.27421
  18972024.5604   -2294979.05848  -1763360.47864
  19736875.732   -15130461.351 6 -10282820.90621
  18670854.708   -29099254.342 7 -22533577.38423
 91  4 23 23 30 14.9930000  0  5G15G 2G13G19G 6
  21718631.349    -5706576.349 5  -4161111.43621
  18971528.4584   -2297576.64148  -1765384.57364
  19726219.528   -15186460.457 6 -10326456.46121
  22273254.4194         -0.72053
  18666374.310   -29122807.265 7 -22551930.29123
 91  4 23 23 30 29.9930000  0  5G15G 2G13G19G 6
  21716823.7474   -5716077.29045  -4168514.74461
  18971045.2004   -2300122.94148  -1767368.70164
  19715585.552   -15242346.478 6 -10370003.90621
  22279852.7554      34647.13243
  18661909.435   -29146265.610 7 -22570209.50123
 91  4 23 23 30 44.9930000  0  5G15G 2G13G19G 6
  21715044.466    -5725440.444 6  -4175810.67721
  18970568.6854   -2302622.47347  -1769316.38564
  19704971.317   -15298123.643 6 -10413466.52321
  22286455.1534      69341.11243
  18657463.763   -29169633.754 7 -22588418.42523
 91  4 23 23 30 59.9930000  0  5G15G 2G13G19G 6
  21713286.2004   -5734663.37645  -4182997.36061
  18970103.4894   -2305073.05747  -1771225.92864
  19694377.669   -15353789.649 6 -10456842.52321
  22293067.005      104083.058 3        -0.40031
  18653034.083   -29192909.286 7 -22606555.18523
 91  4 23 23 31 14.9930000  0  5G15G 2G13G19G 6
  21711557.7864   -5743747.11045  -4190075.55761
  18969645.8724   -2307476.04848  -1773098.38664
  19683805.857   -15409345.242 6 -10500132.49521
  22299684.4274     138871.79843     27107.54861
  18648622.974   -29216093.198 7 -22624620.55723
 91  4 23 23 31 29.9930000  0  5G15G 2G13G19G 6
  21709855.677    -5752687.428 5  -4197042.02121
  18969199.6534   -2309827.10648  -1774930.38464
  19673257.021   -15464785.999 6 -10543332.97721
  22306314.6144     173711.69043     54255.35861
  18644228.810   -29239180.726 7 -22642610.82323
 91  4 23 23 31 44.9930000  0  5G15G 2G13G19G 6
  21708181.521    -5761486.918 5  -4203898.75121
  18968761.1694   -2312128.69648  -1776723.83464
  19662727.005   -15520113.878 6 -10586445.50321
  22312954.6304     208599.99643     81440.87261
  18639854.247   -29262174.298 7 -22660527.87223
 91  4 23 23 31 59.9930000  0  5G15G 2G13G19G 6
  21706533.263    -5770148.713 5  -4210648.18121
  18968330.9744   -2314384.42648  -1778481.54864
  19652219.3724  -15575331.81846 -10629472.36861
  22319603.5834     243533.18443    108661.38761
  18635493.271   -29285076.839 7 -22678373.99123
 91  4 23 23 32 14.9930000  0  4G15G 2G13G 6
  21704909.700    -5778674.366 5  -4217291.52621
  18967909.2944   -2316595.84247  -1780204.73364
  19641732.0604  -15630441.32946 -10672414.74861
  18631153.599   -29307889.900 7 -22696150.37923
 91  4 23 23 32 29.9930000  0  4G15G 2G13G 6
  21703312.200    -5787061.829 5  -4223827.18921
  18967497.2944   -2318760.94047  -1781891.81764
  19631265.638   -15685440.471 6 -10715271.12321
  18626828.935   -29330611.209 7 -22713855.27923
 91  4 23 23 32 44.9930000  0  4G15G 2G13G 6
  21701745.599    -5795308.209 5  -4230252.92121
  18967095.4424   -2320876.98648  -1783540.68364
  19620821.700   -15740326.038 6 -10758038.99621
  18622523.942   -29353237.717 7 -22731486.31123
 91  4 23 23 32 59.9930000  0  4G15G 2G13G 6
  21700200.5994   -5803411.34045  -4236567.01261
  18966702.3804   -2322941.49548  -1785149.39364
  19610399.5604  -15795095.22147 -10800716.18461
  18618237.435   -29375766.767 7 -22749041.39423
 91  4 23 23 33 14.9930000  0  4G15G 2G13G 6
  21698683.825    -5811373.648 5  -4242771.39921
  18966318.3644   -2324957.07848  -1786719.97564
  19599999.630   -15849750.358 7 -10843304.50421
  18613968.310   -29398200.668 7 -22766522.34123
 91  4 23 23 33 29.9930000  0  4G15G 2G13G 6
  21697202.6464   -5819189.51045  -4248861.67461
  18965946.3174   -2326918.42347  -1788248.29364
  19589621.450   -15904285.820 7 -10885799.55821
  18609717.771   -29420533.807 7 -22783924.76823
 91  4 23 23 33 44.9930000  0  4G15G 2G13G 6
  21695741.114    -5826868.795 5  -4254845.51221
  18965581.4584   -2328835.67348  -1789742.25264
  19579263.2554  -15958711.50646 -10928209.09661
  18605485.060   -29442775.998 7 -22801256.32923
 91  4 23 23 33 59.9930000  0  4G15G 2G13G 6
  21694304.2324   -5834407.17045  -4260719.54861
  18965226.0134   -2330704.33048  -1791198.34864
  19568928.927   -16013022.602 6 -10970529.32521
  18601270.567   -29464922.529 7 -22818513.34723
 91  4 23 23 34 14.9930000  0  4G15G 2G13G 6
  21692897.8574   -5841807.40745  -4266485.94361
  18964878.4504   -2332527.03248  -1792618.62464
  19558614.4664  -16067221.37846 -11012762.05361
  18597074.403   -29486975.859 7 -22835697.73423
 91  4 23 23 34 29.9930000  0  4G15G 2G13G 6
  21691518.5604   -5849067.15145  -4272142.86561
  18964540.7634   -2334301.42048  -1794001.27164
  19548323.646   -16121305.306 6 -11054905.26821
  18592896.552   -29508933.300 7 -22852807.42023
 91  4 23 23 34 44.9930000  0  4G15G 2G13G 6
  21690159.950    -5856184.029 5  -4277688.47021
  18964212.1924   -2336025.30847  -1795344.56064
  19538053.2164  -16175271.79246 -11096956.98061
  18588736.263   -29530792.407 7 -22869840.47223
 91  4 23 23 34 59.9930000  0  4G15G 2G13G 6
  21688836.794    -5863157.511 5  -4283122.33621
  18963893.4034   -2337698.46247  -1796648.30864
  19527806.3884  -16229120.28047 -11138916.74561
  18584595.161   -29552552.665 7 -22886796.50423
 91  4 23 23 35 14.9930000  0  4G15G 2G13G 6
  21687536.786    -5869990.088 5  -4288446.39021
  18963584.0444   -2339323.49347  -1797914.56664
  19517581.3494  -16282853.07347 -11180786.36661
  18580472.560   -29574216.367 7 -22903677.29523
 91  4 23 23 35 29.9930000  0  4G15G 2G13G 6
  21686259.6464   -5876686.12945  -4293664.06761
  18963284.1384   -2340904.66947  -1799146.64764
  19507378.263   -16336474.178 7 -11222568.95921
  18576368.599   -29595787.452 7 -22920485.91123
 91  4 23 23 35 44.9930000  0  4G15G 2G13G 6
  21685012.786    -5883244.016 5  -4298774.08921
  18962991.7634   -2342440.30948  -1800343.25164
  19497194.778   -16389981.658 6 -11264263.00321
  18572282.114   -29617264.097 7 -22937220.94223
 91  4 23 23 35 59.9930000  0  4G15G 2G13G 6
  21683792.403    -5889660.980 5  -4303774.31121
  18962709.1224   -2343927.59448  -1801502.17564
  19487035.841   -16443372.521 6 -11305866.19421
  18568213.755   -29638643.380 7 -22953880.11623
 91  4 23 23 36 14.9930000  0  4G15G 2G13G 6
  21682595.6774   -5895939.00645  -4308666.26161
  18962434.0054   -2345368.70148  -1802625.11364
  19476897.3024  -16496648.39646 -11347379.76661
  18564163.8024  -29659926.95547 -22970464.70963
 91  4 23 23 36 29.9930000  0  4G15G 2G13G 6
  21681428.9354   -5902082.38845  -4313453.30161
  18962167.5054   -2346767.88248  -1803715.37964
  19466779.0674  -16549813.23346 -11388806.82261
  18560129.4424  -29681118.85347 -22986977.86763
 91  4 23 23 36 44.9930000  0  4G15G 2G13G 6
  21680285.3884   -5908083.46945  -4318129.46161
  18961911.3574   -2348117.78748  -1804767.24864
  19456685.5524  -16602859.47547 -11430141.46561
  18556116.044   -29702211.363 7 -23003413.57423
 91  4 23 23 36 59.9930000  0  4G15G 2G13G 6
  21679170.3884   -5913938.44145  -4322691.75961
  18961664.6464   -2349414.39348  -1805777.58664
  19446615.0914  -16655782.85346 -11471380.37561
  18552121.755   -29723200.316 7 -23019768.58823
 91  4 23 23 37 14.9930000  0  4G15G 2G13G 6
  21678084.716    -5919653.372 5  -4327144.93521
  18961425.6614   -2350663.69848  -1806751.07264
  19436566.1774  -16708589.22647 -11512528.10661
  18548147.255   -29744091.715 7 -23036047.58623
 91  4 23 23 37 29.9930000  0  4G15G 2G13G 6
  21677025.2004   -5925224.06345  -4331485.72461
  18961199.5834   -2351861.62848  -1807684.52564
  19426540.2784  -16761274.20846 -11553581.24761
  18544189.599   -29764881.079 7 -23052247.07823
 91  4 23 23 37 44.9930000  0  4G15G 2G13G 6
  21675988.083    -5930652.449 5  -4335715.61121
  18960981.8884   -2353010.35848  -1808579.64364
  19416537.2164  -16813839.80547 -11594541.36061
  18540252.974   -29785570.252 7 -23068368.49523
 91  4 23 23 37 59.9930000  0  4G15G 2G13G 6
  21674978.989    -5935943.451 5  -4339838.46221
  18960770.1534   -2354114.76448  -1809440.22464
  19406556.0524  -16866290.54146 -11635411.98161
  18536335.724   -29806163.839 7 -23084415.42723
 91  4 23 23 38 14.9930000  0  4G15G 2G13G 6
  21674003.091    -5941094.604 5  -4343852.32821
  18960569.9194   -2355172.36548  -1810264.33464
  19396597.716   -16918623.411 7 -11676190.75821
  18532436.052   -29826659.038 7 -23100385.69723
 91  4 23 23 38 29.9930000  0  4G15G 2G13G 6
  21673049.333    -5946105.554 5  -4347756.94921
  18960377.0834   -2356182.85948  -1811051.73064
  19386661.661   -16970837.836 7 -11716877.24421
  18528552.0834  -29847055.33547 -23116278.90563
 91  4 23 23 38 44.9930000  0  4G15G 2G13G 6
  21672122.958    -5950983.422 5  -4351557.87521
  18960190.7634   -2357153.27148  -1811807.89164
  19376746.919   -17022940.866 7 -11757476.93021
  18524689.7554  -29867359.60547 -23132100.40463
 91  4 23 23 38 59.9930000  0  4G15G 2G13G 6
  21671217.786    -5955716.297 5  -4355245.81621
  18960018.1774   -2358071.71548  -1812523.56364
  19366854.911   -17074920.284 6 -11797980.28821
  18520845.1694  -29887559.69047 -23147840.71963
 91  4 23 23 39 14.9930000  0  4G15G 2G13G 6
  21670346.708    -5960309.105 5  -4358824.60721
  18959850.5134   -2358943.54048  -1813202.90864
  19356986.8574  -17126780.84846 -11838391.02561
  18517020.513   -29907660.481 7 -23163503.65823
 91  4 23 23 39 29.9930000  0  4G15G 2G13G 6
  21669498.122    -5964761.464 5  -4362293.95821
  18959696.935    -2359768.017 8  -1813845.36724
  19347141.153   -17178521.750 7 -11878708.53521
  18513215.021   -29927661.119 7 -23179088.54823
 91  4 23 23 39 44.9930000  0  4G15G 2G13G 6
  21668676.2004   -5969078.10545  -4365657.56961
  18959547.7394   -2360549.93848  -1814454.66664
  19337316.0994  -17230147.59946 -11918936.37961
  18509425.778   -29947566.237 7 -23194599.01523
 91  4 23 23 39 59.9930000  0  4G15G 2G13G 6
  21667882.4274   -5973254.22245  -4368911.68461
  18959405.4274   -2361284.51148  -1815027.06164
  19327515.6384  -17281653.33247 -11959070.62661
  18505657.700   -29967370.754 7 -23210031.09323
 91  4 23 23 40 14.9930000  0  4G15G 2G13G 6
  21667115.802    -5977283.274 5  -4372051.19421
  18959274.2944   -2361965.43147  -1815557.64864
  19317736.4584  -17333032.33247 -11999106.11761
  18501909.107   -29987067.972 7 -23225379.56123
 91  4 23 23 40 29.9930000  0  4G15G 2G13G 6
  21666373.7554   -5981171.87645  -4375081.26661
  18959154.9584   -2362598.97748  -1816051.32064
  19307984.1854  -17384290.76547 -12039047.66561
  18498181.333   -30006664.081 7 -23240649.24123
 91  4 23 23 40 44.9930000  0  4G15G 2G13G 6
  21665660.880    -5984916.586 5  -4377999.20421
  18959044.3804   -2363181.87148  -1816505.52564
  19298253.2944  -17435425.05747 -12078892.48661
  18494473.099   -30026155.413 7 -23255837.27923
 91  4 23 23 40 59.9930000  0  4G15G 2G13G 6
  21664976.130    -5988518.861 5  -4380806.16021
  18958941.6694   -2363715.83248  -1816921.61164
  19288545.825   -17486436.508 7 -12118641.58321
  18490780.732   -30045543.474 7 -23270944.84223
 91  4 23 23 41 14.9930000  0  4G15G 2G13G 6
  21664320.903    -5991980.083 5  -4383503.20221
  18958852.1224   -2364202.11847  -1817300.53964
  19278860.8804  -17537326.17547 -12158295.78561
  18487111.192   -30064829.305 7 -23285972.75123
 91  4 23 23 41 29.9930000  0  4G15G 2G13G 6
  21663691.880    -5995297.205 5  -4386087.96121
  18958766.4034   -2364637.64747  -1817639.90964
  19269201.708   -17588090.694 6 -12197852.47921
  18483461.489   -30084009.587 7 -23300918.41323
 91  4 23 23 41 44.9930000  0  4G15G 2G13G 6
  21663085.7324   -5998477.82545  -4388566.35361
  18958692.6304   -2365029.76348  -1817945.45664
  19259562.247   -17638737.450 6 -12237317.39621
  18479832.247   -30103091.440 7 -23315787.37523
 91  4 23 23 41 59.9930000  0  4G15G 2G13G 6
  21662503.0994   -6001518.20845  -4390935.47761
  18958629.5134   -2365374.81048  -1818214.33064
  19249948.685   -17689262.375 6 -12276687.39121
  18476220.286   -30122071.099 7 -23330576.70323
 91  4 23 23 42 14.9930000  0  4G15G 2G13G 6
  21661949.5604   -6004414.33145  -4393192.18961
  18958571.0914   -2365668.97748  -1818443.55164
  19240358.3804  -17739661.43546 -12315959.31361
  18472629.7714  -30140944.33947 -23345283.11263
 91  4 23 23 42 29.9930000  0  4G15G 2G13G 6
  21661431.9424   -6007167.72545  -4395337.68661
  18958527.1304   -2365913.71548  -1818634.26064
  19230790.403   -17789935.600 6 -12355133.90821
  18469057.067   -30159712.302 7 -23359907.48523
 91  4 23 23 42 44.9930000  0  4G15G 2G13G 6
  21660931.849    -6009779.572 5  -4397372.87021
  18958489.5674   -2366110.04448  -1818787.24964
  19221246.786   -17840085.849 6 -12394211.94521
  18465506.2864  -30178375.89847 -23374450.53863
 91  4 23 23 42 59.9930000  0  4G15G 2G13G 6
  21660464.669    -6012250.980 5  -4399298.63821
  18958458.3574   -2366259.41247
  19211727.544   -17890113.260 7 -12433194.26621
  18461973.9194  -30196936.28347 -23388913.16663
 91  4 23 23 43 14.9930000  0  4G15G 2G13G 6
  21660015.7474   -6014583.89645  -4401116.47661
  18958437.7784   -2366363.78847
  19202231.177   -17940019.627 7 -12472082.27521
  18458461.216   -30215395.165 7 -23403296.69423
 91  4 23 23 43 29.9930000  0  4G15G 2G13G 6
  21659604.8254   -6016773.06345  -4402822.31061
  18958427.3724   -2366417.52848
  19192756.9274  -17989799.30546 -12510871.56461
  18454968.6074  -30233746.67347 -23417596.56563
 91  4 23 23 43 44.9930000  0  4G15G 2G13G 6
  21659211.763    -6018818.369 5  -4404416.03821
  18958427.6074   -2366420.83948
  19183308.622   -18039452.005 6 -12549561.89921
  18451495.5444  -30251990.68947 -23431812.66963
 91  4 23 23 43 59.9930000  0  4G15G 2G13G 6
  21658847.9974   -6020722.51345  -4405899.77761
  18958439.3494   -2366376.46748
  19173884.466   -18088980.020 6 -12588155.08121
  18448044.560   -30270129.672 7 -23445946.93323
 91  4 23 23 44 14.9930000  0  4G15G 2G13G 6
  21658511.6924   -6022488.90445  -4407276.17761
  18958453.8964   -2366287.70247
  19164481.833   -18138386.541 6 -12626653.58621
  18444613.1384  -30288166.79947 -23460001.82263
 91  4 23 23 44 29.9930000  0  4G15G 2G13G 6
  21658204.7164   -6024114.86345  -4408543.15161
  18958481.5754   -2366151.50848
  19155104.341   -18187668.315 6 -12665054.88921
  18441200.638   -30306098.786 7 -23473974.78523
 91  4 23 23 44 44.9930000  0  4G15G 2G13G 6
  21657923.9894   -6025597.03145  -4409698.09561
  18958516.8104   -2365964.52848
  19145751.0524  -18236821.93447 -12703356.32662
  18437807.989   -30323922.124 7 -23487863.08923
 91  4 23 23 44 59.9930000  0  4G15G 2G13G 6
  21657667.3804   -6026937.68045  -4410742.75161
  18958560.4424   -2365729.30148
  19136420.958   -18285849.505 7 -12741559.54521
  18434437.0674  -30341639.02747 -23501668.45763
 91  4 23 23 45 14.9930000  0  4G15G 2G13G 6
  21657439.6534   -6028138.54545  -4411678.48961
  18958611.3334   -2365447.69348  -1818271.14064
  19127114.8644  -18334752.54947 -12779665.72661
  18431085.239   -30359251.006 7 -23515392.06123
 91  4 23 23 45 29.9930000  0  4G15G 2G13G 6
  21657238.7714   -6029198.68145  -4412504.55961
  18958676.3884   -2365118.46447  -1818014.59663
  19117833.021   -18383529.742 7 -12817673.84121
  18427754.333   -30376756.908 7 -23529033.01223
 91  4 23 23 45 44.9930000  0  4G15G 2G13G 6
  21657062.724    -6030115.467 5  -4413218.92521
  18958748.7554   -2364738.99347  -1817718.90064
  19108576.255   -18432178.357 7 -12855581.78321
  18424444.888   -30394153.762 7 -23542588.98923
 91  4 23 23 45 59.9930000  0  4G15G 2G13G 6
  21656913.732    -6030893.607 5  -4413825.25521
  18958828.1534   -2364314.33747  -1817387.99464
  19099342.067   -18480703.146 7 -12893393.22521
  18421151.591   -30411446.327 7 -23556063.70323
 91  4 23 23 46 14.9930000  0  4G15G 2G13G 6
  21656793.9744   -6031527.42245  -4414319.13961
  18958921.1304   -2363838.43848  -1817017.15664
  19090133.005   -18529097.615 7 -12931103.12722
  18417884.4114  -30428628.12647 -23569452.10963
 91  4 23 23 46 29.9930000  0  4G15G 2G13G 6
  21656701.5914   -6032024.48045  -4414706.44661
  18959017.8644   -2363318.91448  -1816612.32864
  19080946.911   -18577369.314 7 -12968717.36021
  18414633.4584  -30445706.63047 -23582760.02563
 91  4 23 23 46 44.9930000  0  4G15G 2G13G 6
  21656628.778    -6032382.444 5  -4414985.36821
  18959124.5364   -2362753.42948  -1816171.69364
  19071785.403   -18625515.845 7 -13006234.05521
  18411404.294   -30462679.341 7 -23595985.50723
 91  4 23 23 46 59.9930000  0  4G15G 2G13G 6
  21656590.8644   -6032606.01845  -4415159.58161
  18959240.1694   -2362146.51548  -1815698.77064
  19062645.474   -18673541.401 7 -13043656.48921
  18408193.0284  -30479550.76847 -23609132.06263
 91  4 23 23 47 14.9930000  0  4G15G 2G13G 6
  21656568.9744   -6032687.50845
  18959367.8574   -2361490.51847  -1815187.60264
  19053531.575   -18721437.902 7 -13080978.35622
  18405002.091   -30496312.767 7 -23622193.34923
 91  4 23 23 47 29.9930000  0  4G15G 2G13G 6
  21656585.0994   -6032630.79145
  18959498.7164   -2360789.02847  -1814640.99064
  19044440.8884  -18769208.66847 -13118202.23761
  18401833.794   -30512968.802 7 -23635172.06023
 91  4 23 23 47 44.9930000  0  4G15G 2G13G 6
  21656621.1074   -6032433.96145
  18959641.419    -2360040.373 7  -1814057.61024
  19035374.8414  -18816852.04947 -13155326.88061
  18398685.060   -30529516.948 7 -23648066.69923
 91  4 23 23 47 59.9930000  0  4G15G 2G13G 6
  21656682.5284   -6032098.94345
  18959793.7084   -2359246.42447  -1813438.94664
  19026331.7084  -18864369.86947 -13192353.66061
  18395556.669   -30545958.892 7 -23660878.58623
 91  4 23 23 48 14.9930000  0  4G15G 2G13G 6
  21656774.5444   -6031622.48345  -4414393.13761
  18959954.7784   -2358403.98048  -1812782.49764
  19017314.052   -18911758.663 7 -13229279.91921
  18392448.1614  -30562291.04947 -23673604.93763
 91  4 23 23 48 29.9930000  0  4G15G 2G13G 6
  21656896.013    -6031004.870 5  -4413911.85321
  18960123.6534   -2357513.29247  -1812088.45864
  19008321.263   -18959018.160 7 -13266105.41922
  18389360.3884  -30578513.48247 -23686245.78363
 91  4 23 23 48 44.9930000  0  4G15G 2G13G 6
  21657037.5284   -6030249.18045  -4413323.01661
  18960301.8174   -2356577.23647  -1811359.06664
  18999351.739   -19006151.275 7 -13302832.44522
  18386293.8494  -30594629.00147 -23698803.31963
 91  4 23 23 48 59.9930000  0  4G15G 2G13G 6
  21657208.966    -6029351.941 5
  18960488.1854   -2355592.28047
  18990406.271   -19053154.265 7 -13339458.07721
  18383248.6774  -30610633.79247 -23711274.58063
 91  4 23 23 49 14.9930000  0  4G15G 2G13G 6
  21657407.403    -6028313.812 5
  18960686.3724   -2354558.95447
  18981487.739   -19100027.211 7 -13375982.36321
  18380223.1694  -30626528.16147 -23723659.79263
 91  4 23 23 49 29.9930000  0  4G15G 2G13G 6
  21657631.521    -6027136.833 5  -4410897.77421
  18960889.9034   -2353479.44647  -1808945.20864
  18972591.739   -19146772.198 7 -13412406.95321
  18377219.263   -30642313.906 7 -23735960.35523
 91  4 23 23 49 44.9930000  0  4G15G 2G13G 6
  21657881.6144   -6025823.86945  -4409874.68261
  18961103.4034   -2352356.61347  -1808070.27464
  18963720.528   -19193392.079 7 -13448734.05421
  18374236.646   -30657993.986 7 -23748178.58423
 91  4 23 23 49 59.9930000  0  4G15G 2G13G 6
  21658155.450    -6024374.313 5  -4408745.14721
  18961326.0444   -2351189.64347  -1807160.94864
  18954872.903   -19239886.015 7 -13484963.01621
  18371273.3804  -30673567.17947 -23760313.53063
 91  4 23 23 50 14.9930000  0  4G15G 2G13G 6
  21658454.8174   -6022784.86045  -4407506.60661
  18961558.3804   -2349975.45747  -1806214.83664
  18946049.450   -19286250.455 7 -13521091.07222
  18368331.2944  -30689030.28647 -23772362.68863
 91  4 23 23 50 29.9930000  0  4G15G 2G13G 6
  21658787.3964   -6021053.88645  -4406157.79861
  18961797.4034   -2348712.03947  -1805230.35764
  18937251.810   -19332483.130 7 -13557116.45321
  18365408.8884  -30704380.93747 -23784324.23063
 91  4 23 23 50 44.9930000  0  4G15G 2G13G 6
  21659143.0754   -6019184.87545  -4404701.42461
  18962047.4584   -2347403.03047  -1804210.35364
  18928478.966   -19378587.409 7 -13593041.78221
  18362508.310   -30719622.525 7 -23796200.78023
 91  4 23 23 50 59.9930000  0  4G15G 2G13G 6
  21659521.0674   -6017176.94045  -4403136.80761
  18962305.6304   -2346047.19947  -1803153.87364
  18919729.942   -19424561.991 7 -13628866.05622
  18359629.763   -30734753.663 7 -23807991.26823
 91  4 23 23 51 14.9930000  0  4G15G 2G13G 6
  21659935.724    -6015026.109 5  -4401460.82321
  18962572.6694   -2344640.73147  -1802057.93564
  18911006.739   -19470402.643 7 -13664585.96821
  18356771.6144  -30749770.27247 -23819692.51863
 91  4 23 23 51 29.9930000  0  4G15G 2G13G 6
  21660365.1074   -6012737.41445  -4399677.43361
  18962849.8884   -2343188.87747  -1800926.62464
  18902308.919   -19516114.235 7 -13700205.31522
  18353934.6614  -30764677.21347 -23831308.31063
 91  4 23 23 51 44.9930000  0  4G15G 2G13G 6
  21660832.4744   -6010304.68745  -4397781.79561
  18963135.8024   -2341685.11647  -1799754.86564
  18893635.021   -19561690.460 7 -13735719.18022
  18351120.6694  -30779467.98847 -23842833.57963
 91  4 23 23 51 59.9930000  0  4G15G 2G13G 6
  21661322.5284   -6007733.78045  -4395778.47861
  18963430.1224   -2340134.99447  -1798546.98664
  18884987.146   -19607136.879 7 -13771131.90222
  18348326.505   -30794148.079 7 -23854272.60023
 91  4 23 23 52 14.9930000  0  4G15G 2G13G 6
  21661832.4894   -6005022.29645  -4393665.66461
  18963734.6464   -2338536.28847  -1797301.24564
  18876363.528   -19652450.814 7 -13806441.38322
  18345554.3174  -30808715.01647 -23865623.45063
 91  4 23 23 52 29.9930000  0  4G15G 2G13G 6
  21662377.0994   -6002171.57645  -4391444.30661
  18964048.7324   -2336890.06247  -1796018.48264
  18867765.286   -19697633.097 7 -13841648.28222
  18342803.4114  -30823169.46647 -23876886.64963
 91  4 23 23 52 44.9930000  0  4G15G 2G13G 6
  21662946.239    -5999181.330 5  -4389114.24421
  18964370.0524   -2335196.08347  -1794698.50564
  18859193.560   -19742683.389 7 -13876752.32922
  18340076.0054  -30837511.09147 -23888061.93363
 91  4 23 23 52 59.9930000  0  4G15G 2G13G 6
  21663546.4744   -5996048.21545  -4386672.85061
  18964702.4744   -2333450.96247  -1793338.67664
  18850645.896   -19787598.040 7 -13911750.69422
  18337368.4034  -30851736.42047 -23899146.60063
 91  4 23 23 53 14.9930000  0  4G15G 2G13G 6
  21664170.7554   -5992775.53645  -4384122.71361
  18965043.2004   -2331657.94547  -1791941.52864
  18842124.396   -19832380.192 7 -13946645.80022
  18334683.0054  -30865848.34747 -23910142.90163
 91  4 23 23 53 29.9930000  0  4G15G 2G13G 6
  21664816.653    -5989365.197 5  -4381465.29321
  18965393.2864   -2329818.85647  -1790508.48064
  18833627.747   -19877031.345 7 -13981438.84122
  18332017.9894  -30879848.42347 -23921052.04363
 91  4 23 23 53 44.9930000  0  4G15G 2G13G 6
  21665493.7714   -5985813.58345  -4378697.79761
  18965752.9274   -2327930.00447  -1789036.64764
  18825154.8644  -19921547.86547 -14016126.97262
  18329376.8494  -30893732.90547 -23931871.11163
 91  4 23 23 53 59.9920000  0  4G15G 2G13G 6
  21666192.4614   -5982125.50545  -4375823.96761
  18966121.9614   -2325995.82447  -1787529.50564
  18816710.0634  -19965930.95247 -14050711.12262
  18326754.9144  -30907504.84647 -23942602.48763
 91  4 23 23 54 14.9920000  0  4G15G 2G13G 6
  21666922.531    -5978293.174 5  -4372837.72821
  18966499.3364   -2324008.68847  -1785981.09064
  18808288.617   -20010178.729 7 -14085189.84022
  18324157.6724  -30921158.53947 -23953241.71863
 91  4 23 23 54 29.9920000  0  4G15G 2G13G 6
  21667680.4384   -5974325.14645  -4369745.75261
  18966885.6254   -2321977.12747  -1784398.06364
  18799895.0784  -20054296.65447 -14119567.37462
  18321580.2344  -30934701.41947 -23963794.60363
 91  4 23 23 54 44.9920000  0  4G15G 2G13G 6
  21668462.352    -5970213.685 5  -4366542.02021
  18967282.4924   -2319893.40948  -1782774.39464
  18791526.234   -20098276.859 7 -14153837.59122
  18319026.5474  -30948125.41247 -23974254.85263
 91  4 23 23 54 59.9920000  0  4G15G 2G13G 6
  21669268.6334   -5965962.74845  -4363229.58861
  18967687.8994   -2317761.17147  -1781112.92064
  18783181.2424  -20142122.95547 -14188003.31862
  18316494.7744  -30961434.10147 -23984625.24863
 91  4 23 23 55 14.9920000  0  4G15G 2G13G 6
  21670110.0474   -5961574.74745  -4359810.36661
  18968102.7584   -2315583.00747  -1779415.65564
  18774862.5864  -20185836.88147 -14222066.04162
  18313983.8204  -30974629.67147 -23994907.51163
 91  4 23 23 55 29.9920000  0  4G15G 2G13G 6
  21670963.8284   -5957050.59445  -4356285.05661
  18968525.8594   -2313359.32947  -1777682.92564
  18766570.3204  -20229419.06847 -14256026.12462
  18311492.9384  -30987712.37047 -24005101.81763
 91  4 23 23 55 44.9920000  0  4G15G 2G13G 6
  21671856.453    -5952385.765 5  -4352650.10821
  18968958.1334   -2311085.71148  -1775911.28364
  18758300.3204  -20272864.79647 -14289879.86961
  18309025.0164  -31000677.79847 -24015204.74263
 91  4 23 23 55 59.9920000  0  4G15G 2G13G 6
  21672766.4844   -5947580.17245  -4348905.48961
  18969400.930    -2308761.993 8  -1774100.60624
  18750062.430   -20316173.902 7 -14323627.15221
  18306579.0004  -31013525.36447 -24025215.82563
 91  4 23 23 56 14.9920000  0  4G15G 2G13G 6
  21673707.5314   -5942638.74345  -4345055.02461
  18969852.0784   -2306393.19448  -1772254.79764
  18741843.5084  -20359351.05147 -14357271.61761
  18304156.6334  -31026259.80547 -24035138.76163
 91  4 23 23 56 29.9920000  0  4G15G 2G13G 6
  21674679.2744   -5937557.74345  -4341095.79861
  18970311.6884   -2303975.23747  -1770370.68264
  18733653.5244  -20402392.25347 -14390810.15062
  18301755.7664  -31038877.13147 -24044970.43463
 91  4 23 23 56 44.9920000  0  4G15G 2G13G 6
  21675670.2974   -5932340.11545  -4337030.12661
  18970780.3134   -2301510.84147  -1768450.38364
  18725489.1644  -20445300.33647 -14424244.95561
  18299376.5004  -31051379.79647 -24054712.76563
 91  4 23 23 56 59.9920000  0  4G15G 2G13G 6
  21676687.8134   -5926981.90645  -4332854.88461
  18971259.1254   -2298996.38547  -1766491.06764
  18717348.6334  -20488070.99747 -14457572.68361
  18297020.7584  -31063763.71247 -24064362.56363
 91  4 23 23 57 14.9920000  0  4G15G 2G13G 6
  21677732.3594   -5921487.93145  -4328573.86861
  18971746.6884   -2296436.30548  -1764496.21164
  18709235.6884  -20530708.77747 -14490796.86062
  18294686.1954  -31076033.29047 -24073923.26763
 91  4 23 23 57 29.9920000  0  4G15G 2G13G 6
  21678800.0944   -5915859.88645  -4324188.37161
  18972242.8524   -2293832.12548  -1762466.98864
  18701147.0004  -20573215.18447 -14523918.67362
  18292373.0474  -31088190.07147 -24083396.08263
 91  4 23 23 57 44.9920000  0  4G15G 2G13G 6
  21679900.0944   -5910086.38645  -4319689.54061
  18972748.6564   -2291172.57347  -1760394.61964
  18693085.5864  -20615578.54047 -14556929.02062
  18290082.6094  -31100222.43847 -24092771.94563
 91  4 23 23 57 59.9920000  0  4G15G 2G13G 6
  21681025.0554   -5904172.35045  -4315081.20261
  18973264.1724   -2288462.09347  -1758282.56264
  18685050.8364  -20657803.27447 -14589831.34762
  18287816.4844  -31112134.76047 -24102054.26963
 91  4 23 23 58 14.9920000  0  4G15G 2G13G 6
  21682179.500    -5898120.362 5  -4310365.36221
  18973788.8994   -2285703.21447  -1756132.79464
  18677039.8054  -20699891.67947 -14622627.44962
  18285572.1024  -31123929.37547 -24111244.87663
 91  4 23 23 58 29.9920000  0  4G15G 2G13G 6
  21683363.1254   -5891926.81045  -4305539.21661
  18974324.0244   -2282892.44947  -1753942.59464
  18669056.8834  -20741839.97047 -14655314.37062
  18283349.7664  -31135602.43247 -24120340.75863
 91  4 23 23 58 44.9920000  0  4G15G 2G13G 6
  21684564.2664   -5885596.54145  -4300606.53261
  18974866.945    -2280034.583 7  -1751715.70324
  18661101.6254  -20783652.98447 -14687895.86962
  18281151.9924  -31147158.66647 -24129345.61563
 91  4 23 23 58 59.9920000  0  4G15G 2G13G 6
  21685792.6024   -5879128.43845  -4295566.44761
  18975420.8914   -2277128.34647  -1749451.11064
  18653170.5164  -20825329.18047 -14720370.77162
  18278974.3444  -31158596.51047 -24138258.22163
 91  4 23 23 59 14.9920000  0  4G15G 2G13G 6
  21687051.0704   -5872524.62445  -4290420.61861
  18975982.7894   -2274175.60947  -1747150.28064
  18645265.2274  -20866870.23447 -14752740.36362
  18276820.7974  -31169917.76147 -24147079.96863
 91  4 23 23 59 29.9920000  0  4G15G 2G13G 6
  21688331.3204   -5865783.33545  -4285167.67761
  18976554.1804   -2271174.58148  -1744811.82364
  18637387.4454  -20908274.32847 -14785003.23562
  18274688.7744  -31181120.18547 -24155809.12563
 91  4 23 23 59 44.9920000  0  4G15G 2G13G 6
  21689641.7504   -5858913.63445  -4279814.66461
  18977131.9774   -2268134.29748  -1742442.77864
  18629533.4924  -20949550.43547 -14817166.36962
  18272577.6884  -31192212.90647 -24164452.79863
 91  4 23 23 59 59.9920000  0  4G15G 2G13G 6
  21690973.453    -5851905.003 5  -4274353.39821
  18977720.4384   -2265044.04848  -1740034.80664
  18621703.7274  -20990687.67447 -14849221.30762
  18270490.1954  -31203184.98047 -24173002.46163
 91  4 24  0  0 14.9920000  0  4G15G 2G13G 6
  21692334.7584   -5844765.34045  -4268790.03761
  18978315.2744   -2261911.33347  -1737593.73664
  18613901.1804  -21031693.38847 -14881173.74862
  18268423.9694  -31214043.70847 -24181463.80363
 91  4 24  0  0 29.9920000  0  4G15G 2G13G 6
  21693713.7584   -5837490.42745  -4263121.27861
  18978920.9694   -2258731.96847  -1735116.31164
  18606123.9384  -21072563.22447 -14913020.30662
  18266379.6024  -31224784.89247 -24189833.55463
 91  4 24  0  0 44.9920000  0  4G15G 2G13G 6
  21695128.133    -5830079.331 5  -4257346.39821
  18979534.7344   -2255505.09047  -1732601.86264
  18598371.7194  -21113295.98547 -14944760.06462
  18264359.0474  -31235407.19247 -24198110.66763
 91  4 24  0  0 59.9920000  0  4G15G 2G13G 6
  21696565.8594   -5822534.96745  -4251467.68861
  18980157.5634   -2252233.33647  -1730052.44863
  18590647.6094  -21153894.54547 -14976395.24062
  18262359.5164  -31245913.25347 -24206297.21063
 91  4 24  0  1 14.9920000  0  4G15G 2G13G 6
  21698027.141    -5814855.214 5  -4245483.44821
  18980789.9384   -2248914.38348  -1727466.26164
  18582946.8054  -21194356.38447 -15007923.88162
  18260382.7744  -31256300.64647 -24214391.28263
 91  4 24  0  1 29.9920000  0  4G15G 2G13G 6
  21699512.7584   -5807038.77845  -4239392.73261
  18981431.0864   -2245546.77448  -1724842.15964
  18575273.602   -21234679.862 7 -15039344.71822
  18258427.7744  -31266567.65047 -24222391.54163
 91  4 24  0  1 44.9920000  0  4G15G 2G13G 6
  21701027.617    -5799084.723 5  -4233194.78921
  18982080.6094   -2242129.23447  -1722179.14664
  18567627.7344  -21274863.63147 -15070656.67962
  18256498.6174  -31276713.01547 -24230297.02163
 91  4 24  0  1 59.9920000  0  4G15G 2G13G 6
  21702564.4774   -5790998.51145  -4226893.84861
  18982739.4144   -2238667.66047  -1719481.82664
  18560004.9144  -21314913.18447 -15101864.06462
  18254589.6884  -31286742.11547 -24238111.90563
 91  4 24  0  2 14.9920000  0  4G15G 2G13G 6
  21704129.4924   -5782775.06045  -4220485.95861
  18983407.6094   -2235156.74847  -1716746.05964
  18552409.9614  -21354823.42247 -15132962.88962
  18252703.8914  -31296649.73447 -24245832.12963
 91  4 24  0  2 29.9920000  0  4G15G 2G13G 6
  21705720.000    -5774417.105 5  -4213973.27521
  18984084.5944   -2231598.92747  -1713973.73564
  18544842.5164  -21394596.61847 -15163954.92762
  18250841.2274  -31306437.95647 -24253459.31163
 91  4 24  0  2 44.9920000  0  4G15G 2G13G 6
  21707336.8914   -5765921.66745  -4207353.47761
  18984771.2344   -2227990.99647  -1711162.36464
  18537300.0864  -21434229.33147 -15194837.50162
  18249002.6094  -31316103.45947 -24260990.87263
 91  4 24  0  2 59.9920000  0  4G15G 2G13G 6
  21708978.4614   -5757292.86445  -4200629.74261
  18985466.3364   -2224336.80847  -1708314.95364
  18529784.9694  -21473725.56047 -15225613.72762
  18247185.6644  -31325650.07847 -24268429.79463
 91  4 24  0  3 14.9920000  0  4G15G 2G13G 6
  21710644.102    -5748531.257 5  -4193802.52921
  18986170.8364   -2220637.04747  -1705432.03064
  18522294.5944  -21513085.57547 -15256283.80762
  18245391.7274  -31335078.15247 -24275776.34763
 91  4 24  0  3 29.9920000  0  4G15G 2G13G 6
  21712341.5244   -5739631.50945  -4186867.66661
  18986884.7584   -2216886.20447  -1702509.29964
  18514831.727   -21552303.928 7 -15286843.51322
  18243620.7344  -31344382.18347 -24283026.24063
 91  4 24  0  3 44.9920000  0  4G15G 2G13G 6
  21714056.867    -5730604.479 5  -4179833.63121
  18987606.1414   -2213094.80047  -1699554.96364
  18507392.8674  -21591390.92047 -15317300.85462
  18241871.8754  -31353572.45347 -24290187.48763
 91  4 24  0  3 59.9920000  0  4G15G 2G13G 6
  21715802.4924   -5721443.63345  -4172695.32861
  18988336.5634   -2209256.05147  -1696563.73864
  18499982.4534  -21630339.58647 -15347650.40162
  18240147.0314  -31362641.98347 -24297254.65863
 91  4 24  0  4 14.9920000  0  4G15G 2G13G 6
  21717569.219    -5712146.866 5  -4165451.11421
  18989076.867    -2205368.182 8  -1693534.23823
  18492596.2344  -21669148.07647 -15377890.73062
  18238443.7034  -31371588.94547 -24304226.31863
 91  4 24  0  4 29.9920000  0  4G15G 2G13G 6
  21719368.4064   -5702712.76645  -4158099.86661
  18989825.383    -2201428.982 7  -1690464.74123
  18485237.6804  -21707814.22747 -15408020.13962
  18236765.1804  -31380410.93947 -24311100.60063
 91  4 24  0  4 44.9920000  0  4G15G 2G13G 6
  21721183.4774   -5693142.53645  -4150642.55761
  18990584.7424   -2197439.92447  -1687356.39464
  18477907.000   -21746339.126 7 -15438039.48722
  18235108.9304  -31389109.16947 -24317878.44763
 91  4 24  0  4 59.9920000  0  4G15G 2G13G 6
  21723032.6884   -5683437.00545  -4143079.83561
  18991352.8284   -2193401.73547  -1684209.75664
  18470603.5164  -21784723.48147 -15467949.31362
  18233476.9304  -31397684.21047 -24324560.29763
 91  4 24  0  5 14.9920000  0  4G15G 2G13G 6
  21724908.7344   -5673594.51145  -4135410.37161
  18992130.5704   -2189312.59947  -1681023.42364
  18463324.883   -21822965.373 7 -15497748.13522
  18231870.3674  -31406134.14347 -24331144.66363
 91  4 24  0  5 29.9920000  0  4G15G 2G13G 6
  21726804.5944   -5663617.54845  -4127636.10661
  18992919.0554   -2185174.90747  -1677799.24964
  18456075.1254  -21861067.11547 -15527437.74662
  18230285.2344  -31414461.14647 -24337633.23963
 91  4 24  0  5 44.9920000  0  4G15G 2G13G 6
  21728727.305    -5653506.984 5  -4119757.76821
  18993715.0004   -2180989.21547  -1674537.68264
  18448851.6174  -21899029.23647 -15557018.56662
  18228724.7424  -31422665.62547 -24344026.33763
 91  4 24  0  5 59.9920000  0  4G15G 2G13G 6
  21730677.531    -5643259.639 5  -4111772.85221
  18994522.6644   -2176752.17847  -1671236.10664
  18441654.008   -21936848.489 7 -15586488.05422
  18227187.2814  -31430744.24847 -24350321.36663
 91  4 24  0  6 14.9920000  0  4G15G 2G13G 6
  21732651.8134   -5632878.16345  -4103683.38261
  18995338.8994   -2172466.25648  -1667896.43963
  18434485.047   -21974527.091 7 -15615847.95122
  18225673.4144  -31438699.23247 -24356520.05763
 91  4 24  0  6 29.9920000  0  4G15G 2G13G 6
  21734653.7274   -5622365.42745  -4095491.65861
  18996161.664    -2168134.136 7  -1664520.77923
  18427341.141   -22012067.263 7 -15645099.98122
  18224182.5944  -31446533.00947 -24362624.30063
 91  4 24  0  6 44.9920000  0  4G15G 2G13G 6
  21736677.2194   -5611718.71645  -4087195.53061
  18996995.4224   -2163752.94247  -1661106.87064
  18420224.703   -22049466.446 7 -15674242.14822
  18222715.2114  -31454242.84847 -24368631.96863
 91  4 24  0  6 59.9920000  0  4G15G 2G13G 6
  21738733.750    -5600935.392 5  -4078792.96121
  18997839.1954   -2159319.62648  -1657652.34964
  18413134.461   -22086721.531 7 -15703272.03022
  18221272.4774  -31461825.37847 -24374540.43463
 91  4 24  0  7 14.9920000  0  4G15G 2G13G 6
  21740813.149    -5590016.122 5  -4070284.45521
  18998692.078    -2154835.140 7  -1654157.95923
  18406072.008   -22123833.179 7 -15732190.14322
  18219853.2034  -31469281.29347 -24380350.24163
 91  4 24  0  7 29.9920000  0  4G15G 2G13G 6
  21742917.0084   -5578960.62145  -4061669.78961
  18999555.0944   -2150299.10647  -1650623.39764
  18399037.680   -22160800.946 7 -15760996.14822
  18218458.3754  -31476610.04647 -24386060.96063
 91  4 24  0  7 44.9920000  0  4G15G 2G13G 6
  21745043.172    -5567772.533 5  -4052951.80521
  19000428.2504   -2145714.78947  -1647051.21164
  18392029.766   -22197627.935 7 -15789692.45122
  18217087.5394  -31483814.77647 -24391675.03863
 91  4 24  0  7 59.9920000  0  4G15G 2G13G 6
  21747195.8524   -5556448.48045  -4044127.86261
  19001310.234    -2141078.657 8  -1643438.65623
  18385048.203   -22234310.691 7 -15818276.36422
  18215741.8994  -31490891.90647 -24397189.68963
 91  4 24  0  8 14.9920000  0  4G15G 2G13G 6
  21749380.852    -5544991.983 5  -4035200.74221
  19002202.149    -2136393.826 8  -1639788.15324
  18378095.031   -22270852.302 7 -15846750.30122
  18214418.6804  -31497844.51047 -24402607.30863
 91  4 24  0  8 29.9920000  0  4G15G 2G13G 6
  21751582.7584   -5533403.39845  -4026170.68961
  19003102.500    -2131660.538 8  -1636099.89224
  18371169.453   -22307253.029 7 -15875114.45322
  18213118.2814  -31504672.69547 -24407927.97763
 91  4 24  0  8 44.9920000  0  4G15G 2G13G 6
  21753813.922    -5521685.676 5  -4017040.02021
  19004011.6644   -2126881.51048  -1632375.98764
  18364268.141   -22343515.354 7 -15903370.75822
  18211841.9304  -31511379.12047 -24413153.76863
 91  4 24  0  8 59.9920000  0  4G15G 2G13G 6
  21756069.477    -5509836.263 5  -4007806.71521
  19004931.375    -2122054.285 8  -1628614.52424
  18357394.774   -22379636.624 7 -15931517.14722
  18210590.3674  -31517960.93347 -24418282.45863
 91  4 24  0  9 14.9920000  0  4G15G 2G13G 6
  21758347.9534   -5497856.79345  -3998472.07361
  19005857.2344   -2117180.27747  -1624816.60664
  18350547.484   -22415618.079 7 -15959554.60022
  18209362.0864  -31524419.49347 -24423315.10963
 91  4 24  0  9 29.9920000  0  4G15G 2G13G 6
  21760654.734    -5485745.697 5  -3989034.87521
  19006795.5004   -2112257.72748  -1620980.85764
  18343727.328   -22451458.005 7 -15987481.76322
  18208156.6254  -31530752.85447 -24428250.20463
 91  4 24  0  9 44.9920000  0  4G15G 2G13G 6
  21762981.906    -5473503.859 5  -3979495.78521
  19007741.281    -2107287.028 8  -1617107.59823
  18336933.938   -22487156.746 7 -16015298.91622
  18206974.4774  -31536961.48047 -24433088.09263
 91  4 24  0  9 59.9920000  0  4G15G 2G13G 6
  21765336.7584   -5461125.82645  -3969850.57361
  19008696.000    -2102262.808 8  -1613192.64123
  18330169.672   -22522708.807 7 -16043001.76722
  18205818.8594  -31543039.69347 -24437824.36763
 91  4 24  0 10 14.9920000  0  4G15G 2G13G 6
  21767718.109    -5448613.486 5  -3960100.71121
  19009661.5634   -2097186.49647  -1609237.08463
  18323431.524   -22558115.865 7 -16070591.63522
  18204685.5554  -31548988.90047 -24442460.11563
 91  4 24  0 10 29.9920000  0  3G 2G13G 6
  19010638.7274   -2092055.40847  -1605238.83963
  18316721.180   -22593374.848 7 -16098066.11422
  18203577.9064  -31554806.17147 -24446993.05563
 91  4 24  0 10 44.9920000  0  3G 2G13G 6
  19011625.914    -2086874.275 7  -1601201.61023
  18310039.313   -22628490.376 7 -16125428.81222
  18202496.1804  -31560496.23347 -24451426.87163
 91  4 24  0 10 59.9920000  0  3G 2G13G 6
  19012620.2034   -2081647.32548  -1597128.67463
  18303382.875   -22663466.565 7 -16152682.93722
  18201436.2194  -31566062.98847 -24455764.60663
 91  4 24  0 11 14.9920000  0  3G 2G13G 6
  19013622.742    -2076372.234 7  -1593018.22923
  18296753.641   -22698301.620 7 -16179827.08222
  18200401.1494  -31571504.32547 -24460004.61063
 91  4 24  0 11 29.9920000  0  3G 2G13G 6
  19014636.2424   -2071049.70747  -1588870.81463
  18290151.992   -22732995.702 7 -16206861.38422
  18199389.8444  -31576820.50747 -24464147.08863
 91  4 24  0 11 44.9920000  0  3G 2G13G 6
  19015657.609    -2065677.756 7  -1584684.89023
  18283576.844   -22767546.948 7 -16233784.38422
  18198403.2584  -31582009.57247 -24468190.52363
 91  4 24  0 11 59.9920000  0  3G 2G13G 6
  19016690.5864   -2060255.15947  -1580459.49663
  18277029.602   -22801953.910 7 -16260594.95522
  18197439.8444  -31587070.07847 -24472133.77963
 91  4 24  0 12 14.9920000  0  3G 2G13G 6
  19017732.3674   -2054781.72047  -1576194.48563
  18270509.336   -22836216.388 7 -16287292.94022
  18196500.2814  -31592001.80447 -24475976.68963
 91  4 24  0 12 29.9920000  0  3G 2G13G 6
  19018783.4304   -2049257.54047  -1571889.93763
  18264016.703   -22870334.720 7 -16313878.60722
  18195586.6414  -31596804.81047 -24479719.29763
 91  4 24  0 12 44.9920000  0  3G 2G13G 6
  19019843.4774   -2043683.31047  -1567546.39063
  18257552.766   -22904309.555 7 -16340352.45822
  18194697.9774  -31601479.66247 -24483362.04663
 91  4 24  0 12 59.9920000  0  3G 2G13G 6
  19020915.6254   -2038057.60647  -1563162.73363
  18251114.508   -22938139.238 7 -16366713.20522
  18193831.4454  -31606024.62047 -24486903.57563
 91  4 24  0 13 14.9920000  0  3G 2G13G 6
  19021993.8674   -2032383.78247  -1558741.58363
  18244703.430   -22971826.787 7 -16392963.19222
  18192991.6564  -31610442.93647 -24490346.41963
 91  4 24  0 13 29.9920000  0  3G 2G13G 6
  19023085.2424   -2026657.44747  -1554279.51263
  18238320.453   -23005367.943 7 -16419099.11522
  18192174.9614  -31614730.14647 -24493687.10563
 91  4 24  0 13 44.9920000  0  3G 2G13G 6
  19024182.1564   -2020884.57747  -1549781.17863
  18231964.391   -23038768.554 7 -16445125.52222
  18191384.5864  -31618892.39847 -24496930.42063
 91  4 24  0 13 59.9920000  0  3G 2G13G 6
  19025290.8834   -2015061.63947  -1545243.83163
  18225635.977   -23072025.266 7 -16471039.79722
  18190614.4774  -31622925.84347 -24500073.36563
 91  4 24  0 14 14.9920000  0  3G 2G13G 6
  19026409.2034   -2009184.83047  -1540664.51163
  18219336.563   -23105134.007 7 -16496838.77022
  18189873.9224  -31626826.48547 -24503112.82563
 91  4 24  0 14 29.9920000  0  3G 2G13G 6
  19027536.5474   -2003259.36647  -1536047.27363
  18213062.383   -23138099.938 7 -16522526.46422
  18189156.4224  -31630599.48647 -24506052.83263
 91  4 24  0 14 44.9920000  0  3G 2G13G 6
  19028673.6494   -1997282.80047  -1531390.21263
  18206816.180   -23170920.655 7 -16548101.00222
  18188462.1024  -31634242.19047 -24508891.30763
 91  4 24  0 14 59.9920000  0  3G 2G13G 6
  19029821.008    -1991258.148 7  -1526695.69523
  18200598.531   -23203599.289 7 -16573564.82622
  18187793.5864  -31637757.51847 -24511630.53163
 91  4 24  0 15 14.9920000  0  3G 2G13G 6
  19030976.6804   -1985185.01547  -1521963.39263
  18194407.227   -23236135.294 7 -16598917.51122
  18187149.0084  -31641145.06247 -24514270.18063
 91  4 24  0 15 29.9920000  0  3G 2G13G 6
  19032141.3834   -1979062.55247  -1517192.64863
  18188242.922   -23268527.994 7 -16624158.53122
  18186528.4614  -31644403.99947 -24516809.61463
 91  4 24  0 15 44.9920000  0  3G 2G13G 6
  19033315.0394   -1972894.89647  -1512386.69263
  18182105.180   -23300781.417 7 -16649291.02122
  18185932.2664  -31647538.42147 -24519252.02763
 91  4 24  0 15 59.9920000  0  3G 2G13G 6
  19034498.6494   -1966671.65447  -1507537.42563
  18175996.266   -23332885.072 7 -16674306.80522
  18185362.5704  -31650537.63647 -24521589.08063
 91  4 24  0 16 14.9920000  0  3G 2G13G 6
  19035693.5634   -1960394.73847  -1502646.32363
  18169914.969   -23364840.511 7 -16699207.09922
  18184816.5944  -31653403.29347 -24523822.06463
 91  4 24  0 16 29.9920000  0  3G 2G13G 6
  19036897.6334   -1954071.75147  -1497719.33263
  18163861.000   -23396655.801 7 -16723998.18322
  18184294.9384  -31656143.21047 -24525957.06963
 91  4 24  0 16 44.9920000  0  3G 2G13G 6
  19038110.7424   -1947696.51647  -1492751.62663
  18157835.055   -23428324.495 7 -16748675.04522
  18183797.5634  -31658750.98047 -24527989.10363
 91  4 24  0 16 59.9920000  0  3G 2G13G 6
  19039332.563    -1941272.168 7  -1487745.65323
  18151835.422   -23459849.762 7 -16773240.13722
  18183326.7584  -31661229.51947 -24529920.43863
 91  4 24  0 17 14.9920000  0  3G 2G13G 6
  19040564.344    -1934795.349 7  -1482698.79223
  18145863.524   -23491228.308 7 -16797690.90622
  18182882.2894  -31663575.51247 -24531748.49263
 91  4 24  0 17 29.9920000  0  3G 2G13G 6
  19041808.1724   -1928265.76747  -1477610.81963
  18139921.141   -23522459.881 7 -16822027.14822
  18182459.7744  -31665788.73047 -24533473.08663
 91  4 24  0 17 44.9920000  0  3G 2G13G 6
  19043059.0394   -1921686.82147  -1472484.37263
  18134005.891   -23553547.618 7 -16846251.31422
  18182063.6414  -31667872.23247 -24535096.60263
 91  4 24  0 17 59.9920000  0  3G 2G13G 6
  19044321.008    -1915052.172 7  -1467314.53323
  18128117.789   -23584485.273 7 -16870358.53222
  18181693.9774  -31669819.72547 -24536614.13663
 91  4 24  0 18 14.9920000  0  3G 2G13G 6
  19045595.1564   -1908366.83247  -1462105.18763
  18122258.820   -23615277.792 7 -16894352.66122
  18181346.9534  -31671636.15447 -24538029.54063
 91  4 24  0 18 29.9920000  0  3G 2G13G 6
  19046876.375    -1901623.808 7  -1456850.89323
  18116428.016   -23645918.232 7 -16918228.28622
  18181029.086   -31673314.395 7 -24539337.27023
 91  4 24  0 18 44.9920000  0  3G 2G13G 6
  19048170.438    -1894827.189 7  -1451554.85123
  18110625.602   -23676410.483 7 -16941988.43422
  18180733.7424  -31674858.51547 -24540540.48863
 91  4 24  0 18 59.9920000  0  3G 2G13G 6
  19049474.344    -1887979.740 7  -1446219.19323
  18104850.242   -23706757.319 7 -16965635.27922
  18180465.2894  -31676271.00347 -24541641.13863
 91  4 24  0 19 14.9920000  0  3G 2G13G 6
  19050786.031    -1881080.607 7  -1440843.25723
  18099104.1254  -23736957.97847 -16989168.21962
  18180221.0244  -31677551.06847 -24542638.59463
 91  4 24  0 19 29.9920000  0  3G 2G13G 6
  19052108.500    -1874134.320 7  -1435430.58523
  18093384.117   -23767017.151 7 -17012590.91122
  18180002.2744  -31678703.16847 -24543536.34263
 91  4 24  0 19 44.9920000  0  3G 2G13G 6
  19053441.250    -1867133.943 7  -1429975.76023
  18087691.383   -23796927.894 7 -17035897.94322
  18179807.8134  -31679720.15747 -24544328.80963
 91  4 24  0 19 59.9920000  0  3G 2G13G 6
  19054782.500    -1860082.166 7  -1424480.88923
  18082025.4694  -23826692.83447 -17059091.36662
  18179637.297   -31680604.748 7 -24545018.10923
 91  4 24  0 20 14.9920000  0  3G 2G13G 6
  19056133.359    -1852978.592 7  -1418945.65323
  18076389.797   -23856311.640 7 -17082170.90722
  18179494.2344  -31681356.49847 -24545603.90163
 91  4 24  0 20 29.9920000  0  3G 2G13G 6
  19057495.961    -1845820.058 7  -1413367.59123
  18070782.024   -23885781.205 7 -17105134.16022
  18179379.0634  -31681972.21947 -24546083.69163
 91  4 24  0 20 44.9920000  0  3G 2G13G 6
  19058868.641    -1838609.591 7  -1407749.06323
  18065202.992   -23915104.526 7 -17127983.45722
  18179289.008   -31682454.769 7 -24546459.71323
 91  4 24  0 20 59.9920000  0  3G 2G13G 6
  19060250.969    -1831351.693 7  -1402093.57823
  18059649.195   -23944285.983 7 -17150722.21522
  18179222.039   -31682808.651 7 -24546735.48023
 91  4 24  0 21 14.9920000  0  3G 2G13G 6
  19061640.367    -1824049.284 7  -1396403.40824
  18054123.6174  -23973328.32047 -17173352.56962
  18179175.758   -31683036.541 7 -24546913.06523
 91  4 24  0 21 29.9920000  0  3G 2G13G 6
  19063037.617    -1816698.359 7  -1390675.43223
  18048623.0704  -24002227.73547 -17195871.55162
  18179157.906   -31683134.406 7
 91  4 24  0 21 44.9920000  0  3G 2G13G 6
  19064446.141    -1809290.614 7  -1384903.17823
  18043152.6494  -24030976.05747 -17218272.79962
  18179168.899   -31683093.991 7
 91  4 24  0 21 59.9920000  0  3G 2G13G 6
  19065867.141    -1801827.092 7  -1379087.46823
  18037710.570   -24059574.303 7 -17240557.10422
  18179199.6094  -31682916.24147
 91  4 24  0 22 14.9920000  0  3G 2G13G 6
  19067298.891    -1794313.065 7  -1373232.40823
  18032297.0554  -24088027.62447 -17262728.48762
  18179259.3754  -31682606.29047
 91  4 24  0 22 29.9920000  0  3G 2G13G 6
  19068738.024    -1786740.613 7  -1367331.81023
  18026911.1644  -24116328.35847 -17284780.97262
  18179343.102   -31682156.456 7 -24546227.35523
 91  4 24  0 22 44.9920000  0  3G 2G13G 6
  19070188.977    -1779119.352 7  -1361393.18123
  18021552.516   -24144485.835 7 -17306721.81922
  18179454.9304  -31681576.01247 -24545775.06963
 91  4 24  0 22 59.9920000  0  3G 2G13G 6
  19071648.641    -1771451.334 7  -1355418.12123
  18016221.3674  -24172502.18947 -17328552.70762
  18179591.6174  -31680866.92647 -24545222.54563
 91  4 24  0 23 14.9920000  0  3G 2G13G 6
  19073116.820    -1763733.703 7  -1349404.39623
  18010916.7744  -24200374.54547 -17350271.38862
  18179750.7974  -31680026.22747 -24544567.46363
 91  4 24  0 23 29.9920000  0  3G 2G13G 6
  19074595.422    -1755960.656 7  -1343347.49023
  18005642.2744  -24228096.94447 -17371873.21862
  18179935.8754  -31679048.03447 -24543805.24563
 91  4 24  0 23 44.9920000  0  3G 2G13G 6
  19076085.563    -1748137.220 7  -1337251.32523
  18000393.7584  -24255674.77247 -17393362.39762
  18180147.2664  -31677937.43847 -24542939.85463
 91  4 24  0 23 59.9920000  0  3G 2G13G 6
  19077582.188    -1740265.442 7  -1331117.48623
  17995173.7034  -24283110.15847 -17414740.58362
  18180384.6564  -31676696.41447 -24541972.82763
 91  4 24  0 24 14.9920000  0  3G 2G13G 6
  19079090.047    -1732336.297 7  -1324938.95623
  17989981.2194  -24310394.15547 -17436000.80562
  18180648.0244  -31675316.03347 -24540897.21363
 91  4 24  0 24 29.9920000  0  3G 2G13G 6
  19080611.594    -1724352.949 7  -1318718.18523
  17984817.0164  -24337529.78547 -17457145.41762
  18180934.859   -31673799.274 7 -24539715.33823
 91  4 24  0 24 44.9920000  0  3G 2G13G 6
  19082139.969    -1716323.528 7  -1312461.50823
  17979680.4454  -24364525.04747 -17478180.65162
  18181245.9304  -31672154.13747 -24538433.42363
 91  4 24  0 24 59.9920000  0  3G 2G13G 6
  19083677.336    -1708244.656 7  -1306166.29823
  17974570.6954  -24391376.64547 -17499103.93762
  18181585.8444  -31670377.40247 -24537048.97163
 91  4 24  0 25 14.9920000  0  3G 2G13G 6
  19085225.969    -1700108.921 7  -1299826.77723
  17969489.6334  -24418077.43147 -17519909.71262
  18181951.1884  -31668461.48947 -24535556.06063
 91  4 24  0 25 29.9920000  0  3G 2G13G 6
  19086784.055    -1691923.825 7  -1293448.79423
  17964435.8994  -24444634.88447 -17540603.79762
  18182340.3134  -31666413.93447 -24533960.57563
 91  4 24  0 25 44.9920000  0  3G 2G13G 6
  19088350.680    -1683688.542 7  -1287031.70623
  17959408.1644  -24471048.19547 -17561185.56462
  18182754.727   -31664233.817 7 -24532261.79123
 91  4 24  0 25 59.9920000  0  3G 2G13G 6
  19089925.750    -1675399.611 7  -1280572.82423
  17954411.3674  -24497313.96847 -17581652.36462
  18183195.8364  -31661917.69047 -24530457.03163
 91  4 24  0 26 14.9920000  0  3G 2G13G 6
  19091512.188    -1667059.130 7  -1274073.76623
  17949440.4224  -24523434.25747 -17602005.80462
  18183665.375   -31659467.483 7 -24528547.79423
 91  4 24  0 26 29.9920000  0  3G 2G13G 6
  19093110.8054   -1658658.56747  -1267527.88663
  17944499.8524  -24549400.54547 -17622239.24062
  18184157.649   -31656874.535 7 -24526527.33023
 91  4 24  0 26 44.9920000  0  3G 2G13G 6
  19094720.4304   -1650211.29447  -1260945.60463
  17939585.2974  -24575226.35547 -17642363.21462
  18184673.8994  -31654152.29247 -24524406.11163
 91  4 24  0 26 59.9920000  0  3G 2G13G 6
  19096336.945    -1641712.664 7  -1254323.31523
  17934697.7664  -24600907.06847 -17662374.13062
  18185216.2114  -31651296.10547 -24522180.52463
 91  4 24  0 27 14.9920000  0  3G 2G13G 6
  19097963.453    -1633158.697 7  -1247657.90823
  17929838.8754  -24626438.68447 -17682268.86062
  18185789.164   -31648301.959 7 -24519847.44223
